<?xml version="1.0" encoding="UTF-8" standalone="no" ?>
<gpx xmlns="http://www.topografix.com/GPX/1/1" xmlns:xsi="http://www.w3.org/2001/XMLSchema-instance" xsi:schemaLocation="http://www.topografix.com/GPX/1/1 http://www.topografix.com/GPX/1/1/gpx.xsd" version="1.1" creator="VisuGPX - https://www.visugpx.com">
  <metadata>
    <name>Mondalindo y Peña Negra desde Bustarviejo</name>
    <desc><![CDATA[Ruta de senderismo al Mondalindo y Peña Negra desde Bustarviejo. Tramo entre los wpt 017 y 020 por senda indefinida.]]></desc>
  </metadata>
  <wpt lat="40.85811" lon="-3.71151">
    <ele>1224.979736</ele>
    <name><![CDATA[001_InicioBustarviejo]]></name>
  </wpt>
  <wpt lat="40.85763" lon="-3.72123">
    <ele>1268.625854</ele>
    <name><![CDATA[002_CampoFutbol]]></name>
  </wpt>
  <wpt lat="40.8556" lon="-3.7244">
    <ele>1281.076416</ele>
    <name><![CDATA[003_Derecha]]></name>
  </wpt>
  <wpt lat="40.85744" lon="-3.73397">
    <ele>1278.768555</ele>
    <name><![CDATA[004_AbandonoGR10]]></name>
  </wpt>
  <wpt lat="40.86624" lon="-3.73104">
    <ele>1433.655029</ele>
    <name><![CDATA[005_TorreMIna]]></name>
  </wpt>
  <wpt lat="40.86676" lon="-3.73044">
    <ele>1449.272583</ele>
    <name><![CDATA[006]]></name>
  </wpt>
  <wpt lat="40.86882" lon="-3.72908">
    <ele>1499.48291</ele>
    <name><![CDATA[007]]></name>
  </wpt>
  <wpt lat="40.87253" lon="-3.7285">
    <ele>1605.913452</ele>
    <name><![CDATA[008_ColladoAbierto]]></name>
  </wpt>
  <wpt lat="40.87096" lon="-3.72256">
    <ele>1658.938843</ele>
    <name><![CDATA[009]]></name>
  </wpt>
  <wpt lat="40.88066" lon="-3.69582">
    <ele>1828.156494</ele>
    <name><![CDATA[010_Mondalindo]]></name>
  </wpt>
  <wpt lat="40.88635" lon="-3.67998">
    <ele>1835.560669</ele>
    <name><![CDATA[011_PeñaNegra]]></name>
  </wpt>
  <wpt lat="40.89211" lon="-3.67533">
    <ele>1747.259644</ele>
    <name><![CDATA[012_Derecha]]></name>
  </wpt>
  <wpt lat="40.8872" lon="-3.67099">
    <ele>1504.542236</ele>
    <name><![CDATA[013]]></name>
  </wpt>
  <wpt lat="40.88408" lon="-3.67186">
    <ele>1441.555054</ele>
    <name><![CDATA[014]]></name>
  </wpt>
  <wpt lat="40.88377" lon="-3.67251">
    <ele>1436.163208</ele>
    <name><![CDATA[015_Fuente]]></name>
  </wpt>
  <wpt lat="40.87811" lon="-3.67691">
    <ele>1394.795044</ele>
    <name><![CDATA[016_Desvio]]></name>
  </wpt>
  <wpt lat="40.87687" lon="-3.68268">
    <ele>1440.752808</ele>
    <name><![CDATA[017_Portilla]]></name>
  </wpt>
  <wpt lat="40.87584" lon="-3.68549">
    <ele>1480</ele>
    <name><![CDATA[018_SinSenda]]></name>
    <desc><![CDATA[Monte através]]></desc>
    <cmt><![CDATA[Monte através]]></cmt>
  </wpt>
  <wpt lat="40.8718" lon="-3.68457">
    <ele>1323.88147</ele>
    <name><![CDATA[019]]></name>
  </wpt>
  <wpt lat="40.86916" lon="-3.68407">
    <ele>1264.950073</ele>
    <name><![CDATA[020_GR10]]></name>
  </wpt>
  <wpt lat="40.86852" lon="-3.68559">
    <ele>1262.851807</ele>
    <name><![CDATA[021_Fuente]]></name>
  </wpt>
  <wpt lat="40.86554" lon="-3.69011">
    <ele>1239.637329</ele>
    <name><![CDATA[022]]></name>
  </wpt>
  <wpt lat="40.86117" lon="-3.69983">
    <ele>1217.025146</ele>
    <name><![CDATA[023_Asfalto]]></name>
  </wpt>
  <wpt lat="40.85812" lon="-3.7113">
    <ele>1226.728149</ele>
    <name><![CDATA[024_Final]]></name>
  </wpt>
  <trk>
    <name><![CDATA[20150103_Mondalindo]]></name>
    <trkseg>
      <trkpt lat="40.85813" lon="-3.71149">
        <ele>1221.49</ele>
        <time>2015-01-03T07:01:13Z</time>
      </trkpt>
      <trkpt lat="40.85813" lon="-3.7115">
        <ele>1221.49</ele>
        <time>2015-01-03T07:01:22Z</time>
      </trkpt>
      <trkpt lat="40.85816" lon="-3.71161">
        <ele>1221.97</ele>
        <time>2015-01-03T07:01:29Z</time>
      </trkpt>
      <trkpt lat="40.85829" lon="-3.71188">
        <ele>1222.93</ele>
        <time>2015-01-03T07:01:46Z</time>
      </trkpt>
      <trkpt lat="40.85834" lon="-3.71191">
        <ele>1222.93</ele>
        <time>2015-01-03T07:01:50Z</time>
      </trkpt>
      <trkpt lat="40.85842" lon="-3.71196">
        <ele>1223.9</ele>
        <time>2015-01-03T07:01:58Z</time>
      </trkpt>
      <trkpt lat="40.8586" lon="-3.71211">
        <ele>1224.38</ele>
        <time>2015-01-03T07:02:17Z</time>
      </trkpt>
      <trkpt lat="40.85861" lon="-3.71211">
        <ele>1224.38</ele>
        <time>2015-01-03T07:02:18Z</time>
      </trkpt>
      <trkpt lat="40.85864" lon="-3.71223">
        <ele>1226.78</ele>
        <time>2015-01-03T07:02:27Z</time>
      </trkpt>
      <trkpt lat="40.85874" lon="-3.7124">
        <ele>1228.22</ele>
        <time>2015-01-03T07:02:43Z</time>
      </trkpt>
      <trkpt lat="40.85881" lon="-3.71253">
        <ele>1229.66</ele>
        <time>2015-01-03T07:02:56Z</time>
      </trkpt>
      <trkpt lat="40.85891" lon="-3.71272">
        <ele>1230.62</ele>
        <time>2015-01-03T07:03:12Z</time>
      </trkpt>
      <trkpt lat="40.85892" lon="-3.71274">
        <ele>1232.07</ele>
        <time>2015-01-03T07:03:14Z</time>
      </trkpt>
      <trkpt lat="40.85905" lon="-3.71294">
        <ele>1233.03</ele>
        <time>2015-01-03T07:03:32Z</time>
      </trkpt>
      <trkpt lat="40.8592" lon="-3.71316">
        <ele>1235.91</ele>
        <time>2015-01-03T07:03:50Z</time>
      </trkpt>
      <trkpt lat="40.85922" lon="-3.71334">
        <ele>1236.39</ele>
        <time>2015-01-03T07:04:01Z</time>
      </trkpt>
      <trkpt lat="40.85927" lon="-3.71358">
        <ele>1238.8</ele>
        <time>2015-01-03T07:04:16Z</time>
      </trkpt>
      <trkpt lat="40.85933" lon="-3.71393">
        <ele>1240.72</ele>
        <time>2015-01-03T07:04:37Z</time>
      </trkpt>
      <trkpt lat="40.85936" lon="-3.71416">
        <ele>1242.64</ele>
        <time>2015-01-03T07:04:52Z</time>
      </trkpt>
      <trkpt lat="40.85943" lon="-3.71434">
        <ele>1243.12</ele>
        <time>2015-01-03T07:05:04Z</time>
      </trkpt>
      <trkpt lat="40.85946" lon="-3.71458">
        <ele>1245.04</ele>
        <time>2015-01-03T07:05:20Z</time>
      </trkpt>
      <trkpt lat="40.85938" lon="-3.71482">
        <ele>1246.97</ele>
        <time>2015-01-03T07:05:37Z</time>
      </trkpt>
      <trkpt lat="40.85926" lon="-3.7151">
        <ele>1248.41</ele>
        <time>2015-01-03T07:05:55Z</time>
      </trkpt>
      <trkpt lat="40.85917" lon="-3.71539">
        <ele>1250.33</ele>
        <time>2015-01-03T07:06:13Z</time>
      </trkpt>
      <trkpt lat="40.85912" lon="-3.71554">
        <ele>1250.81</ele>
        <time>2015-01-03T07:06:22Z</time>
      </trkpt>
      <trkpt lat="40.85906" lon="-3.71576">
        <ele>1252.25</ele>
        <time>2015-01-03T07:06:34Z</time>
      </trkpt>
      <trkpt lat="40.85898" lon="-3.71601">
        <ele>1252.74</ele>
        <time>2015-01-03T07:06:50Z</time>
      </trkpt>
      <trkpt lat="40.85889" lon="-3.71625">
        <ele>1254.18</ele>
        <time>2015-01-03T07:07:05Z</time>
      </trkpt>
      <trkpt lat="40.85881" lon="-3.71654">
        <ele>1255.14</ele>
        <time>2015-01-03T07:07:21Z</time>
      </trkpt>
      <trkpt lat="40.85872" lon="-3.71684">
        <ele>1256.1</ele>
        <time>2015-01-03T07:07:38Z</time>
      </trkpt>
      <trkpt lat="40.85864" lon="-3.71713">
        <ele>1257.54</ele>
        <time>2015-01-03T07:07:54Z</time>
      </trkpt>
      <trkpt lat="40.85859" lon="-3.71731">
        <ele>1258.02</ele>
        <time>2015-01-03T07:08:05Z</time>
      </trkpt>
      <trkpt lat="40.85857" lon="-3.71738">
        <ele>1258.02</ele>
        <time>2015-01-03T07:08:09Z</time>
      </trkpt>
      <trkpt lat="40.85851" lon="-3.71771">
        <ele>1258.98</ele>
        <time>2015-01-03T07:08:27Z</time>
      </trkpt>
      <trkpt lat="40.8585" lon="-3.71802">
        <ele>1259.46</ele>
        <time>2015-01-03T07:08:44Z</time>
      </trkpt>
      <trkpt lat="40.85849" lon="-3.71836">
        <ele>1259.94</ele>
        <time>2015-01-03T07:09:02Z</time>
      </trkpt>
      <trkpt lat="40.85849" lon="-3.71845">
        <ele>1260.91</ele>
        <time>2015-01-03T07:09:07Z</time>
      </trkpt>
      <trkpt lat="40.85849" lon="-3.71859">
        <ele>1261.87</ele>
        <time>2015-01-03T07:09:16Z</time>
      </trkpt>
      <trkpt lat="40.85848" lon="-3.7189">
        <ele>1262.83</ele>
        <time>2015-01-03T07:09:34Z</time>
      </trkpt>
      <trkpt lat="40.85842" lon="-3.71921">
        <ele>1263.79</ele>
        <time>2015-01-03T07:09:51Z</time>
      </trkpt>
      <trkpt lat="40.85825" lon="-3.71948">
        <ele>1265.23</ele>
        <time>2015-01-03T07:10:09Z</time>
      </trkpt>
      <trkpt lat="40.85811" lon="-3.71976">
        <ele>1266.19</ele>
        <time>2015-01-03T07:10:26Z</time>
      </trkpt>
      <trkpt lat="40.85797" lon="-3.72003">
        <ele>1266.67</ele>
        <time>2015-01-03T07:10:43Z</time>
      </trkpt>
      <trkpt lat="40.85792" lon="-3.72032">
        <ele>1267.16</ele>
        <time>2015-01-03T07:10:58Z</time>
      </trkpt>
      <trkpt lat="40.8579" lon="-3.7204">
        <ele>1267.64</ele>
        <time>2015-01-03T07:11:02Z</time>
      </trkpt>
      <trkpt lat="40.85781" lon="-3.72079">
        <ele>1268.12</ele>
        <time>2015-01-03T07:11:22Z</time>
      </trkpt>
      <trkpt lat="40.85772" lon="-3.72111">
        <ele>1269.08</ele>
        <time>2015-01-03T07:11:40Z</time>
      </trkpt>
      <trkpt lat="40.85755" lon="-3.72131">
        <ele>1269.08</ele>
        <time>2015-01-03T07:11:56Z</time>
      </trkpt>
      <trkpt lat="40.85747" lon="-3.72145">
        <ele>1269.56</ele>
        <time>2015-01-03T07:12:05Z</time>
      </trkpt>
      <trkpt lat="40.85747" lon="-3.72162">
        <ele>1269.56</ele>
        <time>2015-01-03T07:12:13Z</time>
      </trkpt>
      <trkpt lat="40.85743" lon="-3.72182">
        <ele>1270.04</ele>
        <time>2015-01-03T07:12:30Z</time>
      </trkpt>
      <trkpt lat="40.85742" lon="-3.72186">
        <ele>1271</ele>
        <time>2015-01-03T07:12:42Z</time>
      </trkpt>
      <trkpt lat="40.85742" lon="-3.72185">
        <ele>1271</ele>
        <time>2015-01-03T07:12:45Z</time>
      </trkpt>
      <trkpt lat="40.85742" lon="-3.72174">
        <ele>1270.52</ele>
        <time>2015-01-03T07:12:50Z</time>
      </trkpt>
      <trkpt lat="40.85725" lon="-3.72171">
        <ele>1270.52</ele>
        <time>2015-01-03T07:13:04Z</time>
      </trkpt>
      <trkpt lat="40.85708" lon="-3.72191">
        <ele>1271.48</ele>
        <time>2015-01-03T07:13:20Z</time>
      </trkpt>
      <trkpt lat="40.85683" lon="-3.72224">
        <ele>1273.4</ele>
        <time>2015-01-03T07:13:42Z</time>
      </trkpt>
      <trkpt lat="40.85665" lon="-3.72248">
        <ele>1274.36</ele>
        <time>2015-01-03T07:13:59Z</time>
      </trkpt>
      <trkpt lat="40.85649" lon="-3.72271">
        <ele>1275.81</ele>
        <time>2015-01-03T07:14:16Z</time>
      </trkpt>
      <trkpt lat="40.85629" lon="-3.72309">
        <ele>1276.77</ele>
        <time>2015-01-03T07:14:40Z</time>
      </trkpt>
      <trkpt lat="40.85613" lon="-3.72341">
        <ele>1277.73</ele>
        <time>2015-01-03T07:14:57Z</time>
      </trkpt>
      <trkpt lat="40.85592" lon="-3.72372">
        <ele>1278.69</ele>
        <time>2015-01-03T07:15:18Z</time>
      </trkpt>
      <trkpt lat="40.85572" lon="-3.72411">
        <ele>1279.65</ele>
        <time>2015-01-03T07:15:42Z</time>
      </trkpt>
      <trkpt lat="40.8556" lon="-3.7244">
        <ele>1281.09</ele>
        <time>2015-01-03T07:15:59Z</time>
      </trkpt>
      <trkpt lat="40.85557" lon="-3.72462">
        <ele>1281.09</ele>
        <time>2015-01-03T07:16:10Z</time>
      </trkpt>
      <trkpt lat="40.85562" lon="-3.72499">
        <ele>1281.57</ele>
        <time>2015-01-03T07:16:29Z</time>
      </trkpt>
      <trkpt lat="40.85565" lon="-3.72532">
        <ele>1281.09</ele>
        <time>2015-01-03T07:16:47Z</time>
      </trkpt>
      <trkpt lat="40.85569" lon="-3.72563">
        <ele>1283.02</ele>
        <time>2015-01-03T07:17:04Z</time>
      </trkpt>
      <trkpt lat="40.85565" lon="-3.72587">
        <ele>1283.5</ele>
        <time>2015-01-03T07:17:17Z</time>
      </trkpt>
      <trkpt lat="40.85567" lon="-3.72583">
        <ele>1283.5</ele>
        <time>2015-01-03T07:17:33Z</time>
      </trkpt>
      <trkpt lat="40.85564" lon="-3.72587">
        <ele>1283.5</ele>
        <time>2015-01-03T07:17:46Z</time>
      </trkpt>
      <trkpt lat="40.85563" lon="-3.72605">
        <ele>1283.02</ele>
        <time>2015-01-03T07:17:59Z</time>
      </trkpt>
      <trkpt lat="40.8556" lon="-3.72641">
        <ele>1282.06</ele>
        <time>2015-01-03T07:18:20Z</time>
      </trkpt>
      <trkpt lat="40.85555" lon="-3.72673">
        <ele>1281.57</ele>
        <time>2015-01-03T07:18:39Z</time>
      </trkpt>
      <trkpt lat="40.85552" lon="-3.72702">
        <ele>1281.57</ele>
        <time>2015-01-03T07:18:57Z</time>
      </trkpt>
      <trkpt lat="40.85556" lon="-3.72725">
        <ele>1281.57</ele>
        <time>2015-01-03T07:19:16Z</time>
      </trkpt>
      <trkpt lat="40.85558" lon="-3.72757">
        <ele>1281.09</ele>
        <time>2015-01-03T07:19:33Z</time>
      </trkpt>
      <trkpt lat="40.85562" lon="-3.72795">
        <ele>1281.09</ele>
        <time>2015-01-03T07:19:51Z</time>
      </trkpt>
      <trkpt lat="40.8557" lon="-3.72828">
        <ele>1280.13</ele>
        <time>2015-01-03T07:20:09Z</time>
      </trkpt>
      <trkpt lat="40.85571" lon="-3.72865">
        <ele>1280.61</ele>
        <time>2015-01-03T07:20:27Z</time>
      </trkpt>
      <trkpt lat="40.85578" lon="-3.729">
        <ele>1281.57</ele>
        <time>2015-01-03T07:20:45Z</time>
      </trkpt>
      <trkpt lat="40.85589" lon="-3.72935">
        <ele>1283.02</ele>
        <time>2015-01-03T07:21:05Z</time>
      </trkpt>
      <trkpt lat="40.85597" lon="-3.7296">
        <ele>1283.98</ele>
        <time>2015-01-03T07:21:19Z</time>
      </trkpt>
      <trkpt lat="40.85607" lon="-3.72994">
        <ele>1284.46</ele>
        <time>2015-01-03T07:21:37Z</time>
      </trkpt>
      <trkpt lat="40.85619" lon="-3.73033">
        <ele>1283.98</ele>
        <time>2015-01-03T07:21:58Z</time>
      </trkpt>
      <trkpt lat="40.85624" lon="-3.73073">
        <ele>1283.98</ele>
        <time>2015-01-03T07:22:18Z</time>
      </trkpt>
      <trkpt lat="40.85636" lon="-3.73112">
        <ele>1283.5</ele>
        <time>2015-01-03T07:22:39Z</time>
      </trkpt>
      <trkpt lat="40.85644" lon="-3.7315">
        <ele>1283.5</ele>
        <time>2015-01-03T07:22:58Z</time>
      </trkpt>
      <trkpt lat="40.85658" lon="-3.73187">
        <ele>1283.98</ele>
        <time>2015-01-03T07:23:19Z</time>
      </trkpt>
      <trkpt lat="40.85673" lon="-3.73224">
        <ele>1284.46</ele>
        <time>2015-01-03T07:23:40Z</time>
      </trkpt>
      <trkpt lat="40.85688" lon="-3.73248">
        <ele>1284.94</ele>
        <time>2015-01-03T07:23:56Z</time>
      </trkpt>
      <trkpt lat="40.85702" lon="-3.73277">
        <ele>1283.02</ele>
        <time>2015-01-03T07:24:13Z</time>
      </trkpt>
      <trkpt lat="40.8571" lon="-3.73311">
        <ele>1282.06</ele>
        <time>2015-01-03T07:24:32Z</time>
      </trkpt>
      <trkpt lat="40.85722" lon="-3.73332">
        <ele>1282.54</ele>
        <time>2015-01-03T07:24:45Z</time>
      </trkpt>
      <trkpt lat="40.85731" lon="-3.7337">
        <ele>1280.61</ele>
        <time>2015-01-03T07:25:04Z</time>
      </trkpt>
      <trkpt lat="40.85735" lon="-3.73383">
        <ele>1280.61</ele>
        <time>2015-01-03T07:25:11Z</time>
      </trkpt>
      <trkpt lat="40.85743" lon="-3.73392">
        <ele>1280.13</ele>
        <time>2015-01-03T07:25:25Z</time>
      </trkpt>
      <trkpt lat="40.85744" lon="-3.73398">
        <ele>1278.69</ele>
        <time>2015-01-03T07:25:29Z</time>
      </trkpt>
      <trkpt lat="40.85745" lon="-3.73399">
        <ele>1278.69</ele>
        <time>2015-01-03T07:25:30Z</time>
      </trkpt>
      <trkpt lat="40.85763" lon="-3.73422">
        <ele>1279.17</ele>
        <time>2015-01-03T07:25:49Z</time>
      </trkpt>
      <trkpt lat="40.85782" lon="-3.73431">
        <ele>1280.13</ele>
        <time>2015-01-03T07:26:05Z</time>
      </trkpt>
      <trkpt lat="40.85797" lon="-3.73438">
        <ele>1282.54</ele>
        <time>2015-01-03T07:26:18Z</time>
      </trkpt>
      <trkpt lat="40.85813" lon="-3.73455">
        <ele>1283.5</ele>
        <time>2015-01-03T07:26:34Z</time>
      </trkpt>
      <trkpt lat="40.85837" lon="-3.73466">
        <ele>1284.46</ele>
        <time>2015-01-03T07:26:51Z</time>
      </trkpt>
      <trkpt lat="40.85854" lon="-3.73477">
        <ele>1285.42</ele>
        <time>2015-01-03T07:27:06Z</time>
      </trkpt>
      <trkpt lat="40.85863" lon="-3.73482">
        <ele>1286.38</ele>
        <time>2015-01-03T07:27:13Z</time>
      </trkpt>
      <trkpt lat="40.85878" lon="-3.73487">
        <ele>1286.86</ele>
        <time>2015-01-03T07:27:24Z</time>
      </trkpt>
      <trkpt lat="40.85902" lon="-3.7349">
        <ele>1289.27</ele>
        <time>2015-01-03T07:27:42Z</time>
      </trkpt>
      <trkpt lat="40.85923" lon="-3.73494">
        <ele>1290.71</ele>
        <time>2015-01-03T07:27:57Z</time>
      </trkpt>
      <trkpt lat="40.85948" lon="-3.73497">
        <ele>1292.63</ele>
        <time>2015-01-03T07:28:15Z</time>
      </trkpt>
      <trkpt lat="40.85972" lon="-3.73499">
        <ele>1294.07</ele>
        <time>2015-01-03T07:28:32Z</time>
      </trkpt>
      <trkpt lat="40.85997" lon="-3.73502">
        <ele>1295.99</ele>
        <time>2015-01-03T07:28:49Z</time>
      </trkpt>
      <trkpt lat="40.86012" lon="-3.73504">
        <ele>1297.44</ele>
        <time>2015-01-03T07:29:00Z</time>
      </trkpt>
      <trkpt lat="40.86029" lon="-3.735">
        <ele>1299.36</ele>
        <time>2015-01-03T07:29:13Z</time>
      </trkpt>
      <trkpt lat="40.86043" lon="-3.73496">
        <ele>1301.28</ele>
        <time>2015-01-03T07:29:28Z</time>
      </trkpt>
      <trkpt lat="40.86052" lon="-3.73493">
        <ele>1300.8</ele>
        <time>2015-01-03T07:29:39Z</time>
      </trkpt>
      <trkpt lat="40.86051" lon="-3.73493">
        <ele>1301.28</ele>
        <time>2015-01-03T07:29:47Z</time>
      </trkpt>
      <trkpt lat="40.86057" lon="-3.7349">
        <ele>1301.28</ele>
        <time>2015-01-03T07:29:51Z</time>
      </trkpt>
      <trkpt lat="40.86077" lon="-3.73481">
        <ele>1302.72</ele>
        <time>2015-01-03T07:30:06Z</time>
      </trkpt>
      <trkpt lat="40.86099" lon="-3.7347">
        <ele>1304.65</ele>
        <time>2015-01-03T07:30:25Z</time>
      </trkpt>
      <trkpt lat="40.86119" lon="-3.73463">
        <ele>1306.09</ele>
        <time>2015-01-03T07:30:41Z</time>
      </trkpt>
      <trkpt lat="40.8614" lon="-3.73455">
        <ele>1308.97</ele>
        <time>2015-01-03T07:30:58Z</time>
      </trkpt>
      <trkpt lat="40.86155" lon="-3.73444">
        <ele>1310.41</ele>
        <time>2015-01-03T07:31:11Z</time>
      </trkpt>
      <trkpt lat="40.86167" lon="-3.7343">
        <ele>1312.34</ele>
        <time>2015-01-03T07:31:25Z</time>
      </trkpt>
      <trkpt lat="40.86169" lon="-3.73428">
        <ele>1312.34</ele>
        <time>2015-01-03T07:31:27Z</time>
      </trkpt>
      <trkpt lat="40.86171" lon="-3.73427">
        <ele>1313.78</ele>
        <time>2015-01-03T07:31:29Z</time>
      </trkpt>
      <trkpt lat="40.86176" lon="-3.73422">
        <ele>1313.78</ele>
        <time>2015-01-03T07:31:34Z</time>
      </trkpt>
      <trkpt lat="40.86179" lon="-3.73418">
        <ele>1314.74</ele>
        <time>2015-01-03T07:31:38Z</time>
      </trkpt>
      <trkpt lat="40.86186" lon="-3.73404">
        <ele>1316.18</ele>
        <time>2015-01-03T07:31:48Z</time>
      </trkpt>
      <trkpt lat="40.86195" lon="-3.73393">
        <ele>1319.07</ele>
        <time>2015-01-03T07:32:00Z</time>
      </trkpt>
      <trkpt lat="40.862" lon="-3.7339">
        <ele>1319.55</ele>
        <time>2015-01-03T07:32:05Z</time>
      </trkpt>
      <trkpt lat="40.86208" lon="-3.73383">
        <ele>1320.99</ele>
        <time>2015-01-03T07:32:14Z</time>
      </trkpt>
      <trkpt lat="40.86215" lon="-3.73378">
        <ele>1321.95</ele>
        <time>2015-01-03T07:32:21Z</time>
      </trkpt>
      <trkpt lat="40.86232" lon="-3.73365">
        <ele>1324.83</ele>
        <time>2015-01-03T07:32:39Z</time>
      </trkpt>
      <trkpt lat="40.86233" lon="-3.73364">
        <ele>1324.83</ele>
        <time>2015-01-03T07:32:40Z</time>
      </trkpt>
      <trkpt lat="40.86247" lon="-3.73353">
        <ele>1326.76</ele>
        <time>2015-01-03T07:32:54Z</time>
      </trkpt>
      <trkpt lat="40.86249" lon="-3.73351">
        <ele>1327.24</ele>
        <time>2015-01-03T07:32:57Z</time>
      </trkpt>
      <trkpt lat="40.86261" lon="-3.73337">
        <ele>1330.6</ele>
        <time>2015-01-03T07:33:13Z</time>
      </trkpt>
      <trkpt lat="40.86264" lon="-3.73333">
        <ele>1332.04</ele>
        <time>2015-01-03T07:33:19Z</time>
      </trkpt>
      <trkpt lat="40.86269" lon="-3.7333">
        <ele>1333.01</ele>
        <time>2015-01-03T07:33:24Z</time>
      </trkpt>
      <trkpt lat="40.86282" lon="-3.73318">
        <ele>1335.89</ele>
        <time>2015-01-03T07:33:39Z</time>
      </trkpt>
      <trkpt lat="40.86287" lon="-3.73316">
        <ele>1336.37</ele>
        <time>2015-01-03T07:33:43Z</time>
      </trkpt>
      <trkpt lat="40.86289" lon="-3.73314">
        <ele>1336.85</ele>
        <time>2015-01-03T07:33:46Z</time>
      </trkpt>
      <trkpt lat="40.86293" lon="-3.73313">
        <ele>1337.33</ele>
        <time>2015-01-03T07:33:49Z</time>
      </trkpt>
      <trkpt lat="40.86308" lon="-3.73308">
        <ele>1338.77</ele>
        <time>2015-01-03T07:34:03Z</time>
      </trkpt>
      <trkpt lat="40.86321" lon="-3.73299">
        <ele>1340.22</ele>
        <time>2015-01-03T07:34:15Z</time>
      </trkpt>
      <trkpt lat="40.86328" lon="-3.73294">
        <ele>1341.66</ele>
        <time>2015-01-03T07:34:22Z</time>
      </trkpt>
      <trkpt lat="40.86338" lon="-3.73288">
        <ele>1343.1</ele>
        <time>2015-01-03T07:34:32Z</time>
      </trkpt>
      <trkpt lat="40.86348" lon="-3.73284">
        <ele>1345.02</ele>
        <time>2015-01-03T07:34:43Z</time>
      </trkpt>
      <trkpt lat="40.8636" lon="-3.73274">
        <ele>1347.43</ele>
        <time>2015-01-03T07:34:56Z</time>
      </trkpt>
      <trkpt lat="40.86368" lon="-3.73269">
        <ele>1348.87</ele>
        <time>2015-01-03T07:35:05Z</time>
      </trkpt>
      <trkpt lat="40.86385" lon="-3.73262">
        <ele>1351.27</ele>
        <time>2015-01-03T07:35:20Z</time>
      </trkpt>
      <trkpt lat="40.86389" lon="-3.73257">
        <ele>1351.75</ele>
        <time>2015-01-03T07:35:24Z</time>
      </trkpt>
      <trkpt lat="40.86401" lon="-3.73248">
        <ele>1354.15</ele>
        <time>2015-01-03T07:35:38Z</time>
      </trkpt>
      <trkpt lat="40.86403" lon="-3.73245">
        <ele>1355.12</ele>
        <time>2015-01-03T07:35:40Z</time>
      </trkpt>
      <trkpt lat="40.86405" lon="-3.73243">
        <ele>1355.6</ele>
        <time>2015-01-03T07:35:43Z</time>
      </trkpt>
      <trkpt lat="40.86414" lon="-3.73232">
        <ele>1358.48</ele>
        <time>2015-01-03T07:35:55Z</time>
      </trkpt>
      <trkpt lat="40.8642" lon="-3.73224">
        <ele>1359.44</ele>
        <time>2015-01-03T07:36:03Z</time>
      </trkpt>
      <trkpt lat="40.86424" lon="-3.73217">
        <ele>1361.36</ele>
        <time>2015-01-03T07:36:11Z</time>
      </trkpt>
      <trkpt lat="40.86435" lon="-3.73208">
        <ele>1363.29</ele>
        <time>2015-01-03T07:36:25Z</time>
      </trkpt>
      <trkpt lat="40.86441" lon="-3.73208">
        <ele>1364.73</ele>
        <time>2015-01-03T07:36:33Z</time>
      </trkpt>
      <trkpt lat="40.86446" lon="-3.73227">
        <ele>1366.17</ele>
        <time>2015-01-03T07:36:48Z</time>
      </trkpt>
      <trkpt lat="40.86448" lon="-3.73232">
        <ele>1367.61</ele>
        <time>2015-01-03T07:36:55Z</time>
      </trkpt>
      <trkpt lat="40.8645" lon="-3.73236">
        <ele>1368.57</ele>
        <time>2015-01-03T07:36:59Z</time>
      </trkpt>
      <trkpt lat="40.86461" lon="-3.7325">
        <ele>1370.98</ele>
        <time>2015-01-03T07:37:14Z</time>
      </trkpt>
      <trkpt lat="40.86465" lon="-3.73256">
        <ele>1372.42</ele>
        <time>2015-01-03T07:37:21Z</time>
      </trkpt>
      <trkpt lat="40.86472" lon="-3.73259">
        <ele>1373.38</ele>
        <time>2015-01-03T07:37:28Z</time>
      </trkpt>
      <trkpt lat="40.86476" lon="-3.73259">
        <ele>1374.82</ele>
        <time>2015-01-03T07:37:32Z</time>
      </trkpt>
      <trkpt lat="40.86484" lon="-3.73252">
        <ele>1376.26</ele>
        <time>2015-01-03T07:37:43Z</time>
      </trkpt>
      <trkpt lat="40.86486" lon="-3.7325">
        <ele>1377.23</ele>
        <time>2015-01-03T07:37:47Z</time>
      </trkpt>
      <trkpt lat="40.86492" lon="-3.73245">
        <ele>1379.15</ele>
        <time>2015-01-03T07:37:54Z</time>
      </trkpt>
      <trkpt lat="40.86494" lon="-3.73245">
        <ele>1379.15</ele>
        <time>2015-01-03T07:37:56Z</time>
      </trkpt>
      <trkpt lat="40.86496" lon="-3.73243">
        <ele>1379.63</ele>
        <time>2015-01-03T07:37:59Z</time>
      </trkpt>
      <trkpt lat="40.86505" lon="-3.73237">
        <ele>1382.03</ele>
        <time>2015-01-03T07:38:10Z</time>
      </trkpt>
      <trkpt lat="40.86507" lon="-3.73235">
        <ele>1382.99</ele>
        <time>2015-01-03T07:38:13Z</time>
      </trkpt>
      <trkpt lat="40.86514" lon="-3.73231">
        <ele>1384.92</ele>
        <time>2015-01-03T07:38:24Z</time>
      </trkpt>
      <trkpt lat="40.86519" lon="-3.73227">
        <ele>1386.84</ele>
        <time>2015-01-03T07:38:34Z</time>
      </trkpt>
      <trkpt lat="40.86526" lon="-3.73225">
        <ele>1388.28</ele>
        <time>2015-01-03T07:38:41Z</time>
      </trkpt>
      <trkpt lat="40.86535" lon="-3.73216">
        <ele>1391.17</ele>
        <time>2015-01-03T07:38:55Z</time>
      </trkpt>
      <trkpt lat="40.86537" lon="-3.73212">
        <ele>1392.13</ele>
        <time>2015-01-03T07:38:59Z</time>
      </trkpt>
      <trkpt lat="40.86537" lon="-3.73209">
        <ele>1392.61</ele>
        <time>2015-01-03T07:39:01Z</time>
      </trkpt>
      <trkpt lat="40.86535" lon="-3.73206">
        <ele>1393.09</ele>
        <time>2015-01-03T07:39:04Z</time>
      </trkpt>
      <trkpt lat="40.86528" lon="-3.73201">
        <ele>1394.05</ele>
        <time>2015-01-03T07:39:11Z</time>
      </trkpt>
      <trkpt lat="40.86526" lon="-3.732">
        <ele>1394.53</ele>
        <time>2015-01-03T07:39:13Z</time>
      </trkpt>
      <trkpt lat="40.86524" lon="-3.73197">
        <ele>1395.49</ele>
        <time>2015-01-03T07:39:16Z</time>
      </trkpt>
      <trkpt lat="40.86522" lon="-3.73195">
        <ele>1395.97</ele>
        <time>2015-01-03T07:39:19Z</time>
      </trkpt>
      <trkpt lat="40.86516" lon="-3.73185">
        <ele>1397.89</ele>
        <time>2015-01-03T07:39:29Z</time>
      </trkpt>
      <trkpt lat="40.86518" lon="-3.73181">
        <ele>1399.34</ele>
        <time>2015-01-03T07:39:32Z</time>
      </trkpt>
      <trkpt lat="40.86521" lon="-3.73182">
        <ele>1399.82</ele>
        <time>2015-01-03T07:39:36Z</time>
      </trkpt>
      <trkpt lat="40.86523" lon="-3.73181">
        <ele>1400.3</ele>
        <time>2015-01-03T07:39:38Z</time>
      </trkpt>
      <trkpt lat="40.86526" lon="-3.73179">
        <ele>1400.78</ele>
        <time>2015-01-03T07:39:41Z</time>
      </trkpt>
      <trkpt lat="40.86534" lon="-3.73179">
        <ele>1402.7</ele>
        <time>2015-01-03T07:39:52Z</time>
      </trkpt>
      <trkpt lat="40.86536" lon="-3.73179">
        <ele>1403.66</ele>
        <time>2015-01-03T07:39:56Z</time>
      </trkpt>
      <trkpt lat="40.86538" lon="-3.73179">
        <ele>1404.14</ele>
        <time>2015-01-03T07:39:58Z</time>
      </trkpt>
      <trkpt lat="40.86545" lon="-3.73176">
        <ele>1406.07</ele>
        <time>2015-01-03T07:40:06Z</time>
      </trkpt>
      <trkpt lat="40.86547" lon="-3.73175">
        <ele>1406.55</ele>
        <time>2015-01-03T07:40:08Z</time>
      </trkpt>
      <trkpt lat="40.86556" lon="-3.73175">
        <ele>1408.47</ele>
        <time>2015-01-03T07:40:20Z</time>
      </trkpt>
      <trkpt lat="40.86565" lon="-3.73172">
        <ele>1410.39</ele>
        <time>2015-01-03T07:40:32Z</time>
      </trkpt>
      <trkpt lat="40.86571" lon="-3.73165">
        <ele>1412.31</ele>
        <time>2015-01-03T07:40:43Z</time>
      </trkpt>
      <trkpt lat="40.86575" lon="-3.73154">
        <ele>1414.72</ele>
        <time>2015-01-03T07:40:55Z</time>
      </trkpt>
      <trkpt lat="40.8658" lon="-3.73145">
        <ele>1417.6</ele>
        <time>2015-01-03T07:41:07Z</time>
      </trkpt>
      <trkpt lat="40.86584" lon="-3.73138">
        <ele>1419.52</ele>
        <time>2015-01-03T07:41:17Z</time>
      </trkpt>
      <trkpt lat="40.86588" lon="-3.73135">
        <ele>1421.45</ele>
        <time>2015-01-03T07:41:24Z</time>
      </trkpt>
      <trkpt lat="40.86594" lon="-3.73128">
        <ele>1423.85</ele>
        <time>2015-01-03T07:41:37Z</time>
      </trkpt>
      <trkpt lat="40.866" lon="-3.73121">
        <ele>1426.25</ele>
        <time>2015-01-03T07:41:49Z</time>
      </trkpt>
      <trkpt lat="40.86604" lon="-3.73119">
        <ele>1427.7</ele>
        <time>2015-01-03T07:42:06Z</time>
      </trkpt>
      <trkpt lat="40.86607" lon="-3.73114">
        <ele>1429.62</ele>
        <time>2015-01-03T07:42:30Z</time>
      </trkpt>
      <trkpt lat="40.86613" lon="-3.73108">
        <ele>1432.02</ele>
        <time>2015-01-03T07:42:39Z</time>
      </trkpt>
      <trkpt lat="40.86622" lon="-3.73109">
        <ele>1433.94</ele>
        <time>2015-01-03T07:42:52Z</time>
      </trkpt>
      <trkpt lat="40.86622" lon="-3.73109">
        <ele>1433.94</ele>
        <time>2015-01-03T07:42:53Z</time>
      </trkpt>
      <trkpt lat="40.86623" lon="-3.73104">
        <ele>1433.94</ele>
        <time>2015-01-03T07:43:06Z</time>
      </trkpt>
      <trkpt lat="40.86625" lon="-3.73104">
        <ele>1433.46</ele>
        <time>2015-01-03T07:43:09Z</time>
      </trkpt>
      <trkpt lat="40.86629" lon="-3.731">
        <ele>1435.87</ele>
        <time>2015-01-03T07:43:16Z</time>
      </trkpt>
      <trkpt lat="40.86634" lon="-3.73099">
        <ele>1437.79</ele>
        <time>2015-01-03T07:43:22Z</time>
      </trkpt>
      <trkpt lat="40.86638" lon="-3.73095">
        <ele>1438.75</ele>
        <time>2015-01-03T07:43:28Z</time>
      </trkpt>
      <trkpt lat="40.86638" lon="-3.73088">
        <ele>1439.71</ele>
        <time>2015-01-03T07:43:41Z</time>
      </trkpt>
      <trkpt lat="40.86645" lon="-3.73086">
        <ele>1440.19</ele>
        <time>2015-01-03T07:43:58Z</time>
      </trkpt>
      <trkpt lat="40.86647" lon="-3.73084">
        <ele>1441.15</ele>
        <time>2015-01-03T07:44:02Z</time>
      </trkpt>
      <trkpt lat="40.86651" lon="-3.73077">
        <ele>1444.04</ele>
        <time>2015-01-03T07:44:14Z</time>
      </trkpt>
      <trkpt lat="40.86653" lon="-3.73069">
        <ele>1446.44</ele>
        <time>2015-01-03T07:44:25Z</time>
      </trkpt>
      <trkpt lat="40.86653" lon="-3.73068">
        <ele>1447.4</ele>
        <time>2015-01-03T07:44:38Z</time>
      </trkpt>
      <trkpt lat="40.86652" lon="-3.73066">
        <ele>1447.4</ele>
        <time>2015-01-03T07:44:50Z</time>
      </trkpt>
      <trkpt lat="40.86656" lon="-3.73065">
        <ele>1446.44</ele>
        <time>2015-01-03T07:44:53Z</time>
      </trkpt>
      <trkpt lat="40.86662" lon="-3.73055">
        <ele>1448.84</ele>
        <time>2015-01-03T07:45:03Z</time>
      </trkpt>
      <trkpt lat="40.86672" lon="-3.7305">
        <ele>1449.32</ele>
        <time>2015-01-03T07:45:13Z</time>
      </trkpt>
      <trkpt lat="40.86674" lon="-3.73047">
        <ele>1448.84</ele>
        <time>2015-01-03T07:45:31Z</time>
      </trkpt>
      <trkpt lat="40.86674" lon="-3.73047">
        <ele>1449.32</ele>
        <time>2015-01-03T07:45:35Z</time>
      </trkpt>
      <trkpt lat="40.86685" lon="-3.73035">
        <ele>1452.21</ele>
        <time>2015-01-03T07:45:52Z</time>
      </trkpt>
      <trkpt lat="40.86691" lon="-3.73029">
        <ele>1455.09</ele>
        <time>2015-01-03T07:46:04Z</time>
      </trkpt>
      <trkpt lat="40.86692" lon="-3.73029">
        <ele>1455.09</ele>
        <time>2015-01-03T07:46:05Z</time>
      </trkpt>
      <trkpt lat="40.867" lon="-3.73018">
        <ele>1457.5</ele>
        <time>2015-01-03T07:46:17Z</time>
      </trkpt>
      <trkpt lat="40.86706" lon="-3.73013">
        <ele>1458.94</ele>
        <time>2015-01-03T07:46:25Z</time>
      </trkpt>
      <trkpt lat="40.86711" lon="-3.73009">
        <ele>1460.38</ele>
        <time>2015-01-03T07:46:37Z</time>
      </trkpt>
      <trkpt lat="40.86715" lon="-3.73005">
        <ele>1461.34</ele>
        <time>2015-01-03T07:46:42Z</time>
      </trkpt>
      <trkpt lat="40.86724" lon="-3.72996">
        <ele>1464.71</ele>
        <time>2015-01-03T07:46:55Z</time>
      </trkpt>
      <trkpt lat="40.86733" lon="-3.72986">
        <ele>1467.59</ele>
        <time>2015-01-03T07:47:08Z</time>
      </trkpt>
      <trkpt lat="40.86734" lon="-3.72985">
        <ele>1468.07</ele>
        <time>2015-01-03T07:47:10Z</time>
      </trkpt>
      <trkpt lat="40.86737" lon="-3.72983">
        <ele>1469.03</ele>
        <time>2015-01-03T07:47:14Z</time>
      </trkpt>
      <trkpt lat="40.86738" lon="-3.72982">
        <ele>1469.51</ele>
        <time>2015-01-03T07:47:16Z</time>
      </trkpt>
      <trkpt lat="40.86743" lon="-3.72979">
        <ele>1470.47</ele>
        <time>2015-01-03T07:47:21Z</time>
      </trkpt>
      <trkpt lat="40.86744" lon="-3.72977">
        <ele>1471.44</ele>
        <time>2015-01-03T07:47:24Z</time>
      </trkpt>
      <trkpt lat="40.86752" lon="-3.72971">
        <ele>1474.8</ele>
        <time>2015-01-03T07:47:34Z</time>
      </trkpt>
      <trkpt lat="40.8676" lon="-3.72966">
        <ele>1475.28</ele>
        <time>2015-01-03T07:47:45Z</time>
      </trkpt>
      <trkpt lat="40.86761" lon="-3.72965">
        <ele>1475.28</ele>
        <time>2015-01-03T07:47:46Z</time>
      </trkpt>
      <trkpt lat="40.86764" lon="-3.72964">
        <ele>1476.24</ele>
        <time>2015-01-03T07:47:49Z</time>
      </trkpt>
      <trkpt lat="40.86767" lon="-3.72963">
        <ele>1476.72</ele>
        <time>2015-01-03T07:47:53Z</time>
      </trkpt>
      <trkpt lat="40.86769" lon="-3.72961">
        <ele>1477.68</ele>
        <time>2015-01-03T07:47:57Z</time>
      </trkpt>
      <trkpt lat="40.86779" lon="-3.72955">
        <ele>1480.09</ele>
        <time>2015-01-03T07:48:09Z</time>
      </trkpt>
      <trkpt lat="40.86788" lon="-3.72948">
        <ele>1482.01</ele>
        <time>2015-01-03T07:48:20Z</time>
      </trkpt>
      <trkpt lat="40.8679" lon="-3.72946">
        <ele>1482.01</ele>
        <time>2015-01-03T07:48:22Z</time>
      </trkpt>
      <trkpt lat="40.86799" lon="-3.7294">
        <ele>1484.41</ele>
        <time>2015-01-03T07:48:34Z</time>
      </trkpt>
      <trkpt lat="40.868" lon="-3.72939">
        <ele>1484.41</ele>
        <time>2015-01-03T07:48:35Z</time>
      </trkpt>
      <trkpt lat="40.86806" lon="-3.72937">
        <ele>1485.85</ele>
        <time>2015-01-03T07:48:42Z</time>
      </trkpt>
      <trkpt lat="40.86812" lon="-3.72933">
        <ele>1486.34</ele>
        <time>2015-01-03T07:48:48Z</time>
      </trkpt>
      <trkpt lat="40.86815" lon="-3.72932">
        <ele>1487.3</ele>
        <time>2015-01-03T07:48:51Z</time>
      </trkpt>
      <trkpt lat="40.86828" lon="-3.72921">
        <ele>1489.22</ele>
        <time>2015-01-03T07:49:06Z</time>
      </trkpt>
      <trkpt lat="40.8683" lon="-3.72922">
        <ele>1489.7</ele>
        <time>2015-01-03T07:49:08Z</time>
      </trkpt>
      <trkpt lat="40.86841" lon="-3.72916">
        <ele>1491.62</ele>
        <time>2015-01-03T07:49:20Z</time>
      </trkpt>
      <trkpt lat="40.86843" lon="-3.72916">
        <ele>1492.1</ele>
        <time>2015-01-03T07:49:22Z</time>
      </trkpt>
      <trkpt lat="40.86852" lon="-3.72914">
        <ele>1493.55</ele>
        <time>2015-01-03T07:49:31Z</time>
      </trkpt>
      <trkpt lat="40.86853" lon="-3.72912">
        <ele>1494.03</ele>
        <time>2015-01-03T07:49:33Z</time>
      </trkpt>
      <trkpt lat="40.86862" lon="-3.72907">
        <ele>1495.47</ele>
        <time>2015-01-03T07:49:44Z</time>
      </trkpt>
      <trkpt lat="40.86865" lon="-3.72907">
        <ele>1495.95</ele>
        <time>2015-01-03T07:49:48Z</time>
      </trkpt>
      <trkpt lat="40.86876" lon="-3.72909">
        <ele>1498.35</ele>
        <time>2015-01-03T07:50:00Z</time>
      </trkpt>
      <trkpt lat="40.86879" lon="-3.72911">
        <ele>1498.83</ele>
        <time>2015-01-03T07:50:05Z</time>
      </trkpt>
      <trkpt lat="40.86882" lon="-3.72906">
        <ele>1500.27</ele>
        <time>2015-01-03T07:50:22Z</time>
      </trkpt>
      <trkpt lat="40.86886" lon="-3.72903">
        <ele>1499.79</ele>
        <time>2015-01-03T07:50:29Z</time>
      </trkpt>
      <trkpt lat="40.86888" lon="-3.72902">
        <ele>1500.27</ele>
        <time>2015-01-03T07:50:33Z</time>
      </trkpt>
      <trkpt lat="40.86891" lon="-3.72902">
        <ele>1501.24</ele>
        <time>2015-01-03T07:50:37Z</time>
      </trkpt>
      <trkpt lat="40.86897" lon="-3.72899">
        <ele>1501.72</ele>
        <time>2015-01-03T07:50:48Z</time>
      </trkpt>
      <trkpt lat="40.86901" lon="-3.72895">
        <ele>1502.68</ele>
        <time>2015-01-03T07:50:54Z</time>
      </trkpt>
      <trkpt lat="40.86909" lon="-3.72889">
        <ele>1505.56</ele>
        <time>2015-01-03T07:51:07Z</time>
      </trkpt>
      <trkpt lat="40.86914" lon="-3.72884">
        <ele>1507.48</ele>
        <time>2015-01-03T07:51:16Z</time>
      </trkpt>
      <trkpt lat="40.86917" lon="-3.72883">
        <ele>1508.93</ele>
        <time>2015-01-03T07:51:21Z</time>
      </trkpt>
      <trkpt lat="40.86917" lon="-3.72879">
        <ele>1508.93</ele>
        <time>2015-01-03T07:51:24Z</time>
      </trkpt>
      <trkpt lat="40.86922" lon="-3.72876">
        <ele>1513.25</ele>
        <time>2015-01-03T07:51:35Z</time>
      </trkpt>
      <trkpt lat="40.86923" lon="-3.72877">
        <ele>1512.29</ele>
        <time>2015-01-03T07:51:37Z</time>
      </trkpt>
      <trkpt lat="40.86931" lon="-3.72877">
        <ele>1514.69</ele>
        <time>2015-01-03T07:51:49Z</time>
      </trkpt>
      <trkpt lat="40.86932" lon="-3.72877">
        <ele>1515.18</ele>
        <time>2015-01-03T07:51:51Z</time>
      </trkpt>
      <trkpt lat="40.86939" lon="-3.72874">
        <ele>1517.58</ele>
        <time>2015-01-03T07:52:01Z</time>
      </trkpt>
      <trkpt lat="40.86939" lon="-3.72874">
        <ele>1517.58</ele>
        <time>2015-01-03T07:52:02Z</time>
      </trkpt>
      <trkpt lat="40.86946" lon="-3.72871">
        <ele>1519.02</ele>
        <time>2015-01-03T07:52:10Z</time>
      </trkpt>
      <trkpt lat="40.86949" lon="-3.72869">
        <ele>1519.98</ele>
        <time>2015-01-03T07:52:16Z</time>
      </trkpt>
      <trkpt lat="40.86958" lon="-3.72865">
        <ele>1522.39</ele>
        <time>2015-01-03T07:52:29Z</time>
      </trkpt>
      <trkpt lat="40.86961" lon="-3.72863">
        <ele>1522.87</ele>
        <time>2015-01-03T07:52:33Z</time>
      </trkpt>
      <trkpt lat="40.86962" lon="-3.72861">
        <ele>1523.35</ele>
        <time>2015-01-03T07:52:35Z</time>
      </trkpt>
      <trkpt lat="40.86967" lon="-3.72859">
        <ele>1525.27</ele>
        <time>2015-01-03T07:52:44Z</time>
      </trkpt>
      <trkpt lat="40.86968" lon="-3.72855">
        <ele>1527.67</ele>
        <time>2015-01-03T07:52:54Z</time>
      </trkpt>
      <trkpt lat="40.86971" lon="-3.72857">
        <ele>1528.63</ele>
        <time>2015-01-03T07:53:06Z</time>
      </trkpt>
      <trkpt lat="40.86978" lon="-3.72852">
        <ele>1531.04</ele>
        <time>2015-01-03T07:53:18Z</time>
      </trkpt>
      <trkpt lat="40.86984" lon="-3.72853">
        <ele>1533.44</ele>
        <time>2015-01-03T07:53:27Z</time>
      </trkpt>
      <trkpt lat="40.86992" lon="-3.72855">
        <ele>1534.88</ele>
        <time>2015-01-03T07:53:37Z</time>
      </trkpt>
      <trkpt lat="40.86999" lon="-3.72857">
        <ele>1536.32</ele>
        <time>2015-01-03T07:53:48Z</time>
      </trkpt>
      <trkpt lat="40.87005" lon="-3.72857">
        <ele>1538.73</ele>
        <time>2015-01-03T07:54:01Z</time>
      </trkpt>
      <trkpt lat="40.87008" lon="-3.7286">
        <ele>1539.69</ele>
        <time>2015-01-03T07:54:07Z</time>
      </trkpt>
      <trkpt lat="40.87015" lon="-3.72857">
        <ele>1542.57</ele>
        <time>2015-01-03T07:54:20Z</time>
      </trkpt>
      <trkpt lat="40.8702" lon="-3.72856">
        <ele>1544.98</ele>
        <time>2015-01-03T07:54:30Z</time>
      </trkpt>
      <trkpt lat="40.87026" lon="-3.72855">
        <ele>1546.9</ele>
        <time>2015-01-03T07:54:42Z</time>
      </trkpt>
      <trkpt lat="40.87032" lon="-3.72853">
        <ele>1548.34</ele>
        <time>2015-01-03T07:54:48Z</time>
      </trkpt>
      <trkpt lat="40.87036" lon="-3.72851">
        <ele>1550.26</ele>
        <time>2015-01-03T07:54:59Z</time>
      </trkpt>
      <trkpt lat="40.8704" lon="-3.72849">
        <ele>1552.19</ele>
        <time>2015-01-03T07:55:07Z</time>
      </trkpt>
      <trkpt lat="40.87045" lon="-3.72851">
        <ele>1554.11</ele>
        <time>2015-01-03T07:55:15Z</time>
      </trkpt>
      <trkpt lat="40.87047" lon="-3.72849">
        <ele>1555.07</ele>
        <time>2015-01-03T07:55:18Z</time>
      </trkpt>
      <trkpt lat="40.8705" lon="-3.72849">
        <ele>1555.07</ele>
        <time>2015-01-03T07:55:21Z</time>
      </trkpt>
      <trkpt lat="40.87052" lon="-3.72849">
        <ele>1556.03</ele>
        <time>2015-01-03T07:55:25Z</time>
      </trkpt>
      <trkpt lat="40.87055" lon="-3.72849">
        <ele>1556.99</ele>
        <time>2015-01-03T07:55:29Z</time>
      </trkpt>
      <trkpt lat="40.87061" lon="-3.72851">
        <ele>1557.95</ele>
        <time>2015-01-03T07:55:35Z</time>
      </trkpt>
      <trkpt lat="40.87064" lon="-3.7285">
        <ele>1558.43</ele>
        <time>2015-01-03T07:55:40Z</time>
      </trkpt>
      <trkpt lat="40.87068" lon="-3.72851">
        <ele>1559.4</ele>
        <time>2015-01-03T07:55:45Z</time>
      </trkpt>
      <trkpt lat="40.87071" lon="-3.72851">
        <ele>1560.36</ele>
        <time>2015-01-03T07:55:49Z</time>
      </trkpt>
      <trkpt lat="40.87074" lon="-3.72852">
        <ele>1560.84</ele>
        <time>2015-01-03T07:55:52Z</time>
      </trkpt>
      <trkpt lat="40.87081" lon="-3.72851">
        <ele>1562.76</ele>
        <time>2015-01-03T07:56:02Z</time>
      </trkpt>
      <trkpt lat="40.87087" lon="-3.72846">
        <ele>1565.16</ele>
        <time>2015-01-03T07:56:12Z</time>
      </trkpt>
      <trkpt lat="40.87088" lon="-3.72845">
        <ele>1565.64</ele>
        <time>2015-01-03T07:56:14Z</time>
      </trkpt>
      <trkpt lat="40.8709" lon="-3.72845">
        <ele>1566.61</ele>
        <time>2015-01-03T07:56:17Z</time>
      </trkpt>
      <trkpt lat="40.87092" lon="-3.72846">
        <ele>1567.09</ele>
        <time>2015-01-03T07:56:19Z</time>
      </trkpt>
      <trkpt lat="40.87095" lon="-3.72849">
        <ele>1567.57</ele>
        <time>2015-01-03T07:56:24Z</time>
      </trkpt>
      <trkpt lat="40.87098" lon="-3.72849">
        <ele>1568.53</ele>
        <time>2015-01-03T07:56:29Z</time>
      </trkpt>
      <trkpt lat="40.87101" lon="-3.7285">
        <ele>1569.01</ele>
        <time>2015-01-03T07:56:32Z</time>
      </trkpt>
      <trkpt lat="40.87106" lon="-3.7285">
        <ele>1570.93</ele>
        <time>2015-01-03T07:56:43Z</time>
      </trkpt>
      <trkpt lat="40.87108" lon="-3.7285">
        <ele>1570.93</ele>
        <time>2015-01-03T07:57:04Z</time>
      </trkpt>
      <trkpt lat="40.87117" lon="-3.72847">
        <ele>1573.82</ele>
        <time>2015-01-03T07:57:16Z</time>
      </trkpt>
      <trkpt lat="40.87119" lon="-3.72847">
        <ele>1573.82</ele>
        <time>2015-01-03T07:57:18Z</time>
      </trkpt>
      <trkpt lat="40.87124" lon="-3.72845">
        <ele>1575.74</ele>
        <time>2015-01-03T07:57:27Z</time>
      </trkpt>
      <trkpt lat="40.87129" lon="-3.72844">
        <ele>1576.7</ele>
        <time>2015-01-03T07:57:33Z</time>
      </trkpt>
      <trkpt lat="40.87134" lon="-3.72842">
        <ele>1578.14</ele>
        <time>2015-01-03T07:57:41Z</time>
      </trkpt>
      <trkpt lat="40.87139" lon="-3.72841">
        <ele>1578.62</ele>
        <time>2015-01-03T07:57:48Z</time>
      </trkpt>
      <trkpt lat="40.87143" lon="-3.7284">
        <ele>1580.54</ele>
        <time>2015-01-03T07:57:58Z</time>
      </trkpt>
      <trkpt lat="40.87144" lon="-3.7284">
        <ele>1581.03</ele>
        <time>2015-01-03T07:58:00Z</time>
      </trkpt>
      <trkpt lat="40.87147" lon="-3.7284">
        <ele>1581.51</ele>
        <time>2015-01-03T07:58:04Z</time>
      </trkpt>
      <trkpt lat="40.8715" lon="-3.72838">
        <ele>1582.47</ele>
        <time>2015-01-03T07:58:08Z</time>
      </trkpt>
      <trkpt lat="40.87159" lon="-3.72833">
        <ele>1584.87</ele>
        <time>2015-01-03T07:58:19Z</time>
      </trkpt>
      <trkpt lat="40.87166" lon="-3.7283">
        <ele>1585.83</ele>
        <time>2015-01-03T07:58:26Z</time>
      </trkpt>
      <trkpt lat="40.87169" lon="-3.72829">
        <ele>1586.79</ele>
        <time>2015-01-03T07:58:30Z</time>
      </trkpt>
      <trkpt lat="40.87172" lon="-3.72829">
        <ele>1586.79</ele>
        <time>2015-01-03T07:58:33Z</time>
      </trkpt>
      <trkpt lat="40.87177" lon="-3.72832">
        <ele>1587.75</ele>
        <time>2015-01-03T07:58:39Z</time>
      </trkpt>
      <trkpt lat="40.87184" lon="-3.7283">
        <ele>1588.72</ele>
        <time>2015-01-03T07:58:49Z</time>
      </trkpt>
      <trkpt lat="40.87191" lon="-3.72831">
        <ele>1590.64</ele>
        <time>2015-01-03T07:58:59Z</time>
      </trkpt>
      <trkpt lat="40.87193" lon="-3.72833">
        <ele>1591.12</ele>
        <time>2015-01-03T07:59:01Z</time>
      </trkpt>
      <trkpt lat="40.87194" lon="-3.72835">
        <ele>1591.12</ele>
        <time>2015-01-03T07:59:03Z</time>
      </trkpt>
      <trkpt lat="40.87204" lon="-3.72843">
        <ele>1594</ele>
        <time>2015-01-03T07:59:16Z</time>
      </trkpt>
      <trkpt lat="40.87206" lon="-3.72845">
        <ele>1594.96</ele>
        <time>2015-01-03T07:59:21Z</time>
      </trkpt>
      <trkpt lat="40.87213" lon="-3.72848">
        <ele>1598.33</ele>
        <time>2015-01-03T07:59:35Z</time>
      </trkpt>
      <trkpt lat="40.87215" lon="-3.7285">
        <ele>1598.81</ele>
        <time>2015-01-03T07:59:38Z</time>
      </trkpt>
      <trkpt lat="40.87225" lon="-3.72853">
        <ele>1601.21</ele>
        <time>2015-01-03T07:59:51Z</time>
      </trkpt>
      <trkpt lat="40.87234" lon="-3.72848">
        <ele>1602.66</ele>
        <time>2015-01-03T08:00:03Z</time>
      </trkpt>
      <trkpt lat="40.87245" lon="-3.72852">
        <ele>1605.06</ele>
        <time>2015-01-03T08:00:17Z</time>
      </trkpt>
      <trkpt lat="40.87252" lon="-3.72849">
        <ele>1606.02</ele>
        <time>2015-01-03T08:00:33Z</time>
      </trkpt>
      <trkpt lat="40.87254" lon="-3.72848">
        <ele>1606.98</ele>
        <time>2015-01-03T08:00:54Z</time>
      </trkpt>
      <trkpt lat="40.87254" lon="-3.72848">
        <ele>1606.98</ele>
        <time>2015-01-03T08:01:16Z</time>
      </trkpt>
      <trkpt lat="40.87255" lon="-3.72845">
        <ele>1606.98</ele>
        <time>2015-01-03T08:01:31Z</time>
      </trkpt>
      <trkpt lat="40.87255" lon="-3.72838">
        <ele>1606.98</ele>
        <time>2015-01-03T08:01:41Z</time>
      </trkpt>
      <trkpt lat="40.87253" lon="-3.72832">
        <ele>1606.98</ele>
        <time>2015-01-03T08:01:46Z</time>
      </trkpt>
      <trkpt lat="40.87253" lon="-3.72829">
        <ele>1606.98</ele>
        <time>2015-01-03T08:01:48Z</time>
      </trkpt>
      <trkpt lat="40.87246" lon="-3.72818">
        <ele>1606.98</ele>
        <time>2015-01-03T08:01:58Z</time>
      </trkpt>
      <trkpt lat="40.87234" lon="-3.72816">
        <ele>1605.54</ele>
        <time>2015-01-03T08:02:12Z</time>
      </trkpt>
      <trkpt lat="40.87229" lon="-3.72801">
        <ele>1605.54</ele>
        <time>2015-01-03T08:05:20Z</time>
      </trkpt>
      <trkpt lat="40.87232" lon="-3.72797">
        <ele>1606.98</ele>
        <time>2015-01-03T08:05:25Z</time>
      </trkpt>
      <trkpt lat="40.87232" lon="-3.7278">
        <ele>1609.86</ele>
        <time>2015-01-03T08:05:40Z</time>
      </trkpt>
      <trkpt lat="40.87236" lon="-3.72773">
        <ele>1611.31</ele>
        <time>2015-01-03T08:05:48Z</time>
      </trkpt>
      <trkpt lat="40.87237" lon="-3.72772">
        <ele>1610.83</ele>
        <time>2015-01-03T08:05:51Z</time>
      </trkpt>
      <trkpt lat="40.87239" lon="-3.72768">
        <ele>1611.79</ele>
        <time>2015-01-03T08:05:54Z</time>
      </trkpt>
      <trkpt lat="40.8724" lon="-3.72764">
        <ele>1612.27</ele>
        <time>2015-01-03T08:05:57Z</time>
      </trkpt>
      <trkpt lat="40.87245" lon="-3.72753">
        <ele>1613.71</ele>
        <time>2015-01-03T08:06:06Z</time>
      </trkpt>
      <trkpt lat="40.87246" lon="-3.72748">
        <ele>1614.19</ele>
        <time>2015-01-03T08:06:11Z</time>
      </trkpt>
      <trkpt lat="40.87245" lon="-3.72743">
        <ele>1614.67</ele>
        <time>2015-01-03T08:06:14Z</time>
      </trkpt>
      <trkpt lat="40.87244" lon="-3.72725">
        <ele>1616.11</ele>
        <time>2015-01-03T08:06:27Z</time>
      </trkpt>
      <trkpt lat="40.87238" lon="-3.72716">
        <ele>1617.07</ele>
        <time>2015-01-03T08:06:34Z</time>
      </trkpt>
      <trkpt lat="40.87231" lon="-3.72703">
        <ele>1619</ele>
        <time>2015-01-03T08:06:45Z</time>
      </trkpt>
      <trkpt lat="40.87227" lon="-3.72696">
        <ele>1619.48</ele>
        <time>2015-01-03T08:06:51Z</time>
      </trkpt>
      <trkpt lat="40.87222" lon="-3.72685">
        <ele>1620.92</ele>
        <time>2015-01-03T08:07:00Z</time>
      </trkpt>
      <trkpt lat="40.87211" lon="-3.72664">
        <ele>1624.28</ele>
        <time>2015-01-03T08:07:18Z</time>
      </trkpt>
      <trkpt lat="40.8721" lon="-3.7266">
        <ele>1624.28</ele>
        <time>2015-01-03T08:07:21Z</time>
      </trkpt>
      <trkpt lat="40.87207" lon="-3.72654">
        <ele>1625.25</ele>
        <time>2015-01-03T08:07:26Z</time>
      </trkpt>
      <trkpt lat="40.87203" lon="-3.72649">
        <ele>1626.21</ele>
        <time>2015-01-03T08:07:31Z</time>
      </trkpt>
      <trkpt lat="40.87198" lon="-3.72645">
        <ele>1627.17</ele>
        <time>2015-01-03T08:07:36Z</time>
      </trkpt>
      <trkpt lat="40.87187" lon="-3.72633">
        <ele>1629.57</ele>
        <time>2015-01-03T08:07:49Z</time>
      </trkpt>
      <trkpt lat="40.8718" lon="-3.72626">
        <ele>1631.01</ele>
        <time>2015-01-03T08:07:57Z</time>
      </trkpt>
      <trkpt lat="40.87179" lon="-3.72624">
        <ele>1631.49</ele>
        <time>2015-01-03T08:07:59Z</time>
      </trkpt>
      <trkpt lat="40.87171" lon="-3.72613">
        <ele>1632.46</ele>
        <time>2015-01-03T08:08:09Z</time>
      </trkpt>
      <trkpt lat="40.87161" lon="-3.72599">
        <ele>1633.9</ele>
        <time>2015-01-03T08:08:21Z</time>
      </trkpt>
      <trkpt lat="40.87153" lon="-3.72575">
        <ele>1634.86</ele>
        <time>2015-01-03T08:08:37Z</time>
      </trkpt>
      <trkpt lat="40.87154" lon="-3.7255">
        <ele>1637.26</ele>
        <time>2015-01-03T08:08:53Z</time>
      </trkpt>
      <trkpt lat="40.87154" lon="-3.72548">
        <ele>1637.26</ele>
        <time>2015-01-03T08:08:54Z</time>
      </trkpt>
      <trkpt lat="40.87153" lon="-3.72541">
        <ele>1638.22</ele>
        <time>2015-01-03T08:08:58Z</time>
      </trkpt>
      <trkpt lat="40.87153" lon="-3.72535">
        <ele>1638.7</ele>
        <time>2015-01-03T08:09:02Z</time>
      </trkpt>
      <trkpt lat="40.87152" lon="-3.7253">
        <ele>1639.19</ele>
        <time>2015-01-03T08:09:05Z</time>
      </trkpt>
      <trkpt lat="40.87153" lon="-3.72511">
        <ele>1641.11</ele>
        <time>2015-01-03T08:09:18Z</time>
      </trkpt>
      <trkpt lat="40.87152" lon="-3.72506">
        <ele>1641.59</ele>
        <time>2015-01-03T08:09:22Z</time>
      </trkpt>
      <trkpt lat="40.87152" lon="-3.72503">
        <ele>1642.07</ele>
        <time>2015-01-03T08:09:24Z</time>
      </trkpt>
      <trkpt lat="40.87151" lon="-3.72483">
        <ele>1644.47</ele>
        <time>2015-01-03T08:09:39Z</time>
      </trkpt>
      <trkpt lat="40.87152" lon="-3.72461">
        <ele>1646.88</ele>
        <time>2015-01-03T08:09:53Z</time>
      </trkpt>
      <trkpt lat="40.87152" lon="-3.72459">
        <ele>1646.88</ele>
        <time>2015-01-03T08:09:54Z</time>
      </trkpt>
      <trkpt lat="40.87151" lon="-3.72456">
        <ele>1646.88</ele>
        <time>2015-01-03T08:09:56Z</time>
      </trkpt>
      <trkpt lat="40.87152" lon="-3.72445">
        <ele>1648.32</ele>
        <time>2015-01-03T08:10:03Z</time>
      </trkpt>
      <trkpt lat="40.87152" lon="-3.72424">
        <ele>1650.72</ele>
        <time>2015-01-03T08:10:17Z</time>
      </trkpt>
      <trkpt lat="40.87154" lon="-3.72405">
        <ele>1652.64</ele>
        <time>2015-01-03T08:10:30Z</time>
      </trkpt>
      <trkpt lat="40.87154" lon="-3.72401">
        <ele>1652.64</ele>
        <time>2015-01-03T08:10:32Z</time>
      </trkpt>
      <trkpt lat="40.87155" lon="-3.72395">
        <ele>1653.12</ele>
        <time>2015-01-03T08:10:36Z</time>
      </trkpt>
      <trkpt lat="40.87156" lon="-3.72389">
        <ele>1653.6</ele>
        <time>2015-01-03T08:10:40Z</time>
      </trkpt>
      <trkpt lat="40.87158" lon="-3.7238">
        <ele>1654.09</ele>
        <time>2015-01-03T08:10:46Z</time>
      </trkpt>
      <trkpt lat="40.87161" lon="-3.72364">
        <ele>1656.01</ele>
        <time>2015-01-03T08:10:56Z</time>
      </trkpt>
      <trkpt lat="40.87164" lon="-3.72339">
        <ele>1657.93</ele>
        <time>2015-01-03T08:11:12Z</time>
      </trkpt>
      <trkpt lat="40.87166" lon="-3.72334">
        <ele>1657.93</ele>
        <time>2015-01-03T08:11:16Z</time>
      </trkpt>
      <trkpt lat="40.87166" lon="-3.72317">
        <ele>1658.41</ele>
        <time>2015-01-03T08:11:30Z</time>
      </trkpt>
      <trkpt lat="40.87162" lon="-3.72306">
        <ele>1657.93</ele>
        <time>2015-01-03T08:11:37Z</time>
      </trkpt>
      <trkpt lat="40.87144" lon="-3.72285">
        <ele>1655.05</ele>
        <time>2015-01-03T08:11:54Z</time>
      </trkpt>
      <trkpt lat="40.87129" lon="-3.72272">
        <ele>1654.57</ele>
        <time>2015-01-03T08:12:07Z</time>
      </trkpt>
      <trkpt lat="40.87111" lon="-3.72262">
        <ele>1655.53</ele>
        <time>2015-01-03T08:12:21Z</time>
      </trkpt>
      <trkpt lat="40.87105" lon="-3.72259">
        <ele>1656.49</ele>
        <time>2015-01-03T08:12:26Z</time>
      </trkpt>
      <trkpt lat="40.87096" lon="-3.72254">
        <ele>1659.37</ele>
        <time>2015-01-03T08:12:39Z</time>
      </trkpt>
      <trkpt lat="40.87096" lon="-3.72255">
        <ele>1658.89</ele>
        <time>2015-01-03T08:12:48Z</time>
      </trkpt>
      <trkpt lat="40.87096" lon="-3.72258">
        <ele>1659.85</ele>
        <time>2015-01-03T08:13:07Z</time>
      </trkpt>
      <trkpt lat="40.87097" lon="-3.72258">
        <ele>1659.37</ele>
        <time>2015-01-03T08:13:32Z</time>
      </trkpt>
      <trkpt lat="40.87099" lon="-3.72256">
        <ele>1658.89</ele>
        <time>2015-01-03T08:13:49Z</time>
      </trkpt>
      <trkpt lat="40.87101" lon="-3.72253">
        <ele>1658.89</ele>
        <time>2015-01-03T08:14:00Z</time>
      </trkpt>
      <trkpt lat="40.871" lon="-3.72251">
        <ele>1658.89</ele>
        <time>2015-01-03T08:14:06Z</time>
      </trkpt>
      <trkpt lat="40.87101" lon="-3.72252">
        <ele>1657.93</ele>
        <time>2015-01-03T08:14:23Z</time>
      </trkpt>
      <trkpt lat="40.87102" lon="-3.72252">
        <ele>1657.93</ele>
        <time>2015-01-03T08:15:02Z</time>
      </trkpt>
      <trkpt lat="40.87102" lon="-3.72252">
        <ele>1657.93</ele>
        <time>2015-01-03T08:15:17Z</time>
      </trkpt>
      <trkpt lat="40.871" lon="-3.72254">
        <ele>1658.89</ele>
        <time>2015-01-03T08:15:29Z</time>
      </trkpt>
      <trkpt lat="40.87101" lon="-3.72254">
        <ele>1658.41</ele>
        <time>2015-01-03T08:15:38Z</time>
      </trkpt>
      <trkpt lat="40.87104" lon="-3.7225">
        <ele>1658.89</ele>
        <time>2015-01-03T08:15:41Z</time>
      </trkpt>
      <trkpt lat="40.87106" lon="-3.72249">
        <ele>1657.93</ele>
        <time>2015-01-03T08:15:43Z</time>
      </trkpt>
      <trkpt lat="40.87106" lon="-3.72248">
        <ele>1656.97</ele>
        <time>2015-01-03T08:15:44Z</time>
      </trkpt>
      <trkpt lat="40.87123" lon="-3.72249">
        <ele>1655.53</ele>
        <time>2015-01-03T08:15:59Z</time>
      </trkpt>
      <trkpt lat="40.87147" lon="-3.72253">
        <ele>1654.57</ele>
        <time>2015-01-03T08:16:17Z</time>
      </trkpt>
      <trkpt lat="40.8717" lon="-3.72255">
        <ele>1655.53</ele>
        <time>2015-01-03T08:16:33Z</time>
      </trkpt>
      <trkpt lat="40.87175" lon="-3.72254">
        <ele>1655.53</ele>
        <time>2015-01-03T08:16:37Z</time>
      </trkpt>
      <trkpt lat="40.8718" lon="-3.72254">
        <ele>1656.01</ele>
        <time>2015-01-03T08:16:41Z</time>
      </trkpt>
      <trkpt lat="40.87195" lon="-3.72249">
        <ele>1656.01</ele>
        <time>2015-01-03T08:16:53Z</time>
      </trkpt>
      <trkpt lat="40.87217" lon="-3.72241">
        <ele>1654.57</ele>
        <time>2015-01-03T08:17:10Z</time>
      </trkpt>
      <trkpt lat="40.87232" lon="-3.72236">
        <ele>1651.2</ele>
        <time>2015-01-03T08:17:22Z</time>
      </trkpt>
      <trkpt lat="40.87253" lon="-3.72229">
        <ele>1648.8</ele>
        <time>2015-01-03T08:17:37Z</time>
      </trkpt>
      <trkpt lat="40.87274" lon="-3.72221">
        <ele>1647.84</ele>
        <time>2015-01-03T08:17:53Z</time>
      </trkpt>
      <trkpt lat="40.87289" lon="-3.72209">
        <ele>1645.91</ele>
        <time>2015-01-03T08:18:06Z</time>
      </trkpt>
      <trkpt lat="40.87308" lon="-3.72199">
        <ele>1642.55</ele>
        <time>2015-01-03T08:18:20Z</time>
      </trkpt>
      <trkpt lat="40.87332" lon="-3.72192">
        <ele>1639.67</ele>
        <time>2015-01-03T08:18:37Z</time>
      </trkpt>
      <trkpt lat="40.87346" lon="-3.72186">
        <ele>1638.22</ele>
        <time>2015-01-03T08:18:47Z</time>
      </trkpt>
      <trkpt lat="40.87374" lon="-3.72177">
        <ele>1637.74</ele>
        <time>2015-01-03T08:19:07Z</time>
      </trkpt>
      <trkpt lat="40.87396" lon="-3.72167">
        <ele>1638.22</ele>
        <time>2015-01-03T08:19:23Z</time>
      </trkpt>
      <trkpt lat="40.87418" lon="-3.72146">
        <ele>1635.82</ele>
        <time>2015-01-03T08:19:42Z</time>
      </trkpt>
      <trkpt lat="40.87438" lon="-3.72126">
        <ele>1633.42</ele>
        <time>2015-01-03T08:19:59Z</time>
      </trkpt>
      <trkpt lat="40.8746" lon="-3.72107">
        <ele>1632.46</ele>
        <time>2015-01-03T08:20:16Z</time>
      </trkpt>
      <trkpt lat="40.87479" lon="-3.72091">
        <ele>1632.94</ele>
        <time>2015-01-03T08:20:32Z</time>
      </trkpt>
      <trkpt lat="40.87499" lon="-3.72068">
        <ele>1632.94</ele>
        <time>2015-01-03T08:20:50Z</time>
      </trkpt>
      <trkpt lat="40.87516" lon="-3.72045">
        <ele>1633.42</ele>
        <time>2015-01-03T08:21:06Z</time>
      </trkpt>
      <trkpt lat="40.8753" lon="-3.72012">
        <ele>1632.46</ele>
        <time>2015-01-03T08:21:25Z</time>
      </trkpt>
      <trkpt lat="40.87548" lon="-3.71984">
        <ele>1629.57</ele>
        <time>2015-01-03T08:21:43Z</time>
      </trkpt>
      <trkpt lat="40.8756" lon="-3.71969">
        <ele>1626.69</ele>
        <time>2015-01-03T08:21:55Z</time>
      </trkpt>
      <trkpt lat="40.87572" lon="-3.7195">
        <ele>1623.32</ele>
        <time>2015-01-03T08:22:09Z</time>
      </trkpt>
      <trkpt lat="40.87585" lon="-3.71925">
        <ele>1620.92</ele>
        <time>2015-01-03T08:22:24Z</time>
      </trkpt>
      <trkpt lat="40.87595" lon="-3.71889">
        <ele>1619.96</ele>
        <time>2015-01-03T08:22:42Z</time>
      </trkpt>
      <trkpt lat="40.87604" lon="-3.71855">
        <ele>1620.92</ele>
        <time>2015-01-03T08:23:00Z</time>
      </trkpt>
      <trkpt lat="40.87615" lon="-3.71825">
        <ele>1621.4</ele>
        <time>2015-01-03T08:23:17Z</time>
      </trkpt>
      <trkpt lat="40.87627" lon="-3.7179">
        <ele>1623.32</ele>
        <time>2015-01-03T08:23:38Z</time>
      </trkpt>
      <trkpt lat="40.87636" lon="-3.71759">
        <ele>1622.84</ele>
        <time>2015-01-03T08:23:56Z</time>
      </trkpt>
      <trkpt lat="40.8765" lon="-3.71731">
        <ele>1622.36</ele>
        <time>2015-01-03T08:24:13Z</time>
      </trkpt>
      <trkpt lat="40.87651" lon="-3.71699">
        <ele>1621.4</ele>
        <time>2015-01-03T08:24:29Z</time>
      </trkpt>
      <trkpt lat="40.87655" lon="-3.71665">
        <ele>1621.4</ele>
        <time>2015-01-03T08:24:46Z</time>
      </trkpt>
      <trkpt lat="40.87658" lon="-3.7164">
        <ele>1622.84</ele>
        <time>2015-01-03T08:25:00Z</time>
      </trkpt>
      <trkpt lat="40.87649" lon="-3.71607">
        <ele>1622.36</ele>
        <time>2015-01-03T08:25:18Z</time>
      </trkpt>
      <trkpt lat="40.8764" lon="-3.71584">
        <ele>1621.4</ele>
        <time>2015-01-03T08:25:33Z</time>
      </trkpt>
      <trkpt lat="40.87638" lon="-3.71568">
        <ele>1621.4</ele>
        <time>2015-01-03T08:25:42Z</time>
      </trkpt>
      <trkpt lat="40.87636" lon="-3.71532">
        <ele>1620.92</ele>
        <time>2015-01-03T08:26:01Z</time>
      </trkpt>
      <trkpt lat="40.87632" lon="-3.71505">
        <ele>1621.88</ele>
        <time>2015-01-03T08:26:15Z</time>
      </trkpt>
      <trkpt lat="40.87629" lon="-3.71477">
        <ele>1621.88</ele>
        <time>2015-01-03T08:26:31Z</time>
      </trkpt>
      <trkpt lat="40.87629" lon="-3.71445">
        <ele>1621.88</ele>
        <time>2015-01-03T08:26:48Z</time>
      </trkpt>
      <trkpt lat="40.87636" lon="-3.71414">
        <ele>1622.36</ele>
        <time>2015-01-03T08:27:06Z</time>
      </trkpt>
      <trkpt lat="40.87634" lon="-3.71381">
        <ele>1623.32</ele>
        <time>2015-01-03T08:27:23Z</time>
      </trkpt>
      <trkpt lat="40.87633" lon="-3.71357">
        <ele>1625.25</ele>
        <time>2015-01-03T08:27:38Z</time>
      </trkpt>
      <trkpt lat="40.87634" lon="-3.71349">
        <ele>1625.73</ele>
        <time>2015-01-03T08:27:43Z</time>
      </trkpt>
      <trkpt lat="40.87637" lon="-3.71322">
        <ele>1627.17</ele>
        <time>2015-01-03T08:27:59Z</time>
      </trkpt>
      <trkpt lat="40.87638" lon="-3.71313">
        <ele>1627.65</ele>
        <time>2015-01-03T08:28:04Z</time>
      </trkpt>
      <trkpt lat="40.8764" lon="-3.71278">
        <ele>1627.65</ele>
        <time>2015-01-03T08:28:23Z</time>
      </trkpt>
      <trkpt lat="40.87644" lon="-3.71248">
        <ele>1627.65</ele>
        <time>2015-01-03T08:28:39Z</time>
      </trkpt>
      <trkpt lat="40.87649" lon="-3.71215">
        <ele>1628.61</ele>
        <time>2015-01-03T08:28:56Z</time>
      </trkpt>
      <trkpt lat="40.87658" lon="-3.71193">
        <ele>1631.01</ele>
        <time>2015-01-03T08:29:11Z</time>
      </trkpt>
      <trkpt lat="40.87664" lon="-3.71176">
        <ele>1632.94</ele>
        <time>2015-01-03T08:29:23Z</time>
      </trkpt>
      <trkpt lat="40.87666" lon="-3.71152">
        <ele>1634.86</ele>
        <time>2015-01-03T08:29:37Z</time>
      </trkpt>
      <trkpt lat="40.87668" lon="-3.71147">
        <ele>1635.34</ele>
        <time>2015-01-03T08:29:40Z</time>
      </trkpt>
      <trkpt lat="40.87674" lon="-3.71121">
        <ele>1637.74</ele>
        <time>2015-01-03T08:29:57Z</time>
      </trkpt>
      <trkpt lat="40.87675" lon="-3.71118">
        <ele>1638.22</ele>
        <time>2015-01-03T08:29:59Z</time>
      </trkpt>
      <trkpt lat="40.87675" lon="-3.71111">
        <ele>1638.7</ele>
        <time>2015-01-03T08:30:04Z</time>
      </trkpt>
      <trkpt lat="40.87679" lon="-3.71082">
        <ele>1639.19</ele>
        <time>2015-01-03T08:30:21Z</time>
      </trkpt>
      <trkpt lat="40.87684" lon="-3.71046">
        <ele>1637.74</ele>
        <time>2015-01-03T08:30:40Z</time>
      </trkpt>
      <trkpt lat="40.87692" lon="-3.71014">
        <ele>1637.74</ele>
        <time>2015-01-03T08:30:57Z</time>
      </trkpt>
      <trkpt lat="40.87696" lon="-3.70981">
        <ele>1638.7</ele>
        <time>2015-01-03T08:31:15Z</time>
      </trkpt>
      <trkpt lat="40.87697" lon="-3.70975">
        <ele>1638.7</ele>
        <time>2015-01-03T08:31:18Z</time>
      </trkpt>
      <trkpt lat="40.877" lon="-3.70968">
        <ele>1639.19</ele>
        <time>2015-01-03T08:31:23Z</time>
      </trkpt>
      <trkpt lat="40.87706" lon="-3.70934">
        <ele>1640.15</ele>
        <time>2015-01-03T08:31:41Z</time>
      </trkpt>
      <trkpt lat="40.87709" lon="-3.70905">
        <ele>1641.11</ele>
        <time>2015-01-03T08:31:57Z</time>
      </trkpt>
      <trkpt lat="40.8771" lon="-3.70872">
        <ele>1641.59</ele>
        <time>2015-01-03T08:32:14Z</time>
      </trkpt>
      <trkpt lat="40.87712" lon="-3.7084">
        <ele>1643.03</ele>
        <time>2015-01-03T08:32:31Z</time>
      </trkpt>
      <trkpt lat="40.87717" lon="-3.70813">
        <ele>1645.43</ele>
        <time>2015-01-03T08:32:48Z</time>
      </trkpt>
      <trkpt lat="40.87718" lon="-3.70808">
        <ele>1645.91</ele>
        <time>2015-01-03T08:32:51Z</time>
      </trkpt>
      <trkpt lat="40.87717" lon="-3.70802">
        <ele>1646.4</ele>
        <time>2015-01-03T08:32:55Z</time>
      </trkpt>
      <trkpt lat="40.87719" lon="-3.70781">
        <ele>1648.32</ele>
        <time>2015-01-03T08:33:08Z</time>
      </trkpt>
      <trkpt lat="40.87719" lon="-3.70778">
        <ele>1648.8</ele>
        <time>2015-01-03T08:33:10Z</time>
      </trkpt>
      <trkpt lat="40.8772" lon="-3.70758">
        <ele>1651.2</ele>
        <time>2015-01-03T08:33:25Z</time>
      </trkpt>
      <trkpt lat="40.87721" lon="-3.70755">
        <ele>1651.68</ele>
        <time>2015-01-03T08:33:27Z</time>
      </trkpt>
      <trkpt lat="40.87722" lon="-3.70745">
        <ele>1653.12</ele>
        <time>2015-01-03T08:33:34Z</time>
      </trkpt>
      <trkpt lat="40.87723" lon="-3.70739">
        <ele>1654.09</ele>
        <time>2015-01-03T08:33:39Z</time>
      </trkpt>
      <trkpt lat="40.87725" lon="-3.70721">
        <ele>1656.49</ele>
        <time>2015-01-03T08:33:53Z</time>
      </trkpt>
      <trkpt lat="40.87726" lon="-3.70702">
        <ele>1659.37</ele>
        <time>2015-01-03T08:34:07Z</time>
      </trkpt>
      <trkpt lat="40.87725" lon="-3.70697">
        <ele>1660.33</ele>
        <time>2015-01-03T08:34:12Z</time>
      </trkpt>
      <trkpt lat="40.87726" lon="-3.70695">
        <ele>1660.33</ele>
        <time>2015-01-03T08:34:14Z</time>
      </trkpt>
      <trkpt lat="40.87726" lon="-3.70688">
        <ele>1661.78</ele>
        <time>2015-01-03T08:34:20Z</time>
      </trkpt>
      <trkpt lat="40.87726" lon="-3.70683">
        <ele>1662.74</ele>
        <time>2015-01-03T08:34:24Z</time>
      </trkpt>
      <trkpt lat="40.87728" lon="-3.70667">
        <ele>1665.14</ele>
        <time>2015-01-03T08:34:37Z</time>
      </trkpt>
      <trkpt lat="40.87729" lon="-3.70655">
        <ele>1667.06</ele>
        <time>2015-01-03T08:34:48Z</time>
      </trkpt>
      <trkpt lat="40.8773" lon="-3.70648">
        <ele>1668.02</ele>
        <time>2015-01-03T08:34:54Z</time>
      </trkpt>
      <trkpt lat="40.87729" lon="-3.70643">
        <ele>1668.99</ele>
        <time>2015-01-03T08:34:59Z</time>
      </trkpt>
      <trkpt lat="40.87731" lon="-3.70627">
        <ele>1671.39</ele>
        <time>2015-01-03T08:35:13Z</time>
      </trkpt>
      <trkpt lat="40.87731" lon="-3.70622">
        <ele>1672.35</ele>
        <time>2015-01-03T08:35:17Z</time>
      </trkpt>
      <trkpt lat="40.8773" lon="-3.70612">
        <ele>1673.79</ele>
        <time>2015-01-03T08:35:26Z</time>
      </trkpt>
      <trkpt lat="40.87731" lon="-3.7061">
        <ele>1673.79</ele>
        <time>2015-01-03T08:35:28Z</time>
      </trkpt>
      <trkpt lat="40.8773" lon="-3.70608">
        <ele>1674.27</ele>
        <time>2015-01-03T08:35:30Z</time>
      </trkpt>
      <trkpt lat="40.87729" lon="-3.70601">
        <ele>1675.23</ele>
        <time>2015-01-03T08:35:35Z</time>
      </trkpt>
      <trkpt lat="40.8773" lon="-3.7059">
        <ele>1678.12</ele>
        <time>2015-01-03T08:35:45Z</time>
      </trkpt>
      <trkpt lat="40.87728" lon="-3.7058">
        <ele>1679.08</ele>
        <time>2015-01-03T08:35:52Z</time>
      </trkpt>
      <trkpt lat="40.87727" lon="-3.70577">
        <ele>1679.56</ele>
        <time>2015-01-03T08:35:54Z</time>
      </trkpt>
      <trkpt lat="40.87725" lon="-3.70569">
        <ele>1680.52</ele>
        <time>2015-01-03T08:36:00Z</time>
      </trkpt>
      <trkpt lat="40.87726" lon="-3.70553">
        <ele>1681.96</ele>
        <time>2015-01-03T08:36:12Z</time>
      </trkpt>
      <trkpt lat="40.87727" lon="-3.70545">
        <ele>1682.93</ele>
        <time>2015-01-03T08:36:17Z</time>
      </trkpt>
      <trkpt lat="40.87729" lon="-3.70529">
        <ele>1683.89</ele>
        <time>2015-01-03T08:36:29Z</time>
      </trkpt>
      <trkpt lat="40.87732" lon="-3.70517">
        <ele>1683.89</ele>
        <time>2015-01-03T08:36:37Z</time>
      </trkpt>
      <trkpt lat="40.87735" lon="-3.70508">
        <ele>1684.85</ele>
        <time>2015-01-03T08:36:43Z</time>
      </trkpt>
      <trkpt lat="40.87736" lon="-3.705">
        <ele>1685.33</ele>
        <time>2015-01-03T08:36:49Z</time>
      </trkpt>
      <trkpt lat="40.87741" lon="-3.70471">
        <ele>1687.25</ele>
        <time>2015-01-03T08:37:07Z</time>
      </trkpt>
      <trkpt lat="40.87745" lon="-3.70446">
        <ele>1688.21</ele>
        <time>2015-01-03T08:37:22Z</time>
      </trkpt>
      <trkpt lat="40.87747" lon="-3.70413">
        <ele>1688.69</ele>
        <time>2015-01-03T08:37:40Z</time>
      </trkpt>
      <trkpt lat="40.87749" lon="-3.70383">
        <ele>1689.65</ele>
        <time>2015-01-03T08:37:57Z</time>
      </trkpt>
      <trkpt lat="40.87753" lon="-3.70349">
        <ele>1690.14</ele>
        <time>2015-01-03T08:38:15Z</time>
      </trkpt>
      <trkpt lat="40.87756" lon="-3.70321">
        <ele>1691.58</ele>
        <time>2015-01-03T08:38:31Z</time>
      </trkpt>
      <trkpt lat="40.87759" lon="-3.70301">
        <ele>1693.02</ele>
        <time>2015-01-03T08:38:43Z</time>
      </trkpt>
      <trkpt lat="40.8776" lon="-3.70293">
        <ele>1693.98</ele>
        <time>2015-01-03T08:38:48Z</time>
      </trkpt>
      <trkpt lat="40.87763" lon="-3.70285">
        <ele>1694.46</ele>
        <time>2015-01-03T08:38:53Z</time>
      </trkpt>
      <trkpt lat="40.8777" lon="-3.70264">
        <ele>1696.38</ele>
        <time>2015-01-03T08:39:07Z</time>
      </trkpt>
      <trkpt lat="40.87778" lon="-3.70241">
        <ele>1699.27</ele>
        <time>2015-01-03T08:39:24Z</time>
      </trkpt>
      <trkpt lat="40.8778" lon="-3.70237">
        <ele>1700.23</ele>
        <time>2015-01-03T08:39:28Z</time>
      </trkpt>
      <trkpt lat="40.87787" lon="-3.70225">
        <ele>1701.67</ele>
        <time>2015-01-03T08:39:38Z</time>
      </trkpt>
      <trkpt lat="40.8779" lon="-3.70221">
        <ele>1702.15</ele>
        <time>2015-01-03T08:39:42Z</time>
      </trkpt>
      <trkpt lat="40.87792" lon="-3.70215">
        <ele>1702.63</ele>
        <time>2015-01-03T08:39:46Z</time>
      </trkpt>
      <trkpt lat="40.87794" lon="-3.70212">
        <ele>1703.11</ele>
        <time>2015-01-03T08:39:49Z</time>
      </trkpt>
      <trkpt lat="40.87803" lon="-3.70197">
        <ele>1705.52</ele>
        <time>2015-01-03T08:40:02Z</time>
      </trkpt>
      <trkpt lat="40.87805" lon="-3.70193">
        <ele>1706.48</ele>
        <time>2015-01-03T08:40:06Z</time>
      </trkpt>
      <trkpt lat="40.87809" lon="-3.70183">
        <ele>1707.92</ele>
        <time>2015-01-03T08:40:15Z</time>
      </trkpt>
      <trkpt lat="40.87811" lon="-3.7018">
        <ele>1708.4</ele>
        <time>2015-01-03T08:40:18Z</time>
      </trkpt>
      <trkpt lat="40.87815" lon="-3.70169">
        <ele>1710.32</ele>
        <time>2015-01-03T08:40:29Z</time>
      </trkpt>
      <trkpt lat="40.87815" lon="-3.70168">
        <ele>1710.8</ele>
        <time>2015-01-03T08:40:30Z</time>
      </trkpt>
      <trkpt lat="40.87817" lon="-3.70161">
        <ele>1711.76</ele>
        <time>2015-01-03T08:40:36Z</time>
      </trkpt>
      <trkpt lat="40.87818" lon="-3.70159">
        <ele>1712.25</ele>
        <time>2015-01-03T08:40:38Z</time>
      </trkpt>
      <trkpt lat="40.87819" lon="-3.70155">
        <ele>1712.73</ele>
        <time>2015-01-03T08:40:41Z</time>
      </trkpt>
      <trkpt lat="40.87821" lon="-3.70142">
        <ele>1715.13</ele>
        <time>2015-01-03T08:40:53Z</time>
      </trkpt>
      <trkpt lat="40.87823" lon="-3.70137">
        <ele>1716.09</ele>
        <time>2015-01-03T08:40:58Z</time>
      </trkpt>
      <trkpt lat="40.87823" lon="-3.70135">
        <ele>1716.57</ele>
        <time>2015-01-03T08:41:00Z</time>
      </trkpt>
      <trkpt lat="40.87827" lon="-3.70125">
        <ele>1718.01</ele>
        <time>2015-01-03T08:41:10Z</time>
      </trkpt>
      <trkpt lat="40.8783" lon="-3.70117">
        <ele>1719.46</ele>
        <time>2015-01-03T08:41:17Z</time>
      </trkpt>
      <trkpt lat="40.8783" lon="-3.70114">
        <ele>1719.94</ele>
        <time>2015-01-03T08:41:20Z</time>
      </trkpt>
      <trkpt lat="40.87833" lon="-3.7011">
        <ele>1721.38</ele>
        <time>2015-01-03T08:41:25Z</time>
      </trkpt>
      <trkpt lat="40.87838" lon="-3.70097">
        <ele>1723.3</ele>
        <time>2015-01-03T08:41:38Z</time>
      </trkpt>
      <trkpt lat="40.87841" lon="-3.70092">
        <ele>1724.26</ele>
        <time>2015-01-03T08:41:43Z</time>
      </trkpt>
      <trkpt lat="40.87843" lon="-3.70088">
        <ele>1724.74</ele>
        <time>2015-01-03T08:41:47Z</time>
      </trkpt>
      <trkpt lat="40.87848" lon="-3.70075">
        <ele>1726.67</ele>
        <time>2015-01-03T08:42:00Z</time>
      </trkpt>
      <trkpt lat="40.87848" lon="-3.70074">
        <ele>1726.67</ele>
        <time>2015-01-03T08:42:01Z</time>
      </trkpt>
      <trkpt lat="40.87849" lon="-3.70072">
        <ele>1727.15</ele>
        <time>2015-01-03T08:42:03Z</time>
      </trkpt>
      <trkpt lat="40.87852" lon="-3.70068">
        <ele>1728.11</ele>
        <time>2015-01-03T08:42:08Z</time>
      </trkpt>
      <trkpt lat="40.87853" lon="-3.70066">
        <ele>1728.59</ele>
        <time>2015-01-03T08:42:10Z</time>
      </trkpt>
      <trkpt lat="40.87855" lon="-3.70062">
        <ele>1729.07</ele>
        <time>2015-01-03T08:42:14Z</time>
      </trkpt>
      <trkpt lat="40.8786" lon="-3.70056">
        <ele>1730.03</ele>
        <time>2015-01-03T08:42:21Z</time>
      </trkpt>
      <trkpt lat="40.87867" lon="-3.70044">
        <ele>1732.43</ele>
        <time>2015-01-03T08:42:34Z</time>
      </trkpt>
      <trkpt lat="40.87868" lon="-3.70043">
        <ele>1732.43</ele>
        <time>2015-01-03T08:42:35Z</time>
      </trkpt>
      <trkpt lat="40.87877" lon="-3.70031">
        <ele>1734.84</ele>
        <time>2015-01-03T08:42:49Z</time>
      </trkpt>
      <trkpt lat="40.87883" lon="-3.70025">
        <ele>1736.76</ele>
        <time>2015-01-03T08:42:58Z</time>
      </trkpt>
      <trkpt lat="40.87888" lon="-3.70015">
        <ele>1738.2</ele>
        <time>2015-01-03T08:43:10Z</time>
      </trkpt>
      <trkpt lat="40.87889" lon="-3.7001">
        <ele>1739.16</ele>
        <time>2015-01-03T08:43:14Z</time>
      </trkpt>
      <trkpt lat="40.87888" lon="-3.70008">
        <ele>1739.64</ele>
        <time>2015-01-03T08:43:16Z</time>
      </trkpt>
      <trkpt lat="40.87892" lon="-3.69996">
        <ele>1741.08</ele>
        <time>2015-01-03T08:43:27Z</time>
      </trkpt>
      <trkpt lat="40.87897" lon="-3.69984">
        <ele>1743.49</ele>
        <time>2015-01-03T08:43:39Z</time>
      </trkpt>
      <trkpt lat="40.87902" lon="-3.69979">
        <ele>1745.41</ele>
        <time>2015-01-03T08:43:47Z</time>
      </trkpt>
      <trkpt lat="40.87902" lon="-3.69976">
        <ele>1745.41</ele>
        <time>2015-01-03T08:43:49Z</time>
      </trkpt>
      <trkpt lat="40.87906" lon="-3.69971">
        <ele>1746.85</ele>
        <time>2015-01-03T08:43:55Z</time>
      </trkpt>
      <trkpt lat="40.87911" lon="-3.6996">
        <ele>1748.78</ele>
        <time>2015-01-03T08:44:08Z</time>
      </trkpt>
      <trkpt lat="40.87916" lon="-3.69949">
        <ele>1751.18</ele>
        <time>2015-01-03T08:44:20Z</time>
      </trkpt>
      <trkpt lat="40.87921" lon="-3.6994">
        <ele>1753.58</ele>
        <time>2015-01-03T08:44:32Z</time>
      </trkpt>
      <trkpt lat="40.87922" lon="-3.69936">
        <ele>1754.06</ele>
        <time>2015-01-03T08:44:35Z</time>
      </trkpt>
      <trkpt lat="40.87927" lon="-3.69925">
        <ele>1755.99</ele>
        <time>2015-01-03T08:44:47Z</time>
      </trkpt>
      <trkpt lat="40.87929" lon="-3.69923">
        <ele>1756.47</ele>
        <time>2015-01-03T08:44:50Z</time>
      </trkpt>
      <trkpt lat="40.87935" lon="-3.69913">
        <ele>1758.87</ele>
        <time>2015-01-03T08:45:02Z</time>
      </trkpt>
      <trkpt lat="40.87939" lon="-3.69904">
        <ele>1761.27</ele>
        <time>2015-01-03T08:45:14Z</time>
      </trkpt>
      <trkpt lat="40.87945" lon="-3.69901">
        <ele>1762.71</ele>
        <time>2015-01-03T08:45:21Z</time>
      </trkpt>
      <trkpt lat="40.87953" lon="-3.69895">
        <ele>1764.64</ele>
        <time>2015-01-03T08:45:33Z</time>
      </trkpt>
      <trkpt lat="40.87955" lon="-3.69893">
        <ele>1765.6</ele>
        <time>2015-01-03T08:45:36Z</time>
      </trkpt>
      <trkpt lat="40.87963" lon="-3.69885">
        <ele>1767.52</ele>
        <time>2015-01-03T08:45:48Z</time>
      </trkpt>
      <trkpt lat="40.87969" lon="-3.69879">
        <ele>1769.92</ele>
        <time>2015-01-03T08:45:58Z</time>
      </trkpt>
      <trkpt lat="40.87972" lon="-3.69872">
        <ele>1771.85</ele>
        <time>2015-01-03T08:46:06Z</time>
      </trkpt>
      <trkpt lat="40.87974" lon="-3.69862">
        <ele>1773.77</ele>
        <time>2015-01-03T08:46:18Z</time>
      </trkpt>
      <trkpt lat="40.87977" lon="-3.69855">
        <ele>1775.69</ele>
        <time>2015-01-03T08:46:28Z</time>
      </trkpt>
      <trkpt lat="40.87978" lon="-3.69849">
        <ele>1777.61</ele>
        <time>2015-01-03T08:46:35Z</time>
      </trkpt>
      <trkpt lat="40.8798" lon="-3.69841">
        <ele>1779.54</ele>
        <time>2015-01-03T08:46:47Z</time>
      </trkpt>
      <trkpt lat="40.87983" lon="-3.69835">
        <ele>1781.46</ele>
        <time>2015-01-03T08:46:56Z</time>
      </trkpt>
      <trkpt lat="40.87985" lon="-3.69827">
        <ele>1784.82</ele>
        <time>2015-01-03T08:47:07Z</time>
      </trkpt>
      <trkpt lat="40.87989" lon="-3.69819">
        <ele>1786.75</ele>
        <time>2015-01-03T08:47:20Z</time>
      </trkpt>
      <trkpt lat="40.87991" lon="-3.6981">
        <ele>1789.15</ele>
        <time>2015-01-03T08:47:31Z</time>
      </trkpt>
      <trkpt lat="40.87991" lon="-3.69809">
        <ele>1789.63</ele>
        <time>2015-01-03T08:47:32Z</time>
      </trkpt>
      <trkpt lat="40.87993" lon="-3.698">
        <ele>1792.03</ele>
        <time>2015-01-03T08:47:44Z</time>
      </trkpt>
      <trkpt lat="40.87996" lon="-3.69788">
        <ele>1794.44</ele>
        <time>2015-01-03T08:47:57Z</time>
      </trkpt>
      <trkpt lat="40.87998" lon="-3.69779">
        <ele>1797.32</ele>
        <time>2015-01-03T08:48:09Z</time>
      </trkpt>
      <trkpt lat="40.87999" lon="-3.69778">
        <ele>1797.32</ele>
        <time>2015-01-03T08:48:11Z</time>
      </trkpt>
      <trkpt lat="40.88003" lon="-3.6977">
        <ele>1800.21</ele>
        <time>2015-01-03T08:48:24Z</time>
      </trkpt>
      <trkpt lat="40.88005" lon="-3.69767">
        <ele>1801.65</ele>
        <time>2015-01-03T08:48:32Z</time>
      </trkpt>
      <trkpt lat="40.88005" lon="-3.69759">
        <ele>1802.61</ele>
        <time>2015-01-03T08:48:39Z</time>
      </trkpt>
      <trkpt lat="40.88009" lon="-3.69744">
        <ele>1804.53</ele>
        <time>2015-01-03T08:48:52Z</time>
      </trkpt>
      <trkpt lat="40.88011" lon="-3.69741">
        <ele>1805.49</ele>
        <time>2015-01-03T08:48:56Z</time>
      </trkpt>
      <trkpt lat="40.88013" lon="-3.69731">
        <ele>1807.42</ele>
        <time>2015-01-03T08:49:08Z</time>
      </trkpt>
      <trkpt lat="40.88015" lon="-3.6973">
        <ele>1807.9</ele>
        <time>2015-01-03T08:49:11Z</time>
      </trkpt>
      <trkpt lat="40.88018" lon="-3.69721">
        <ele>1809.82</ele>
        <time>2015-01-03T08:49:21Z</time>
      </trkpt>
      <trkpt lat="40.88019" lon="-3.69716">
        <ele>1810.78</ele>
        <time>2015-01-03T08:49:26Z</time>
      </trkpt>
      <trkpt lat="40.88023" lon="-3.69701">
        <ele>1813.18</ele>
        <time>2015-01-03T08:49:39Z</time>
      </trkpt>
      <trkpt lat="40.88023" lon="-3.69696">
        <ele>1813.66</ele>
        <time>2015-01-03T08:49:43Z</time>
      </trkpt>
      <trkpt lat="40.88023" lon="-3.69694">
        <ele>1813.66</ele>
        <time>2015-01-03T08:49:45Z</time>
      </trkpt>
      <trkpt lat="40.88022" lon="-3.69671">
        <ele>1814.63</ele>
        <time>2015-01-03T08:50:02Z</time>
      </trkpt>
      <trkpt lat="40.88024" lon="-3.69667">
        <ele>1814.63</ele>
        <time>2015-01-03T08:50:17Z</time>
      </trkpt>
      <trkpt lat="40.88027" lon="-3.69666">
        <ele>1815.11</ele>
        <time>2015-01-03T08:50:29Z</time>
      </trkpt>
      <trkpt lat="40.88029" lon="-3.69659">
        <ele>1815.59</ele>
        <time>2015-01-03T08:50:41Z</time>
      </trkpt>
      <trkpt lat="40.88036" lon="-3.69647">
        <ele>1817.51</ele>
        <time>2015-01-03T08:50:54Z</time>
      </trkpt>
      <trkpt lat="40.88039" lon="-3.69644">
        <ele>1818.95</ele>
        <time>2015-01-03T08:51:01Z</time>
      </trkpt>
      <trkpt lat="40.88044" lon="-3.6964">
        <ele>1819.91</ele>
        <time>2015-01-03T08:51:06Z</time>
      </trkpt>
      <trkpt lat="40.88053" lon="-3.69628">
        <ele>1821.84</ele>
        <time>2015-01-03T08:51:19Z</time>
      </trkpt>
      <trkpt lat="40.88056" lon="-3.69622">
        <ele>1822.8</ele>
        <time>2015-01-03T08:51:24Z</time>
      </trkpt>
      <trkpt lat="40.88059" lon="-3.69611">
        <ele>1823.76</ele>
        <time>2015-01-03T08:51:32Z</time>
      </trkpt>
      <trkpt lat="40.8806" lon="-3.69594">
        <ele>1826.16</ele>
        <time>2015-01-03T08:51:45Z</time>
      </trkpt>
      <trkpt lat="40.88063" lon="-3.69586">
        <ele>1826.16</ele>
        <time>2015-01-03T08:51:56Z</time>
      </trkpt>
      <trkpt lat="40.88066" lon="-3.69582">
        <ele>1828.08</ele>
        <time>2015-01-03T08:52:08Z</time>
      </trkpt>
      <trkpt lat="40.88064" lon="-3.69582">
        <ele>1828.56</ele>
        <time>2015-01-03T08:52:26Z</time>
      </trkpt>
      <trkpt lat="40.88065" lon="-3.69581">
        <ele>1826.64</ele>
        <time>2015-01-03T08:52:43Z</time>
      </trkpt>
      <trkpt lat="40.88064" lon="-3.69583">
        <ele>1826.64</ele>
        <time>2015-01-03T08:53:28Z</time>
      </trkpt>
      <trkpt lat="40.88065" lon="-3.69583">
        <ele>1827.12</ele>
        <time>2015-01-03T08:54:20Z</time>
      </trkpt>
      <trkpt lat="40.88064" lon="-3.69583">
        <ele>1827.6</ele>
        <time>2015-01-03T08:55:11Z</time>
      </trkpt>
      <trkpt lat="40.88064" lon="-3.69583">
        <ele>1827.6</ele>
        <time>2015-01-03T08:55:45Z</time>
      </trkpt>
      <trkpt lat="40.88065" lon="-3.69583">
        <ele>1828.08</ele>
        <time>2015-01-03T08:56:33Z</time>
      </trkpt>
      <trkpt lat="40.88065" lon="-3.69583">
        <ele>1828.08</ele>
        <time>2015-01-03T08:57:20Z</time>
      </trkpt>
      <trkpt lat="40.88065" lon="-3.69583">
        <ele>1828.08</ele>
        <time>2015-01-03T08:57:56Z</time>
      </trkpt>
      <trkpt lat="40.88065" lon="-3.69582">
        <ele>1828.08</ele>
        <time>2015-01-03T08:58:39Z</time>
      </trkpt>
      <trkpt lat="40.88065" lon="-3.69583">
        <ele>1828.08</ele>
        <time>2015-01-03T08:59:16Z</time>
      </trkpt>
      <trkpt lat="40.88065" lon="-3.69583">
        <ele>1828.08</ele>
        <time>2015-01-03T09:00:02Z</time>
      </trkpt>
      <trkpt lat="40.88066" lon="-3.69582">
        <ele>1828.08</ele>
        <time>2015-01-03T09:00:38Z</time>
      </trkpt>
      <trkpt lat="40.88065" lon="-3.69582">
        <ele>1828.56</ele>
        <time>2015-01-03T09:01:22Z</time>
      </trkpt>
      <trkpt lat="40.88064" lon="-3.69582">
        <ele>1828.56</ele>
        <time>2015-01-03T09:02:07Z</time>
      </trkpt>
      <trkpt lat="40.88065" lon="-3.69582">
        <ele>1828.56</ele>
        <time>2015-01-03T09:02:52Z</time>
      </trkpt>
      <trkpt lat="40.88065" lon="-3.69582">
        <ele>1828.56</ele>
        <time>2015-01-03T09:03:39Z</time>
      </trkpt>
      <trkpt lat="40.88064" lon="-3.69583">
        <ele>1828.56</ele>
        <time>2015-01-03T09:04:26Z</time>
      </trkpt>
      <trkpt lat="40.88065" lon="-3.69583">
        <ele>1828.56</ele>
        <time>2015-01-03T09:04:58Z</time>
      </trkpt>
      <trkpt lat="40.88065" lon="-3.69582">
        <ele>1830.01</ele>
        <time>2015-01-03T09:05:21Z</time>
      </trkpt>
      <trkpt lat="40.88065" lon="-3.69582">
        <ele>1830.01</ele>
        <time>2015-01-03T09:05:38Z</time>
      </trkpt>
      <trkpt lat="40.88063" lon="-3.6958">
        <ele>1829.05</ele>
        <time>2015-01-03T09:05:49Z</time>
      </trkpt>
      <trkpt lat="40.88063" lon="-3.69576">
        <ele>1828.08</ele>
        <time>2015-01-03T09:05:54Z</time>
      </trkpt>
      <trkpt lat="40.88061" lon="-3.69572">
        <ele>1827.6</ele>
        <time>2015-01-03T09:05:58Z</time>
      </trkpt>
      <trkpt lat="40.88061" lon="-3.69565">
        <ele>1826.16</ele>
        <time>2015-01-03T09:06:05Z</time>
      </trkpt>
      <trkpt lat="40.88055" lon="-3.69556">
        <ele>1824.24</ele>
        <time>2015-01-03T09:06:15Z</time>
      </trkpt>
      <trkpt lat="40.88054" lon="-3.69553">
        <ele>1823.76</ele>
        <time>2015-01-03T09:06:19Z</time>
      </trkpt>
      <trkpt lat="40.88053" lon="-3.69544">
        <ele>1822.32</ele>
        <time>2015-01-03T09:06:27Z</time>
      </trkpt>
      <trkpt lat="40.88051" lon="-3.69532">
        <ele>1819.91</ele>
        <time>2015-01-03T09:06:39Z</time>
      </trkpt>
      <trkpt lat="40.8805" lon="-3.69529">
        <ele>1819.43</ele>
        <time>2015-01-03T09:06:42Z</time>
      </trkpt>
      <trkpt lat="40.88047" lon="-3.69514">
        <ele>1817.51</ele>
        <time>2015-01-03T09:06:53Z</time>
      </trkpt>
      <trkpt lat="40.88048" lon="-3.69508">
        <ele>1817.03</ele>
        <time>2015-01-03T09:06:58Z</time>
      </trkpt>
      <trkpt lat="40.88049" lon="-3.69491">
        <ele>1814.63</ele>
        <time>2015-01-03T09:07:12Z</time>
      </trkpt>
      <trkpt lat="40.8805" lon="-3.69489">
        <ele>1814.15</ele>
        <time>2015-01-03T09:07:14Z</time>
      </trkpt>
      <trkpt lat="40.8805" lon="-3.69486">
        <ele>1814.15</ele>
        <time>2015-01-03T09:07:16Z</time>
      </trkpt>
      <trkpt lat="40.8805" lon="-3.69476">
        <ele>1813.18</ele>
        <time>2015-01-03T09:07:22Z</time>
      </trkpt>
      <trkpt lat="40.88049" lon="-3.69473">
        <ele>1813.18</ele>
        <time>2015-01-03T09:07:24Z</time>
      </trkpt>
      <trkpt lat="40.88049" lon="-3.69465">
        <ele>1811.74</ele>
        <time>2015-01-03T09:07:32Z</time>
      </trkpt>
      <trkpt lat="40.88048" lon="-3.69461">
        <ele>1811.26</ele>
        <time>2015-01-03T09:07:35Z</time>
      </trkpt>
      <trkpt lat="40.88045" lon="-3.69448">
        <ele>1808.86</ele>
        <time>2015-01-03T09:07:48Z</time>
      </trkpt>
      <trkpt lat="40.88045" lon="-3.69443">
        <ele>1807.42</ele>
        <time>2015-01-03T09:07:54Z</time>
      </trkpt>
      <trkpt lat="40.88045" lon="-3.69441">
        <ele>1806.94</ele>
        <time>2015-01-03T09:07:56Z</time>
      </trkpt>
      <trkpt lat="40.88043" lon="-3.69419">
        <ele>1804.05</ele>
        <time>2015-01-03T09:08:11Z</time>
      </trkpt>
      <trkpt lat="40.88043" lon="-3.69391">
        <ele>1802.61</ele>
        <time>2015-01-03T09:08:28Z</time>
      </trkpt>
      <trkpt lat="40.88043" lon="-3.69362">
        <ele>1802.13</ele>
        <time>2015-01-03T09:08:44Z</time>
      </trkpt>
      <trkpt lat="40.88041" lon="-3.69335">
        <ele>1800.69</ele>
        <time>2015-01-03T09:09:00Z</time>
      </trkpt>
      <trkpt lat="40.88041" lon="-3.69323">
        <ele>1800.21</ele>
        <time>2015-01-03T09:09:08Z</time>
      </trkpt>
      <trkpt lat="40.88042" lon="-3.69322">
        <ele>1799.73</ele>
        <time>2015-01-03T09:09:10Z</time>
      </trkpt>
      <trkpt lat="40.88044" lon="-3.69313">
        <ele>1799.73</ele>
        <time>2015-01-03T09:09:17Z</time>
      </trkpt>
      <trkpt lat="40.88048" lon="-3.69304">
        <ele>1798.28</ele>
        <time>2015-01-03T09:09:25Z</time>
      </trkpt>
      <trkpt lat="40.88053" lon="-3.69294">
        <ele>1797.32</ele>
        <time>2015-01-03T09:09:34Z</time>
      </trkpt>
      <trkpt lat="40.88056" lon="-3.69289">
        <ele>1796.84</ele>
        <time>2015-01-03T09:09:40Z</time>
      </trkpt>
      <trkpt lat="40.88055" lon="-3.69286">
        <ele>1796.36</ele>
        <time>2015-01-03T09:09:43Z</time>
      </trkpt>
      <trkpt lat="40.88059" lon="-3.69277">
        <ele>1794.44</ele>
        <time>2015-01-03T09:09:51Z</time>
      </trkpt>
      <trkpt lat="40.88061" lon="-3.69256">
        <ele>1790.59</ele>
        <time>2015-01-03T09:10:06Z</time>
      </trkpt>
      <trkpt lat="40.88061" lon="-3.69254">
        <ele>1790.59</ele>
        <time>2015-01-03T09:10:07Z</time>
      </trkpt>
      <trkpt lat="40.88063" lon="-3.69245">
        <ele>1790.11</ele>
        <time>2015-01-03T09:10:12Z</time>
      </trkpt>
      <trkpt lat="40.88065" lon="-3.69219">
        <ele>1788.67</ele>
        <time>2015-01-03T09:10:27Z</time>
      </trkpt>
      <trkpt lat="40.88065" lon="-3.69204">
        <ele>1786.75</ele>
        <time>2015-01-03T09:10:39Z</time>
      </trkpt>
      <trkpt lat="40.88065" lon="-3.69201">
        <ele>1786.27</ele>
        <time>2015-01-03T09:10:41Z</time>
      </trkpt>
      <trkpt lat="40.8807" lon="-3.69178">
        <ele>1783.38</ele>
        <time>2015-01-03T09:10:57Z</time>
      </trkpt>
      <trkpt lat="40.88078" lon="-3.69156">
        <ele>1781.94</ele>
        <time>2015-01-03T09:11:12Z</time>
      </trkpt>
      <trkpt lat="40.88079" lon="-3.69146">
        <ele>1781.46</ele>
        <time>2015-01-03T09:11:18Z</time>
      </trkpt>
      <trkpt lat="40.88087" lon="-3.69128">
        <ele>1780.5</ele>
        <time>2015-01-03T09:11:31Z</time>
      </trkpt>
      <trkpt lat="40.881" lon="-3.69109">
        <ele>1780.02</ele>
        <time>2015-01-03T09:11:46Z</time>
      </trkpt>
      <trkpt lat="40.88101" lon="-3.69106">
        <ele>1780.02</ele>
        <time>2015-01-03T09:11:48Z</time>
      </trkpt>
      <trkpt lat="40.88117" lon="-3.69086">
        <ele>1778.1</ele>
        <time>2015-01-03T09:12:05Z</time>
      </trkpt>
      <trkpt lat="40.88127" lon="-3.69072">
        <ele>1776.65</ele>
        <time>2015-01-03T09:12:18Z</time>
      </trkpt>
      <trkpt lat="40.88142" lon="-3.69057">
        <ele>1775.69</ele>
        <time>2015-01-03T09:12:32Z</time>
      </trkpt>
      <trkpt lat="40.88156" lon="-3.69031">
        <ele>1776.17</ele>
        <time>2015-01-03T09:12:49Z</time>
      </trkpt>
      <trkpt lat="40.88162" lon="-3.69006">
        <ele>1778.1</ele>
        <time>2015-01-03T09:13:05Z</time>
      </trkpt>
      <trkpt lat="40.88167" lon="-3.68991">
        <ele>1779.54</ele>
        <time>2015-01-03T09:13:17Z</time>
      </trkpt>
      <trkpt lat="40.88168" lon="-3.68988">
        <ele>1779.54</ele>
        <time>2015-01-03T09:13:21Z</time>
      </trkpt>
      <trkpt lat="40.88179" lon="-3.68979">
        <ele>1780.5</ele>
        <time>2015-01-03T09:13:33Z</time>
      </trkpt>
      <trkpt lat="40.88186" lon="-3.68967">
        <ele>1781.46</ele>
        <time>2015-01-03T09:13:43Z</time>
      </trkpt>
      <trkpt lat="40.88187" lon="-3.68964">
        <ele>1781.94</ele>
        <time>2015-01-03T09:13:46Z</time>
      </trkpt>
      <trkpt lat="40.88188" lon="-3.68961">
        <ele>1781.94</ele>
        <time>2015-01-03T09:13:56Z</time>
      </trkpt>
      <trkpt lat="40.88186" lon="-3.68959">
        <ele>1782.42</ele>
        <time>2015-01-03T09:13:58Z</time>
      </trkpt>
      <trkpt lat="40.88186" lon="-3.68955">
        <ele>1782.42</ele>
        <time>2015-01-03T09:14:01Z</time>
      </trkpt>
      <trkpt lat="40.88189" lon="-3.68942">
        <ele>1784.82</ele>
        <time>2015-01-03T09:14:14Z</time>
      </trkpt>
      <trkpt lat="40.8819" lon="-3.68942">
        <ele>1784.34</ele>
        <time>2015-01-03T09:14:15Z</time>
      </trkpt>
      <trkpt lat="40.88198" lon="-3.6893">
        <ele>1786.75</ele>
        <time>2015-01-03T09:14:28Z</time>
      </trkpt>
      <trkpt lat="40.88198" lon="-3.68926">
        <ele>1787.71</ele>
        <time>2015-01-03T09:14:31Z</time>
      </trkpt>
      <trkpt lat="40.88198" lon="-3.6892">
        <ele>1788.67</ele>
        <time>2015-01-03T09:14:35Z</time>
      </trkpt>
      <trkpt lat="40.882" lon="-3.68908">
        <ele>1791.07</ele>
        <time>2015-01-03T09:14:49Z</time>
      </trkpt>
      <trkpt lat="40.88202" lon="-3.68904">
        <ele>1791.55</ele>
        <time>2015-01-03T09:14:54Z</time>
      </trkpt>
      <trkpt lat="40.88207" lon="-3.68902">
        <ele>1792.03</ele>
        <time>2015-01-03T09:15:00Z</time>
      </trkpt>
      <trkpt lat="40.88208" lon="-3.689">
        <ele>1792.52</ele>
        <time>2015-01-03T09:15:02Z</time>
      </trkpt>
      <trkpt lat="40.88209" lon="-3.68898">
        <ele>1792.52</ele>
        <time>2015-01-03T09:15:04Z</time>
      </trkpt>
      <trkpt lat="40.88214" lon="-3.68886">
        <ele>1791.55</ele>
        <time>2015-01-03T09:15:19Z</time>
      </trkpt>
      <trkpt lat="40.8822" lon="-3.68879">
        <ele>1791.55</ele>
        <time>2015-01-03T09:15:27Z</time>
      </trkpt>
      <trkpt lat="40.88219" lon="-3.68875">
        <ele>1792.03</ele>
        <time>2015-01-03T09:15:30Z</time>
      </trkpt>
      <trkpt lat="40.88219" lon="-3.68872">
        <ele>1792.03</ele>
        <time>2015-01-03T09:15:32Z</time>
      </trkpt>
      <trkpt lat="40.88217" lon="-3.6887">
        <ele>1792.03</ele>
        <time>2015-01-03T09:15:34Z</time>
      </trkpt>
      <trkpt lat="40.88215" lon="-3.68866">
        <ele>1793</ele>
        <time>2015-01-03T09:15:40Z</time>
      </trkpt>
      <trkpt lat="40.88215" lon="-3.68865">
        <ele>1793</ele>
        <time>2015-01-03T09:15:42Z</time>
      </trkpt>
      <trkpt lat="40.88217" lon="-3.68862">
        <ele>1793.96</ele>
        <time>2015-01-03T09:15:48Z</time>
      </trkpt>
      <trkpt lat="40.88219" lon="-3.68854">
        <ele>1794.92</ele>
        <time>2015-01-03T09:16:01Z</time>
      </trkpt>
      <trkpt lat="40.88221" lon="-3.68853">
        <ele>1794.92</ele>
        <time>2015-01-03T09:16:08Z</time>
      </trkpt>
      <trkpt lat="40.88222" lon="-3.68849">
        <ele>1794.92</ele>
        <time>2015-01-03T09:16:12Z</time>
      </trkpt>
      <trkpt lat="40.88222" lon="-3.68841">
        <ele>1794.92</ele>
        <time>2015-01-03T09:16:24Z</time>
      </trkpt>
      <trkpt lat="40.88227" lon="-3.68841">
        <ele>1796.36</ele>
        <time>2015-01-03T09:16:37Z</time>
      </trkpt>
      <trkpt lat="40.88226" lon="-3.68844">
        <ele>1796.36</ele>
        <time>2015-01-03T09:16:51Z</time>
      </trkpt>
      <trkpt lat="40.88222" lon="-3.68843">
        <ele>1796.36</ele>
        <time>2015-01-03T09:17:03Z</time>
      </trkpt>
      <trkpt lat="40.88219" lon="-3.6884">
        <ele>1794.44</ele>
        <time>2015-01-03T09:17:13Z</time>
      </trkpt>
      <trkpt lat="40.88219" lon="-3.6884">
        <ele>1793.96</ele>
        <time>2015-01-03T09:17:16Z</time>
      </trkpt>
      <trkpt lat="40.88218" lon="-3.68838">
        <ele>1793.48</ele>
        <time>2015-01-03T09:17:19Z</time>
      </trkpt>
      <trkpt lat="40.88218" lon="-3.68838">
        <ele>1793.48</ele>
        <time>2015-01-03T09:17:33Z</time>
      </trkpt>
      <trkpt lat="40.8822" lon="-3.68836">
        <ele>1792.52</ele>
        <time>2015-01-03T09:17:47Z</time>
      </trkpt>
      <trkpt lat="40.8822" lon="-3.68835">
        <ele>1791.55</ele>
        <time>2015-01-03T09:18:00Z</time>
      </trkpt>
      <trkpt lat="40.88221" lon="-3.68834">
        <ele>1792.52</ele>
        <time>2015-01-03T09:18:04Z</time>
      </trkpt>
      <trkpt lat="40.8823" lon="-3.68824">
        <ele>1791.07</ele>
        <time>2015-01-03T09:18:14Z</time>
      </trkpt>
      <trkpt lat="40.88232" lon="-3.68824">
        <ele>1790.59</ele>
        <time>2015-01-03T09:18:16Z</time>
      </trkpt>
      <trkpt lat="40.88235" lon="-3.68821">
        <ele>1792.03</ele>
        <time>2015-01-03T09:18:19Z</time>
      </trkpt>
      <trkpt lat="40.88236" lon="-3.68819">
        <ele>1790.59</ele>
        <time>2015-01-03T09:18:21Z</time>
      </trkpt>
      <trkpt lat="40.88238" lon="-3.68816">
        <ele>1791.07</ele>
        <time>2015-01-03T09:18:31Z</time>
      </trkpt>
      <trkpt lat="40.88238" lon="-3.68814">
        <ele>1791.07</ele>
        <time>2015-01-03T09:18:41Z</time>
      </trkpt>
      <trkpt lat="40.88244" lon="-3.68793">
        <ele>1790.59</ele>
        <time>2015-01-03T09:18:56Z</time>
      </trkpt>
      <trkpt lat="40.88249" lon="-3.68792">
        <ele>1790.59</ele>
        <time>2015-01-03T09:19:00Z</time>
      </trkpt>
      <trkpt lat="40.88253" lon="-3.68791">
        <ele>1790.59</ele>
        <time>2015-01-03T09:19:03Z</time>
      </trkpt>
      <trkpt lat="40.88257" lon="-3.68788">
        <ele>1791.55</ele>
        <time>2015-01-03T09:19:07Z</time>
      </trkpt>
      <trkpt lat="40.8826" lon="-3.68786">
        <ele>1791.55</ele>
        <time>2015-01-03T09:19:10Z</time>
      </trkpt>
      <trkpt lat="40.88268" lon="-3.68776">
        <ele>1793.96</ele>
        <time>2015-01-03T09:19:21Z</time>
      </trkpt>
      <trkpt lat="40.88268" lon="-3.68776">
        <ele>1793.96</ele>
        <time>2015-01-03T09:19:22Z</time>
      </trkpt>
      <trkpt lat="40.88269" lon="-3.68778">
        <ele>1793.48</ele>
        <time>2015-01-03T09:19:24Z</time>
      </trkpt>
      <trkpt lat="40.88275" lon="-3.6877">
        <ele>1794.92</ele>
        <time>2015-01-03T09:19:35Z</time>
      </trkpt>
      <trkpt lat="40.88276" lon="-3.68769">
        <ele>1794.92</ele>
        <time>2015-01-03T09:19:36Z</time>
      </trkpt>
      <trkpt lat="40.88278" lon="-3.68759">
        <ele>1795.88</ele>
        <time>2015-01-03T09:19:43Z</time>
      </trkpt>
      <trkpt lat="40.88282" lon="-3.68752">
        <ele>1795.88</ele>
        <time>2015-01-03T09:19:48Z</time>
      </trkpt>
      <trkpt lat="40.88298" lon="-3.68733">
        <ele>1794.44</ele>
        <time>2015-01-03T09:20:05Z</time>
      </trkpt>
      <trkpt lat="40.88303" lon="-3.68725">
        <ele>1794.44</ele>
        <time>2015-01-03T09:20:11Z</time>
      </trkpt>
      <trkpt lat="40.883" lon="-3.68719">
        <ele>1794.44</ele>
        <time>2015-01-03T09:20:15Z</time>
      </trkpt>
      <trkpt lat="40.88313" lon="-3.68699">
        <ele>1793.48</ele>
        <time>2015-01-03T09:20:30Z</time>
      </trkpt>
      <trkpt lat="40.88326" lon="-3.68683">
        <ele>1792.03</ele>
        <time>2015-01-03T09:20:43Z</time>
      </trkpt>
      <trkpt lat="40.88336" lon="-3.68663">
        <ele>1790.11</ele>
        <time>2015-01-03T09:20:56Z</time>
      </trkpt>
      <trkpt lat="40.88346" lon="-3.68629">
        <ele>1789.15</ele>
        <time>2015-01-03T09:21:15Z</time>
      </trkpt>
      <trkpt lat="40.88348" lon="-3.68611">
        <ele>1790.59</ele>
        <time>2015-01-03T09:21:25Z</time>
      </trkpt>
      <trkpt lat="40.8835" lon="-3.68587">
        <ele>1792.03</ele>
        <time>2015-01-03T09:21:39Z</time>
      </trkpt>
      <trkpt lat="40.88357" lon="-3.68562">
        <ele>1793.48</ele>
        <time>2015-01-03T09:21:55Z</time>
      </trkpt>
      <trkpt lat="40.88367" lon="-3.68533">
        <ele>1794.44</ele>
        <time>2015-01-03T09:22:13Z</time>
      </trkpt>
      <trkpt lat="40.8837" lon="-3.68503">
        <ele>1795.88</ele>
        <time>2015-01-03T09:22:30Z</time>
      </trkpt>
      <trkpt lat="40.88378" lon="-3.68486">
        <ele>1798.28</ele>
        <time>2015-01-03T09:22:43Z</time>
      </trkpt>
      <trkpt lat="40.88384" lon="-3.68468">
        <ele>1800.21</ele>
        <time>2015-01-03T09:22:56Z</time>
      </trkpt>
      <trkpt lat="40.88394" lon="-3.68439">
        <ele>1800.21</ele>
        <time>2015-01-03T09:23:14Z</time>
      </trkpt>
      <trkpt lat="40.88403" lon="-3.68403">
        <ele>1800.69</ele>
        <time>2015-01-03T09:23:35Z</time>
      </trkpt>
      <trkpt lat="40.88415" lon="-3.6838">
        <ele>1802.13</ele>
        <time>2015-01-03T09:23:50Z</time>
      </trkpt>
      <trkpt lat="40.88425" lon="-3.68358">
        <ele>1803.57</ele>
        <time>2015-01-03T09:24:06Z</time>
      </trkpt>
      <trkpt lat="40.88434" lon="-3.68323">
        <ele>1804.53</ele>
        <time>2015-01-03T09:24:26Z</time>
      </trkpt>
      <trkpt lat="40.88446" lon="-3.68294">
        <ele>1805.01</ele>
        <time>2015-01-03T09:24:44Z</time>
      </trkpt>
      <trkpt lat="40.8846" lon="-3.68272">
        <ele>1806.94</ele>
        <time>2015-01-03T09:25:02Z</time>
      </trkpt>
      <trkpt lat="40.8847" lon="-3.6825">
        <ele>1808.38</ele>
        <time>2015-01-03T09:25:18Z</time>
      </trkpt>
      <trkpt lat="40.88478" lon="-3.68231">
        <ele>1810.3</ele>
        <time>2015-01-03T09:25:32Z</time>
      </trkpt>
      <trkpt lat="40.8849" lon="-3.68208">
        <ele>1811.26</ele>
        <time>2015-01-03T09:25:48Z</time>
      </trkpt>
      <trkpt lat="40.88505" lon="-3.68182">
        <ele>1812.22</ele>
        <time>2015-01-03T09:26:06Z</time>
      </trkpt>
      <trkpt lat="40.88518" lon="-3.68163">
        <ele>1814.15</ele>
        <time>2015-01-03T09:26:21Z</time>
      </trkpt>
      <trkpt lat="40.88521" lon="-3.68159">
        <ele>1814.63</ele>
        <time>2015-01-03T09:26:25Z</time>
      </trkpt>
      <trkpt lat="40.88529" lon="-3.6814">
        <ele>1816.55</ele>
        <time>2015-01-03T09:26:39Z</time>
      </trkpt>
      <trkpt lat="40.88532" lon="-3.68137">
        <ele>1816.55</ele>
        <time>2015-01-03T09:26:43Z</time>
      </trkpt>
      <trkpt lat="40.8854" lon="-3.6813">
        <ele>1817.99</ele>
        <time>2015-01-03T09:26:57Z</time>
      </trkpt>
      <trkpt lat="40.88557" lon="-3.68119">
        <ele>1819.43</ele>
        <time>2015-01-03T09:27:12Z</time>
      </trkpt>
      <trkpt lat="40.88561" lon="-3.68112">
        <ele>1819.43</ele>
        <time>2015-01-03T09:27:18Z</time>
      </trkpt>
      <trkpt lat="40.88565" lon="-3.68096">
        <ele>1823.76</ele>
        <time>2015-01-03T09:27:34Z</time>
      </trkpt>
      <trkpt lat="40.88565" lon="-3.68091">
        <ele>1824.24</ele>
        <time>2015-01-03T09:27:38Z</time>
      </trkpt>
      <trkpt lat="40.88565" lon="-3.68088">
        <ele>1825.2</ele>
        <time>2015-01-03T09:27:40Z</time>
      </trkpt>
      <trkpt lat="40.88566" lon="-3.68085">
        <ele>1825.2</ele>
        <time>2015-01-03T09:27:42Z</time>
      </trkpt>
      <trkpt lat="40.88565" lon="-3.68082">
        <ele>1825.68</ele>
        <time>2015-01-03T09:27:45Z</time>
      </trkpt>
      <trkpt lat="40.88563" lon="-3.68074">
        <ele>1826.64</ele>
        <time>2015-01-03T09:27:51Z</time>
      </trkpt>
      <trkpt lat="40.88566" lon="-3.6807">
        <ele>1827.12</ele>
        <time>2015-01-03T09:27:56Z</time>
      </trkpt>
      <trkpt lat="40.88573" lon="-3.68059">
        <ele>1828.56</ele>
        <time>2015-01-03T09:28:08Z</time>
      </trkpt>
      <trkpt lat="40.88578" lon="-3.68059">
        <ele>1829.53</ele>
        <time>2015-01-03T09:28:14Z</time>
      </trkpt>
      <trkpt lat="40.88579" lon="-3.68056">
        <ele>1830.01</ele>
        <time>2015-01-03T09:28:16Z</time>
      </trkpt>
      <trkpt lat="40.88588" lon="-3.68054">
        <ele>1829.53</ele>
        <time>2015-01-03T09:28:24Z</time>
      </trkpt>
      <trkpt lat="40.88604" lon="-3.6805">
        <ele>1829.05</ele>
        <time>2015-01-03T09:28:38Z</time>
      </trkpt>
      <trkpt lat="40.88611" lon="-3.68042">
        <ele>1830.49</ele>
        <time>2015-01-03T09:28:46Z</time>
      </trkpt>
      <trkpt lat="40.88616" lon="-3.68038">
        <ele>1830.97</ele>
        <time>2015-01-03T09:28:51Z</time>
      </trkpt>
      <trkpt lat="40.88619" lon="-3.68036">
        <ele>1830.49</ele>
        <time>2015-01-03T09:28:54Z</time>
      </trkpt>
      <trkpt lat="40.88626" lon="-3.68023">
        <ele>1830.97</ele>
        <time>2015-01-03T09:29:04Z</time>
      </trkpt>
      <trkpt lat="40.88627" lon="-3.68019">
        <ele>1831.93</ele>
        <time>2015-01-03T09:29:07Z</time>
      </trkpt>
      <trkpt lat="40.88634" lon="-3.68002">
        <ele>1834.33</ele>
        <time>2015-01-03T09:29:21Z</time>
      </trkpt>
      <trkpt lat="40.88637" lon="-3.67996">
        <ele>1835.29</ele>
        <time>2015-01-03T09:29:32Z</time>
      </trkpt>
      <trkpt lat="40.88635" lon="-3.67998">
        <ele>1835.77</ele>
        <time>2015-01-03T09:29:45Z</time>
      </trkpt>
      <trkpt lat="40.88633" lon="-3.67996">
        <ele>1835.77</ele>
        <time>2015-01-03T09:30:04Z</time>
      </trkpt>
      <trkpt lat="40.88633" lon="-3.67998">
        <ele>1836.26</ele>
        <time>2015-01-03T09:30:24Z</time>
      </trkpt>
      <trkpt lat="40.88635" lon="-3.67997">
        <ele>1835.77</ele>
        <time>2015-01-03T09:30:47Z</time>
      </trkpt>
      <trkpt lat="40.88636" lon="-3.67995">
        <ele>1836.26</ele>
        <time>2015-01-03T09:31:12Z</time>
      </trkpt>
      <trkpt lat="40.88635" lon="-3.67991">
        <ele>1835.77</ele>
        <time>2015-01-03T09:31:21Z</time>
      </trkpt>
      <trkpt lat="40.88632" lon="-3.6799">
        <ele>1836.26</ele>
        <time>2015-01-03T09:31:49Z</time>
      </trkpt>
      <trkpt lat="40.88635" lon="-3.67996">
        <ele>1835.77</ele>
        <time>2015-01-03T09:32:06Z</time>
      </trkpt>
      <trkpt lat="40.88635" lon="-3.67995">
        <ele>1835.77</ele>
        <time>2015-01-03T09:32:24Z</time>
      </trkpt>
      <trkpt lat="40.88633" lon="-3.67994">
        <ele>1835.77</ele>
        <time>2015-01-03T09:32:43Z</time>
      </trkpt>
      <trkpt lat="40.88634" lon="-3.67995">
        <ele>1834.81</ele>
        <time>2015-01-03T09:32:54Z</time>
      </trkpt>
      <trkpt lat="40.88633" lon="-3.67994">
        <ele>1834.81</ele>
        <time>2015-01-03T09:33:24Z</time>
      </trkpt>
      <trkpt lat="40.88632" lon="-3.67993">
        <ele>1834.81</ele>
        <time>2015-01-03T09:34:12Z</time>
      </trkpt>
      <trkpt lat="40.88633" lon="-3.67993">
        <ele>1835.29</ele>
        <time>2015-01-03T09:34:58Z</time>
      </trkpt>
      <trkpt lat="40.88633" lon="-3.67994">
        <ele>1834.81</ele>
        <time>2015-01-03T09:35:47Z</time>
      </trkpt>
      <trkpt lat="40.88632" lon="-3.67994">
        <ele>1835.29</ele>
        <time>2015-01-03T09:36:27Z</time>
      </trkpt>
      <trkpt lat="40.88633" lon="-3.67994">
        <ele>1835.29</ele>
        <time>2015-01-03T09:37:09Z</time>
      </trkpt>
      <trkpt lat="40.88633" lon="-3.67994">
        <ele>1835.29</ele>
        <time>2015-01-03T09:37:43Z</time>
      </trkpt>
      <trkpt lat="40.88634" lon="-3.67995">
        <ele>1835.29</ele>
        <time>2015-01-03T09:38:28Z</time>
      </trkpt>
      <trkpt lat="40.88634" lon="-3.67995">
        <ele>1835.29</ele>
        <time>2015-01-03T09:39:03Z</time>
      </trkpt>
      <trkpt lat="40.88633" lon="-3.67994">
        <ele>1835.77</ele>
        <time>2015-01-03T09:39:44Z</time>
      </trkpt>
      <trkpt lat="40.88633" lon="-3.67995">
        <ele>1835.77</ele>
        <time>2015-01-03T09:40:22Z</time>
      </trkpt>
      <trkpt lat="40.88634" lon="-3.67995">
        <ele>1835.77</ele>
        <time>2015-01-03T09:40:58Z</time>
      </trkpt>
      <trkpt lat="40.88633" lon="-3.67995">
        <ele>1836.26</ele>
        <time>2015-01-03T09:41:38Z</time>
      </trkpt>
      <trkpt lat="40.88631" lon="-3.67996">
        <ele>1836.26</ele>
        <time>2015-01-03T09:42:14Z</time>
      </trkpt>
      <trkpt lat="40.88631" lon="-3.67996">
        <ele>1836.26</ele>
        <time>2015-01-03T09:43:01Z</time>
      </trkpt>
      <trkpt lat="40.88633" lon="-3.67994">
        <ele>1836.74</ele>
        <time>2015-01-03T09:43:45Z</time>
      </trkpt>
      <trkpt lat="40.88632" lon="-3.67995">
        <ele>1836.74</ele>
        <time>2015-01-03T09:44:37Z</time>
      </trkpt>
      <trkpt lat="40.88631" lon="-3.67993">
        <ele>1836.74</ele>
        <time>2015-01-03T09:45:23Z</time>
      </trkpt>
      <trkpt lat="40.88632" lon="-3.67995">
        <ele>1836.74</ele>
        <time>2015-01-03T09:45:55Z</time>
      </trkpt>
      <trkpt lat="40.88632" lon="-3.67995">
        <ele>1836.74</ele>
        <time>2015-01-03T09:46:41Z</time>
      </trkpt>
      <trkpt lat="40.88633" lon="-3.67995">
        <ele>1836.74</ele>
        <time>2015-01-03T09:46:50Z</time>
      </trkpt>
      <trkpt lat="40.88631" lon="-3.67992">
        <ele>1837.7</ele>
        <time>2015-01-03T09:47:02Z</time>
      </trkpt>
      <trkpt lat="40.88629" lon="-3.67992">
        <ele>1837.7</ele>
        <time>2015-01-03T09:47:15Z</time>
      </trkpt>
      <trkpt lat="40.88632" lon="-3.67997">
        <ele>1837.7</ele>
        <time>2015-01-03T09:47:33Z</time>
      </trkpt>
      <trkpt lat="40.88632" lon="-3.67997">
        <ele>1837.22</ele>
        <time>2015-01-03T09:47:36Z</time>
      </trkpt>
      <trkpt lat="40.88629" lon="-3.67997">
        <ele>1837.7</ele>
        <time>2015-01-03T09:47:39Z</time>
      </trkpt>
      <trkpt lat="40.88627" lon="-3.68002">
        <ele>1836.26</ele>
        <time>2015-01-03T09:47:44Z</time>
      </trkpt>
      <trkpt lat="40.88623" lon="-3.68016">
        <ele>1834.81</ele>
        <time>2015-01-03T09:47:54Z</time>
      </trkpt>
      <trkpt lat="40.88619" lon="-3.6803">
        <ele>1832.89</ele>
        <time>2015-01-03T09:48:08Z</time>
      </trkpt>
      <trkpt lat="40.8862" lon="-3.68034">
        <ele>1833.37</ele>
        <time>2015-01-03T09:48:16Z</time>
      </trkpt>
      <trkpt lat="40.88635" lon="-3.68049">
        <ele>1830.01</ele>
        <time>2015-01-03T09:48:31Z</time>
      </trkpt>
      <trkpt lat="40.88638" lon="-3.68049">
        <ele>1829.53</ele>
        <time>2015-01-03T09:48:34Z</time>
      </trkpt>
      <trkpt lat="40.88643" lon="-3.6805">
        <ele>1829.53</ele>
        <time>2015-01-03T09:48:38Z</time>
      </trkpt>
      <trkpt lat="40.88647" lon="-3.68047">
        <ele>1829.05</ele>
        <time>2015-01-03T09:48:42Z</time>
      </trkpt>
      <trkpt lat="40.88655" lon="-3.68041">
        <ele>1828.56</ele>
        <time>2015-01-03T09:48:49Z</time>
      </trkpt>
      <trkpt lat="40.88664" lon="-3.68041">
        <ele>1826.16</ele>
        <time>2015-01-03T09:48:57Z</time>
      </trkpt>
      <trkpt lat="40.88668" lon="-3.68038">
        <ele>1824.72</ele>
        <time>2015-01-03T09:49:02Z</time>
      </trkpt>
      <trkpt lat="40.88684" lon="-3.68026">
        <ele>1821.84</ele>
        <time>2015-01-03T09:49:16Z</time>
      </trkpt>
      <trkpt lat="40.88689" lon="-3.68021">
        <ele>1820.87</ele>
        <time>2015-01-03T09:49:20Z</time>
      </trkpt>
      <trkpt lat="40.88696" lon="-3.68012">
        <ele>1819.43</ele>
        <time>2015-01-03T09:49:27Z</time>
      </trkpt>
      <trkpt lat="40.88702" lon="-3.68005">
        <ele>1817.99</ele>
        <time>2015-01-03T09:49:34Z</time>
      </trkpt>
      <trkpt lat="40.88708" lon="-3.68001">
        <ele>1817.03</ele>
        <time>2015-01-03T09:49:39Z</time>
      </trkpt>
      <trkpt lat="40.88722" lon="-3.67986">
        <ele>1813.66</ele>
        <time>2015-01-03T09:49:53Z</time>
      </trkpt>
      <trkpt lat="40.88735" lon="-3.67972">
        <ele>1810.78</ele>
        <time>2015-01-03T09:50:07Z</time>
      </trkpt>
      <trkpt lat="40.88748" lon="-3.67961">
        <ele>1807.42</ele>
        <time>2015-01-03T09:50:21Z</time>
      </trkpt>
      <trkpt lat="40.88751" lon="-3.67956">
        <ele>1806.45</ele>
        <time>2015-01-03T09:50:26Z</time>
      </trkpt>
      <trkpt lat="40.88755" lon="-3.6795">
        <ele>1805.01</ele>
        <time>2015-01-03T09:50:31Z</time>
      </trkpt>
      <trkpt lat="40.88763" lon="-3.67942">
        <ele>1803.09</ele>
        <time>2015-01-03T09:50:40Z</time>
      </trkpt>
      <trkpt lat="40.88772" lon="-3.67924">
        <ele>1799.73</ele>
        <time>2015-01-03T09:50:56Z</time>
      </trkpt>
      <trkpt lat="40.88778" lon="-3.67899">
        <ele>1797.32</ele>
        <time>2015-01-03T09:51:12Z</time>
      </trkpt>
      <trkpt lat="40.88779" lon="-3.67892">
        <ele>1796.84</ele>
        <time>2015-01-03T09:51:16Z</time>
      </trkpt>
      <trkpt lat="40.88783" lon="-3.67882">
        <ele>1795.4</ele>
        <time>2015-01-03T09:51:23Z</time>
      </trkpt>
      <trkpt lat="40.88794" lon="-3.6786">
        <ele>1792.52</ele>
        <time>2015-01-03T09:51:39Z</time>
      </trkpt>
      <trkpt lat="40.8881" lon="-3.67843">
        <ele>1789.63</ele>
        <time>2015-01-03T09:51:55Z</time>
      </trkpt>
      <trkpt lat="40.88822" lon="-3.67818">
        <ele>1789.63</ele>
        <time>2015-01-03T09:52:11Z</time>
      </trkpt>
      <trkpt lat="40.88823" lon="-3.67817">
        <ele>1789.63</ele>
        <time>2015-01-03T09:52:12Z</time>
      </trkpt>
      <trkpt lat="40.88829" lon="-3.6781">
        <ele>1788.67</ele>
        <time>2015-01-03T09:52:19Z</time>
      </trkpt>
      <trkpt lat="40.88833" lon="-3.67807">
        <ele>1788.67</ele>
        <time>2015-01-03T09:52:23Z</time>
      </trkpt>
      <trkpt lat="40.88837" lon="-3.67806">
        <ele>1785.31</ele>
        <time>2015-01-03T09:52:28Z</time>
      </trkpt>
      <trkpt lat="40.88838" lon="-3.67806">
        <ele>1786.75</ele>
        <time>2015-01-03T09:52:29Z</time>
      </trkpt>
      <trkpt lat="40.88841" lon="-3.67806">
        <ele>1785.31</ele>
        <time>2015-01-03T09:52:32Z</time>
      </trkpt>
      <trkpt lat="40.88844" lon="-3.67807">
        <ele>1784.82</ele>
        <time>2015-01-03T09:52:35Z</time>
      </trkpt>
      <trkpt lat="40.88846" lon="-3.67804">
        <ele>1783.86</ele>
        <time>2015-01-03T09:52:39Z</time>
      </trkpt>
      <trkpt lat="40.88853" lon="-3.67801">
        <ele>1782.42</ele>
        <time>2015-01-03T09:52:45Z</time>
      </trkpt>
      <trkpt lat="40.88869" lon="-3.67786">
        <ele>1780.02</ele>
        <time>2015-01-03T09:53:01Z</time>
      </trkpt>
      <trkpt lat="40.88871" lon="-3.67785">
        <ele>1779.54</ele>
        <time>2015-01-03T09:53:02Z</time>
      </trkpt>
      <trkpt lat="40.88874" lon="-3.67784">
        <ele>1779.54</ele>
        <time>2015-01-03T09:53:05Z</time>
      </trkpt>
      <trkpt lat="40.88879" lon="-3.67784">
        <ele>1778.58</ele>
        <time>2015-01-03T09:53:09Z</time>
      </trkpt>
      <trkpt lat="40.88893" lon="-3.67778">
        <ele>1775.69</ele>
        <time>2015-01-03T09:53:22Z</time>
      </trkpt>
      <trkpt lat="40.88901" lon="-3.67773">
        <ele>1774.25</ele>
        <time>2015-01-03T09:53:29Z</time>
      </trkpt>
      <trkpt lat="40.88925" lon="-3.6775">
        <ele>1770.89</ele>
        <time>2015-01-03T09:53:50Z</time>
      </trkpt>
      <trkpt lat="40.88942" lon="-3.67728">
        <ele>1769.92</ele>
        <time>2015-01-03T09:54:07Z</time>
      </trkpt>
      <trkpt lat="40.88957" lon="-3.67701">
        <ele>1768.96</ele>
        <time>2015-01-03T09:54:25Z</time>
      </trkpt>
      <trkpt lat="40.88975" lon="-3.67693">
        <ele>1766.08</ele>
        <time>2015-01-03T09:54:40Z</time>
      </trkpt>
      <trkpt lat="40.88977" lon="-3.67693">
        <ele>1765.6</ele>
        <time>2015-01-03T09:54:42Z</time>
      </trkpt>
      <trkpt lat="40.8899" lon="-3.67685">
        <ele>1763.2</ele>
        <time>2015-01-03T09:54:54Z</time>
      </trkpt>
      <trkpt lat="40.89006" lon="-3.67677">
        <ele>1759.35</ele>
        <time>2015-01-03T09:55:08Z</time>
      </trkpt>
      <trkpt lat="40.89023" lon="-3.67674">
        <ele>1756.47</ele>
        <time>2015-01-03T09:55:21Z</time>
      </trkpt>
      <trkpt lat="40.89037" lon="-3.67668">
        <ele>1753.1</ele>
        <time>2015-01-03T09:55:33Z</time>
      </trkpt>
      <trkpt lat="40.8906" lon="-3.67668">
        <ele>1750.22</ele>
        <time>2015-01-03T09:55:49Z</time>
      </trkpt>
      <trkpt lat="40.89084" lon="-3.67662">
        <ele>1748.29</ele>
        <time>2015-01-03T09:56:06Z</time>
      </trkpt>
      <trkpt lat="40.89108" lon="-3.6765">
        <ele>1746.85</ele>
        <time>2015-01-03T09:56:24Z</time>
      </trkpt>
      <trkpt lat="40.89129" lon="-3.67636">
        <ele>1746.37</ele>
        <time>2015-01-03T09:56:41Z</time>
      </trkpt>
      <trkpt lat="40.89152" lon="-3.67614">
        <ele>1745.41</ele>
        <time>2015-01-03T09:57:00Z</time>
      </trkpt>
      <trkpt lat="40.89168" lon="-3.67597">
        <ele>1746.85</ele>
        <time>2015-01-03T09:57:15Z</time>
      </trkpt>
      <trkpt lat="40.89183" lon="-3.6758">
        <ele>1748.29</ele>
        <time>2015-01-03T09:57:30Z</time>
      </trkpt>
      <trkpt lat="40.89198" lon="-3.67554">
        <ele>1748.29</ele>
        <time>2015-01-03T09:57:49Z</time>
      </trkpt>
      <trkpt lat="40.89213" lon="-3.6753">
        <ele>1747.33</ele>
        <time>2015-01-03T09:58:07Z</time>
      </trkpt>
      <trkpt lat="40.89208" lon="-3.67515">
        <ele>1746.37</ele>
        <time>2015-01-03T09:58:15Z</time>
      </trkpt>
      <trkpt lat="40.89206" lon="-3.67512">
        <ele>1745.89</ele>
        <time>2015-01-03T09:58:17Z</time>
      </trkpt>
      <trkpt lat="40.89201" lon="-3.67486">
        <ele>1743.49</ele>
        <time>2015-01-03T09:58:31Z</time>
      </trkpt>
      <trkpt lat="40.89195" lon="-3.67478">
        <ele>1741.57</ele>
        <time>2015-01-03T09:58:38Z</time>
      </trkpt>
      <trkpt lat="40.8919" lon="-3.67474">
        <ele>1739.64</ele>
        <time>2015-01-03T09:58:43Z</time>
      </trkpt>
      <trkpt lat="40.89187" lon="-3.67465">
        <ele>1737.24</ele>
        <time>2015-01-03T09:58:51Z</time>
      </trkpt>
      <trkpt lat="40.89179" lon="-3.67458">
        <ele>1734.36</ele>
        <time>2015-01-03T09:59:00Z</time>
      </trkpt>
      <trkpt lat="40.89174" lon="-3.67454">
        <ele>1731.95</ele>
        <time>2015-01-03T09:59:07Z</time>
      </trkpt>
      <trkpt lat="40.89172" lon="-3.67444">
        <ele>1728.59</ele>
        <time>2015-01-03T09:59:17Z</time>
      </trkpt>
      <trkpt lat="40.89173" lon="-3.67442">
        <ele>1728.11</ele>
        <time>2015-01-03T09:59:19Z</time>
      </trkpt>
      <trkpt lat="40.89174" lon="-3.67439">
        <ele>1726.67</ele>
        <time>2015-01-03T09:59:23Z</time>
      </trkpt>
      <trkpt lat="40.89172" lon="-3.6743">
        <ele>1723.78</ele>
        <time>2015-01-03T09:59:32Z</time>
      </trkpt>
      <trkpt lat="40.89173" lon="-3.67418">
        <ele>1720.42</ele>
        <time>2015-01-03T09:59:44Z</time>
      </trkpt>
      <trkpt lat="40.89173" lon="-3.67409">
        <ele>1717.05</ele>
        <time>2015-01-03T09:59:54Z</time>
      </trkpt>
      <trkpt lat="40.89172" lon="-3.67398">
        <ele>1714.17</ele>
        <time>2015-01-03T10:00:03Z</time>
      </trkpt>
      <trkpt lat="40.89172" lon="-3.67385">
        <ele>1710.32</ele>
        <time>2015-01-03T10:00:13Z</time>
      </trkpt>
      <trkpt lat="40.8917" lon="-3.67373">
        <ele>1706.96</ele>
        <time>2015-01-03T10:00:23Z</time>
      </trkpt>
      <trkpt lat="40.8917" lon="-3.6737">
        <ele>1706.96</ele>
        <time>2015-01-03T10:00:25Z</time>
      </trkpt>
      <trkpt lat="40.89164" lon="-3.67359">
        <ele>1704.07</ele>
        <time>2015-01-03T10:00:32Z</time>
      </trkpt>
      <trkpt lat="40.89158" lon="-3.67353">
        <ele>1702.15</ele>
        <time>2015-01-03T10:00:38Z</time>
      </trkpt>
      <trkpt lat="40.89152" lon="-3.67342">
        <ele>1698.79</ele>
        <time>2015-01-03T10:00:48Z</time>
      </trkpt>
      <trkpt lat="40.89151" lon="-3.67341">
        <ele>1698.31</ele>
        <time>2015-01-03T10:00:49Z</time>
      </trkpt>
      <trkpt lat="40.89148" lon="-3.67334">
        <ele>1696.86</ele>
        <time>2015-01-03T10:00:54Z</time>
      </trkpt>
      <trkpt lat="40.89144" lon="-3.67328">
        <ele>1695.42</ele>
        <time>2015-01-03T10:00:59Z</time>
      </trkpt>
      <trkpt lat="40.89143" lon="-3.67314">
        <ele>1692.06</ele>
        <time>2015-01-03T10:01:12Z</time>
      </trkpt>
      <trkpt lat="40.89142" lon="-3.67306">
        <ele>1690.62</ele>
        <time>2015-01-03T10:01:25Z</time>
      </trkpt>
      <trkpt lat="40.89138" lon="-3.67296">
        <ele>1687.73</ele>
        <time>2015-01-03T10:01:40Z</time>
      </trkpt>
      <trkpt lat="40.8913" lon="-3.67287">
        <ele>1684.85</ele>
        <time>2015-01-03T10:01:53Z</time>
      </trkpt>
      <trkpt lat="40.89128" lon="-3.67278">
        <ele>1681.48</ele>
        <time>2015-01-03T10:02:04Z</time>
      </trkpt>
      <trkpt lat="40.89126" lon="-3.67275">
        <ele>1680.52</ele>
        <time>2015-01-03T10:02:09Z</time>
      </trkpt>
      <trkpt lat="40.89128" lon="-3.67265">
        <ele>1676.68</ele>
        <time>2015-01-03T10:02:22Z</time>
      </trkpt>
      <trkpt lat="40.89129" lon="-3.67253">
        <ele>1673.79</ele>
        <time>2015-01-03T10:02:34Z</time>
      </trkpt>
      <trkpt lat="40.89127" lon="-3.67245">
        <ele>1670.91</ele>
        <time>2015-01-03T10:02:46Z</time>
      </trkpt>
      <trkpt lat="40.89131" lon="-3.67235">
        <ele>1668.02</ele>
        <time>2015-01-03T10:02:59Z</time>
      </trkpt>
      <trkpt lat="40.89134" lon="-3.67224">
        <ele>1664.66</ele>
        <time>2015-01-03T10:03:12Z</time>
      </trkpt>
      <trkpt lat="40.89136" lon="-3.6721">
        <ele>1662.26</ele>
        <time>2015-01-03T10:03:24Z</time>
      </trkpt>
      <trkpt lat="40.89133" lon="-3.67197">
        <ele>1659.37</ele>
        <time>2015-01-03T10:03:36Z</time>
      </trkpt>
      <trkpt lat="40.8913" lon="-3.67193">
        <ele>1658.41</ele>
        <time>2015-01-03T10:03:40Z</time>
      </trkpt>
      <trkpt lat="40.89122" lon="-3.6718">
        <ele>1654.57</ele>
        <time>2015-01-03T10:03:57Z</time>
      </trkpt>
      <trkpt lat="40.89117" lon="-3.67166">
        <ele>1651.2</ele>
        <time>2015-01-03T10:04:08Z</time>
      </trkpt>
      <trkpt lat="40.89111" lon="-3.67155">
        <ele>1648.8</ele>
        <time>2015-01-03T10:04:18Z</time>
      </trkpt>
      <trkpt lat="40.89104" lon="-3.67153">
        <ele>1647.36</ele>
        <time>2015-01-03T10:04:23Z</time>
      </trkpt>
      <trkpt lat="40.89091" lon="-3.67159">
        <ele>1643.99</ele>
        <time>2015-01-03T10:04:36Z</time>
      </trkpt>
      <trkpt lat="40.89079" lon="-3.67157">
        <ele>1641.11</ele>
        <time>2015-01-03T10:04:51Z</time>
      </trkpt>
      <trkpt lat="40.8907" lon="-3.67154">
        <ele>1637.74</ele>
        <time>2015-01-03T10:05:07Z</time>
      </trkpt>
      <trkpt lat="40.89062" lon="-3.67155">
        <ele>1634.86</ele>
        <time>2015-01-03T10:05:18Z</time>
      </trkpt>
      <trkpt lat="40.89054" lon="-3.67157">
        <ele>1631.49</ele>
        <time>2015-01-03T10:05:27Z</time>
      </trkpt>
      <trkpt lat="40.89045" lon="-3.67162">
        <ele>1629.09</ele>
        <time>2015-01-03T10:05:37Z</time>
      </trkpt>
      <trkpt lat="40.89033" lon="-3.67169">
        <ele>1625.73</ele>
        <time>2015-01-03T10:05:51Z</time>
      </trkpt>
      <trkpt lat="40.89025" lon="-3.67167">
        <ele>1622.36</ele>
        <time>2015-01-03T10:06:03Z</time>
      </trkpt>
      <trkpt lat="40.89022" lon="-3.67162">
        <ele>1619.48</ele>
        <time>2015-01-03T10:06:15Z</time>
      </trkpt>
      <trkpt lat="40.89018" lon="-3.67157">
        <ele>1616.59</ele>
        <time>2015-01-03T10:06:26Z</time>
      </trkpt>
      <trkpt lat="40.89015" lon="-3.67148">
        <ele>1613.23</ele>
        <time>2015-01-03T10:06:37Z</time>
      </trkpt>
      <trkpt lat="40.8901" lon="-3.67137">
        <ele>1610.35</ele>
        <time>2015-01-03T10:06:49Z</time>
      </trkpt>
      <trkpt lat="40.89005" lon="-3.67126">
        <ele>1606.98</ele>
        <time>2015-01-03T10:07:00Z</time>
      </trkpt>
      <trkpt lat="40.88995" lon="-3.67124">
        <ele>1604.58</ele>
        <time>2015-01-03T10:07:13Z</time>
      </trkpt>
      <trkpt lat="40.8899" lon="-3.67122">
        <ele>1602.17</ele>
        <time>2015-01-03T10:07:24Z</time>
      </trkpt>
      <trkpt lat="40.88984" lon="-3.67125">
        <ele>1599.77</ele>
        <time>2015-01-03T10:07:36Z</time>
      </trkpt>
      <trkpt lat="40.8898" lon="-3.67131">
        <ele>1596.89</ele>
        <time>2015-01-03T10:07:48Z</time>
      </trkpt>
      <trkpt lat="40.88976" lon="-3.67136">
        <ele>1594.48</ele>
        <time>2015-01-03T10:08:01Z</time>
      </trkpt>
      <trkpt lat="40.88971" lon="-3.67139">
        <ele>1591.12</ele>
        <time>2015-01-03T10:08:13Z</time>
      </trkpt>
      <trkpt lat="40.88965" lon="-3.6714">
        <ele>1588.24</ele>
        <time>2015-01-03T10:08:26Z</time>
      </trkpt>
      <trkpt lat="40.88958" lon="-3.67142">
        <ele>1585.83</ele>
        <time>2015-01-03T10:08:36Z</time>
      </trkpt>
      <trkpt lat="40.88948" lon="-3.67148">
        <ele>1582.47</ele>
        <time>2015-01-03T10:08:48Z</time>
      </trkpt>
      <trkpt lat="40.88944" lon="-3.67154">
        <ele>1581.51</ele>
        <time>2015-01-03T10:08:54Z</time>
      </trkpt>
      <trkpt lat="40.88933" lon="-3.67167">
        <ele>1578.14</ele>
        <time>2015-01-03T10:09:09Z</time>
      </trkpt>
      <trkpt lat="40.88925" lon="-3.67186">
        <ele>1576.7</ele>
        <time>2015-01-03T10:09:23Z</time>
      </trkpt>
      <trkpt lat="40.88921" lon="-3.67193">
        <ele>1576.7</ele>
        <time>2015-01-03T10:09:28Z</time>
      </trkpt>
      <trkpt lat="40.88917" lon="-3.67198">
        <ele>1576.22</ele>
        <time>2015-01-03T10:09:33Z</time>
      </trkpt>
      <trkpt lat="40.88903" lon="-3.67202">
        <ele>1573.33</ele>
        <time>2015-01-03T10:09:47Z</time>
      </trkpt>
      <trkpt lat="40.88896" lon="-3.67202">
        <ele>1572.37</ele>
        <time>2015-01-03T10:09:51Z</time>
      </trkpt>
      <trkpt lat="40.88883" lon="-3.67212">
        <ele>1571.41</ele>
        <time>2015-01-03T10:10:02Z</time>
      </trkpt>
      <trkpt lat="40.88871" lon="-3.67214">
        <ele>1569.01</ele>
        <time>2015-01-03T10:10:14Z</time>
      </trkpt>
      <trkpt lat="40.88871" lon="-3.67212">
        <ele>1568.53</ele>
        <time>2015-01-03T10:10:17Z</time>
      </trkpt>
      <trkpt lat="40.88868" lon="-3.67209">
        <ele>1567.09</ele>
        <time>2015-01-03T10:10:22Z</time>
      </trkpt>
      <trkpt lat="40.88864" lon="-3.67208">
        <ele>1566.12</ele>
        <time>2015-01-03T10:10:26Z</time>
      </trkpt>
      <trkpt lat="40.88851" lon="-3.67199">
        <ele>1562.76</ele>
        <time>2015-01-03T10:10:41Z</time>
      </trkpt>
      <trkpt lat="40.88844" lon="-3.67193">
        <ele>1559.88</ele>
        <time>2015-01-03T10:10:50Z</time>
      </trkpt>
      <trkpt lat="40.88835" lon="-3.67184">
        <ele>1556.99</ele>
        <time>2015-01-03T10:11:01Z</time>
      </trkpt>
      <trkpt lat="40.88826" lon="-3.67179">
        <ele>1553.63</ele>
        <time>2015-01-03T10:11:13Z</time>
      </trkpt>
      <trkpt lat="40.88822" lon="-3.67178">
        <ele>1552.19</ele>
        <time>2015-01-03T10:11:18Z</time>
      </trkpt>
      <trkpt lat="40.88811" lon="-3.67173">
        <ele>1548.34</ele>
        <time>2015-01-03T10:11:31Z</time>
      </trkpt>
      <trkpt lat="40.88807" lon="-3.67172">
        <ele>1546.42</ele>
        <time>2015-01-03T10:11:44Z</time>
      </trkpt>
      <trkpt lat="40.88802" lon="-3.6717">
        <ele>1544.98</ele>
        <time>2015-01-03T10:12:05Z</time>
      </trkpt>
      <trkpt lat="40.88794" lon="-3.67165">
        <ele>1542.09</ele>
        <time>2015-01-03T10:12:15Z</time>
      </trkpt>
      <trkpt lat="40.88785" lon="-3.67158">
        <ele>1539.21</ele>
        <time>2015-01-03T10:12:26Z</time>
      </trkpt>
      <trkpt lat="40.88783" lon="-3.67156">
        <ele>1538.25</ele>
        <time>2015-01-03T10:12:29Z</time>
      </trkpt>
      <trkpt lat="40.88772" lon="-3.67152">
        <ele>1534.88</ele>
        <time>2015-01-03T10:12:41Z</time>
      </trkpt>
      <trkpt lat="40.88759" lon="-3.67144">
        <ele>1531.52</ele>
        <time>2015-01-03T10:12:54Z</time>
      </trkpt>
      <trkpt lat="40.88756" lon="-3.67143">
        <ele>1531.04</ele>
        <time>2015-01-03T10:12:57Z</time>
      </trkpt>
      <trkpt lat="40.88743" lon="-3.67137">
        <ele>1528.15</ele>
        <time>2015-01-03T10:13:09Z</time>
      </trkpt>
      <trkpt lat="40.88742" lon="-3.67137">
        <ele>1527.67</ele>
        <time>2015-01-03T10:13:10Z</time>
      </trkpt>
      <trkpt lat="40.88731" lon="-3.67133">
        <ele>1525.75</ele>
        <time>2015-01-03T10:13:19Z</time>
      </trkpt>
      <trkpt lat="40.88714" lon="-3.67132">
        <ele>1523.83</ele>
        <time>2015-01-03T10:13:32Z</time>
      </trkpt>
      <trkpt lat="40.88712" lon="-3.67133">
        <ele>1524.31</ele>
        <time>2015-01-03T10:13:34Z</time>
      </trkpt>
      <trkpt lat="40.88699" lon="-3.67131">
        <ele>1522.39</ele>
        <time>2015-01-03T10:13:43Z</time>
      </trkpt>
      <trkpt lat="40.8869" lon="-3.67134">
        <ele>1521.9</ele>
        <time>2015-01-03T10:13:49Z</time>
      </trkpt>
      <trkpt lat="40.88686" lon="-3.67135">
        <ele>1520.94</ele>
        <time>2015-01-03T10:13:52Z</time>
      </trkpt>
      <trkpt lat="40.88678" lon="-3.67137">
        <ele>1519.5</ele>
        <time>2015-01-03T10:14:01Z</time>
      </trkpt>
      <trkpt lat="40.88678" lon="-3.67129">
        <ele>1516.14</ele>
        <time>2015-01-03T10:14:13Z</time>
      </trkpt>
      <trkpt lat="40.88688" lon="-3.67123">
        <ele>1512.77</ele>
        <time>2015-01-03T10:14:26Z</time>
      </trkpt>
      <trkpt lat="40.8869" lon="-3.67121">
        <ele>1511.81</ele>
        <time>2015-01-03T10:14:29Z</time>
      </trkpt>
      <trkpt lat="40.88698" lon="-3.67112">
        <ele>1509.89</ele>
        <time>2015-01-03T10:14:39Z</time>
      </trkpt>
      <trkpt lat="40.88709" lon="-3.67103">
        <ele>1507</ele>
        <time>2015-01-03T10:14:54Z</time>
      </trkpt>
      <trkpt lat="40.88721" lon="-3.67097">
        <ele>1504.6</ele>
        <time>2015-01-03T10:15:09Z</time>
      </trkpt>
      <trkpt lat="40.88717" lon="-3.67095">
        <ele>1503.64</ele>
        <time>2015-01-03T10:15:14Z</time>
      </trkpt>
      <trkpt lat="40.887" lon="-3.67088">
        <ele>1503.16</ele>
        <time>2015-01-03T10:15:29Z</time>
      </trkpt>
      <trkpt lat="40.88697" lon="-3.67087">
        <ele>1501.72</ele>
        <time>2015-01-03T10:15:32Z</time>
      </trkpt>
      <trkpt lat="40.88684" lon="-3.67084">
        <ele>1499.79</ele>
        <time>2015-01-03T10:15:42Z</time>
      </trkpt>
      <trkpt lat="40.88669" lon="-3.67082">
        <ele>1496.43</ele>
        <time>2015-01-03T10:15:53Z</time>
      </trkpt>
      <trkpt lat="40.88663" lon="-3.67082">
        <ele>1494.99</ele>
        <time>2015-01-03T10:15:57Z</time>
      </trkpt>
      <trkpt lat="40.88653" lon="-3.67085">
        <ele>1493.55</ele>
        <time>2015-01-03T10:16:04Z</time>
      </trkpt>
      <trkpt lat="40.88644" lon="-3.67085">
        <ele>1491.14</ele>
        <time>2015-01-03T10:16:11Z</time>
      </trkpt>
      <trkpt lat="40.88629" lon="-3.67089">
        <ele>1487.78</ele>
        <time>2015-01-03T10:16:24Z</time>
      </trkpt>
      <trkpt lat="40.88616" lon="-3.67091">
        <ele>1484.41</ele>
        <time>2015-01-03T10:16:35Z</time>
      </trkpt>
      <trkpt lat="40.88605" lon="-3.67095">
        <ele>1481.05</ele>
        <time>2015-01-03T10:16:47Z</time>
      </trkpt>
      <trkpt lat="40.88602" lon="-3.67096">
        <ele>1480.09</ele>
        <time>2015-01-03T10:16:51Z</time>
      </trkpt>
      <trkpt lat="40.88585" lon="-3.67101">
        <ele>1476.24</ele>
        <time>2015-01-03T10:17:06Z</time>
      </trkpt>
      <trkpt lat="40.88573" lon="-3.67108">
        <ele>1473.36</ele>
        <time>2015-01-03T10:17:18Z</time>
      </trkpt>
      <trkpt lat="40.88551" lon="-3.67116">
        <ele>1469.99</ele>
        <time>2015-01-03T10:17:32Z</time>
      </trkpt>
      <trkpt lat="40.88532" lon="-3.67127">
        <ele>1467.11</ele>
        <time>2015-01-03T10:17:47Z</time>
      </trkpt>
      <trkpt lat="40.88514" lon="-3.67134">
        <ele>1464.23</ele>
        <time>2015-01-03T10:18:01Z</time>
      </trkpt>
      <trkpt lat="40.88513" lon="-3.67134">
        <ele>1464.23</ele>
        <time>2015-01-03T10:18:02Z</time>
      </trkpt>
      <trkpt lat="40.88496" lon="-3.6714">
        <ele>1461.34</ele>
        <time>2015-01-03T10:18:14Z</time>
      </trkpt>
      <trkpt lat="40.88476" lon="-3.67151">
        <ele>1457.98</ele>
        <time>2015-01-03T10:18:29Z</time>
      </trkpt>
      <trkpt lat="40.88464" lon="-3.67158">
        <ele>1455.09</ele>
        <time>2015-01-03T10:18:42Z</time>
      </trkpt>
      <trkpt lat="40.88453" lon="-3.67162">
        <ele>1452.21</ele>
        <time>2015-01-03T10:18:52Z</time>
      </trkpt>
      <trkpt lat="40.88442" lon="-3.67169">
        <ele>1448.84</ele>
        <time>2015-01-03T10:19:03Z</time>
      </trkpt>
      <trkpt lat="40.88427" lon="-3.67174">
        <ele>1445.48</ele>
        <time>2015-01-03T10:19:15Z</time>
      </trkpt>
      <trkpt lat="40.88415" lon="-3.67182">
        <ele>1442.6</ele>
        <time>2015-01-03T10:19:26Z</time>
      </trkpt>
      <trkpt lat="40.88402" lon="-3.67196">
        <ele>1440.67</ele>
        <time>2015-01-03T10:19:39Z</time>
      </trkpt>
      <trkpt lat="40.88393" lon="-3.6722">
        <ele>1439.71</ele>
        <time>2015-01-03T10:19:55Z</time>
      </trkpt>
      <trkpt lat="40.88381" lon="-3.67246">
        <ele>1437.31</ele>
        <time>2015-01-03T10:20:13Z</time>
      </trkpt>
      <trkpt lat="40.88378" lon="-3.6725">
        <ele>1436.83</ele>
        <time>2015-01-03T10:20:16Z</time>
      </trkpt>
      <trkpt lat="40.8838" lon="-3.67253">
        <ele>1435.87</ele>
        <time>2015-01-03T10:20:26Z</time>
      </trkpt>
      <trkpt lat="40.88379" lon="-3.67251">
        <ele>1435.87</ele>
        <time>2015-01-03T10:20:50Z</time>
      </trkpt>
      <trkpt lat="40.88382" lon="-3.67253">
        <ele>1435.39</ele>
        <time>2015-01-03T10:21:21Z</time>
      </trkpt>
      <trkpt lat="40.88382" lon="-3.67253">
        <ele>1439.71</ele>
        <time>2015-01-03T10:21:26Z</time>
      </trkpt>
      <trkpt lat="40.88382" lon="-3.67253">
        <ele>1437.31</ele>
        <time>2015-01-03T10:21:27Z</time>
      </trkpt>
      <trkpt lat="40.88379" lon="-3.67253">
        <ele>1436.35</ele>
        <time>2015-01-03T10:21:36Z</time>
      </trkpt>
      <trkpt lat="40.88378" lon="-3.67252">
        <ele>1436.35</ele>
        <time>2015-01-03T10:21:37Z</time>
      </trkpt>
      <trkpt lat="40.88363" lon="-3.67263">
        <ele>1434.42</ele>
        <time>2015-01-03T10:21:51Z</time>
      </trkpt>
      <trkpt lat="40.8836" lon="-3.67265">
        <ele>1434.42</ele>
        <time>2015-01-03T10:21:54Z</time>
      </trkpt>
      <trkpt lat="40.88353" lon="-3.6727">
        <ele>1433.46</ele>
        <time>2015-01-03T10:22:00Z</time>
      </trkpt>
      <trkpt lat="40.88347" lon="-3.67271">
        <ele>1432.5</ele>
        <time>2015-01-03T10:22:05Z</time>
      </trkpt>
      <trkpt lat="40.8834" lon="-3.67274">
        <ele>1431.54</ele>
        <time>2015-01-03T10:22:10Z</time>
      </trkpt>
      <trkpt lat="40.88316" lon="-3.67285">
        <ele>1429.14</ele>
        <time>2015-01-03T10:22:26Z</time>
      </trkpt>
      <trkpt lat="40.88293" lon="-3.67297">
        <ele>1426.25</ele>
        <time>2015-01-03T10:22:42Z</time>
      </trkpt>
      <trkpt lat="40.88271" lon="-3.67307">
        <ele>1424.33</ele>
        <time>2015-01-03T10:22:57Z</time>
      </trkpt>
      <trkpt lat="40.88259" lon="-3.67313">
        <ele>1422.41</ele>
        <time>2015-01-03T10:23:06Z</time>
      </trkpt>
      <trkpt lat="40.88242" lon="-3.67334">
        <ele>1420</ele>
        <time>2015-01-03T10:23:20Z</time>
      </trkpt>
      <trkpt lat="40.88223" lon="-3.67362">
        <ele>1418.56</ele>
        <time>2015-01-03T10:23:37Z</time>
      </trkpt>
      <trkpt lat="40.88209" lon="-3.67387">
        <ele>1417.6</ele>
        <time>2015-01-03T10:23:52Z</time>
      </trkpt>
      <trkpt lat="40.88193" lon="-3.67416">
        <ele>1416.64</ele>
        <time>2015-01-03T10:24:11Z</time>
      </trkpt>
      <trkpt lat="40.88177" lon="-3.67419">
        <ele>1416.64</ele>
        <time>2015-01-03T10:24:24Z</time>
      </trkpt>
      <trkpt lat="40.88158" lon="-3.67414">
        <ele>1415.2</ele>
        <time>2015-01-03T10:24:39Z</time>
      </trkpt>
      <trkpt lat="40.88159" lon="-3.67414">
        <ele>1415.2</ele>
        <time>2015-01-03T10:24:49Z</time>
      </trkpt>
      <trkpt lat="40.88147" lon="-3.67414">
        <ele>1414.24</ele>
        <time>2015-01-03T10:24:57Z</time>
      </trkpt>
      <trkpt lat="40.88135" lon="-3.6741">
        <ele>1413.28</ele>
        <time>2015-01-03T10:25:09Z</time>
      </trkpt>
      <trkpt lat="40.88106" lon="-3.67409">
        <ele>1410.87</ele>
        <time>2015-01-03T10:25:27Z</time>
      </trkpt>
      <trkpt lat="40.88083" lon="-3.6741">
        <ele>1407.99</ele>
        <time>2015-01-03T10:25:46Z</time>
      </trkpt>
      <trkpt lat="40.88075" lon="-3.67414">
        <ele>1407.03</ele>
        <time>2015-01-03T10:25:52Z</time>
      </trkpt>
      <trkpt lat="40.88052" lon="-3.67426">
        <ele>1403.66</ele>
        <time>2015-01-03T10:26:09Z</time>
      </trkpt>
      <trkpt lat="40.88034" lon="-3.67433">
        <ele>1400.78</ele>
        <time>2015-01-03T10:26:20Z</time>
      </trkpt>
      <trkpt lat="40.88014" lon="-3.67439">
        <ele>1397.41</ele>
        <time>2015-01-03T10:26:33Z</time>
      </trkpt>
      <trkpt lat="40.87991" lon="-3.67448">
        <ele>1394.53</ele>
        <time>2015-01-03T10:26:48Z</time>
      </trkpt>
      <trkpt lat="40.8797" lon="-3.6746">
        <ele>1392.61</ele>
        <time>2015-01-03T10:27:02Z</time>
      </trkpt>
      <trkpt lat="40.87958" lon="-3.67474">
        <ele>1390.68</ele>
        <time>2015-01-03T10:27:12Z</time>
      </trkpt>
      <trkpt lat="40.87939" lon="-3.6749">
        <ele>1387.32</ele>
        <time>2015-01-03T10:27:27Z</time>
      </trkpt>
      <trkpt lat="40.87922" lon="-3.67505">
        <ele>1385.4</ele>
        <time>2015-01-03T10:27:40Z</time>
      </trkpt>
      <trkpt lat="40.87899" lon="-3.67524">
        <ele>1383.47</ele>
        <time>2015-01-03T10:27:57Z</time>
      </trkpt>
      <trkpt lat="40.87878" lon="-3.67547">
        <ele>1384.44</ele>
        <time>2015-01-03T10:28:15Z</time>
      </trkpt>
      <trkpt lat="40.8787" lon="-3.6756">
        <ele>1385.4</ele>
        <time>2015-01-03T10:28:24Z</time>
      </trkpt>
      <trkpt lat="40.8787" lon="-3.67561">
        <ele>1385.4</ele>
        <time>2015-01-03T10:28:25Z</time>
      </trkpt>
      <trkpt lat="40.87861" lon="-3.67585">
        <ele>1386.84</ele>
        <time>2015-01-03T10:28:39Z</time>
      </trkpt>
      <trkpt lat="40.87856" lon="-3.67613">
        <ele>1389.24</ele>
        <time>2015-01-03T10:28:55Z</time>
      </trkpt>
      <trkpt lat="40.87847" lon="-3.67638">
        <ele>1390.68</ele>
        <time>2015-01-03T10:29:10Z</time>
      </trkpt>
      <trkpt lat="40.87836" lon="-3.67659">
        <ele>1391.65</ele>
        <time>2015-01-03T10:29:25Z</time>
      </trkpt>
      <trkpt lat="40.87821" lon="-3.67677">
        <ele>1394.05</ele>
        <time>2015-01-03T10:29:41Z</time>
      </trkpt>
      <trkpt lat="40.87806" lon="-3.677">
        <ele>1395.49</ele>
        <time>2015-01-03T10:29:57Z</time>
      </trkpt>
      <trkpt lat="40.87796" lon="-3.67721">
        <ele>1397.89</ele>
        <time>2015-01-03T10:30:12Z</time>
      </trkpt>
      <trkpt lat="40.87793" lon="-3.6773">
        <ele>1398.37</ele>
        <time>2015-01-03T10:30:19Z</time>
      </trkpt>
      <trkpt lat="40.87793" lon="-3.67734">
        <ele>1398.37</ele>
        <time>2015-01-03T10:30:31Z</time>
      </trkpt>
      <trkpt lat="40.87793" lon="-3.67745">
        <ele>1399.34</ele>
        <time>2015-01-03T10:30:39Z</time>
      </trkpt>
      <trkpt lat="40.87794" lon="-3.67747">
        <ele>1399.34</ele>
        <time>2015-01-03T10:30:40Z</time>
      </trkpt>
      <trkpt lat="40.87798" lon="-3.67777">
        <ele>1401.26</ele>
        <time>2015-01-03T10:30:58Z</time>
      </trkpt>
      <trkpt lat="40.87797" lon="-3.678">
        <ele>1404.62</ele>
        <time>2015-01-03T10:31:13Z</time>
      </trkpt>
      <trkpt lat="40.87796" lon="-3.67805">
        <ele>1405.1</ele>
        <time>2015-01-03T10:31:17Z</time>
      </trkpt>
      <trkpt lat="40.87796" lon="-3.67806">
        <ele>1405.1</ele>
        <time>2015-01-03T10:31:18Z</time>
      </trkpt>
      <trkpt lat="40.87796" lon="-3.67808">
        <ele>1405.58</ele>
        <time>2015-01-03T10:31:19Z</time>
      </trkpt>
      <trkpt lat="40.87793" lon="-3.67831">
        <ele>1407.03</ele>
        <time>2015-01-03T10:31:33Z</time>
      </trkpt>
      <trkpt lat="40.87793" lon="-3.67832">
        <ele>1407.03</ele>
        <time>2015-01-03T10:31:34Z</time>
      </trkpt>
      <trkpt lat="40.87793" lon="-3.67834">
        <ele>1407.03</ele>
        <time>2015-01-03T10:31:35Z</time>
      </trkpt>
      <trkpt lat="40.87789" lon="-3.6786">
        <ele>1409.43</ele>
        <time>2015-01-03T10:31:52Z</time>
      </trkpt>
      <trkpt lat="40.87788" lon="-3.67888">
        <ele>1411.35</ele>
        <time>2015-01-03T10:32:08Z</time>
      </trkpt>
      <trkpt lat="40.87786" lon="-3.67916">
        <ele>1412.31</ele>
        <time>2015-01-03T10:32:23Z</time>
      </trkpt>
      <trkpt lat="40.87786" lon="-3.67917">
        <ele>1412.31</ele>
        <time>2015-01-03T10:32:24Z</time>
      </trkpt>
      <trkpt lat="40.87785" lon="-3.67919">
        <ele>1412.31</ele>
        <time>2015-01-03T10:32:25Z</time>
      </trkpt>
      <trkpt lat="40.87784" lon="-3.6792">
        <ele>1412.79</ele>
        <time>2015-01-03T10:32:26Z</time>
      </trkpt>
      <trkpt lat="40.87783" lon="-3.67921">
        <ele>1412.79</ele>
        <time>2015-01-03T10:32:27Z</time>
      </trkpt>
      <trkpt lat="40.87781" lon="-3.67923">
        <ele>1412.79</ele>
        <time>2015-01-03T10:32:29Z</time>
      </trkpt>
      <trkpt lat="40.87781" lon="-3.67925">
        <ele>1413.28</ele>
        <time>2015-01-03T10:32:30Z</time>
      </trkpt>
      <trkpt lat="40.87781" lon="-3.67926">
        <ele>1413.28</ele>
        <time>2015-01-03T10:32:31Z</time>
      </trkpt>
      <trkpt lat="40.8778" lon="-3.67928">
        <ele>1413.28</ele>
        <time>2015-01-03T10:32:32Z</time>
      </trkpt>
      <trkpt lat="40.8778" lon="-3.67929">
        <ele>1413.76</ele>
        <time>2015-01-03T10:32:33Z</time>
      </trkpt>
      <trkpt lat="40.87778" lon="-3.6794">
        <ele>1416.16</ele>
        <time>2015-01-03T10:32:41Z</time>
      </trkpt>
      <trkpt lat="40.87779" lon="-3.67941">
        <ele>1416.64</ele>
        <time>2015-01-03T10:32:42Z</time>
      </trkpt>
      <trkpt lat="40.87779" lon="-3.67943">
        <ele>1416.64</ele>
        <time>2015-01-03T10:32:43Z</time>
      </trkpt>
      <trkpt lat="40.87777" lon="-3.67958">
        <ele>1419.52</ele>
        <time>2015-01-03T10:32:55Z</time>
      </trkpt>
      <trkpt lat="40.87777" lon="-3.67959">
        <ele>1419.52</ele>
        <time>2015-01-03T10:32:56Z</time>
      </trkpt>
      <trkpt lat="40.87777" lon="-3.6796">
        <ele>1419.52</ele>
        <time>2015-01-03T10:32:57Z</time>
      </trkpt>
      <trkpt lat="40.87776" lon="-3.67962">
        <ele>1419.52</ele>
        <time>2015-01-03T10:32:58Z</time>
      </trkpt>
      <trkpt lat="40.87776" lon="-3.67963">
        <ele>1420</ele>
        <time>2015-01-03T10:32:59Z</time>
      </trkpt>
      <trkpt lat="40.87776" lon="-3.67964">
        <ele>1420</ele>
        <time>2015-01-03T10:33:00Z</time>
      </trkpt>
      <trkpt lat="40.87776" lon="-3.67966">
        <ele>1419.52</ele>
        <time>2015-01-03T10:33:01Z</time>
      </trkpt>
      <trkpt lat="40.87777" lon="-3.67968">
        <ele>1419.52</ele>
        <time>2015-01-03T10:33:02Z</time>
      </trkpt>
      <trkpt lat="40.87774" lon="-3.67987">
        <ele>1420.97</ele>
        <time>2015-01-03T10:33:15Z</time>
      </trkpt>
      <trkpt lat="40.87774" lon="-3.6799">
        <ele>1421.45</ele>
        <time>2015-01-03T10:33:17Z</time>
      </trkpt>
      <trkpt lat="40.87774" lon="-3.67991">
        <ele>1421.45</ele>
        <time>2015-01-03T10:33:18Z</time>
      </trkpt>
      <trkpt lat="40.87772" lon="-3.68016">
        <ele>1422.89</ele>
        <time>2015-01-03T10:33:34Z</time>
      </trkpt>
      <trkpt lat="40.87771" lon="-3.68019">
        <ele>1423.85</ele>
        <time>2015-01-03T10:33:38Z</time>
      </trkpt>
      <trkpt lat="40.87771" lon="-3.68021">
        <ele>1423.85</ele>
        <time>2015-01-03T10:33:39Z</time>
      </trkpt>
      <trkpt lat="40.87764" lon="-3.68033">
        <ele>1425.29</ele>
        <time>2015-01-03T10:33:51Z</time>
      </trkpt>
      <trkpt lat="40.87754" lon="-3.68054">
        <ele>1426.25</ele>
        <time>2015-01-03T10:34:06Z</time>
      </trkpt>
      <trkpt lat="40.87749" lon="-3.6807">
        <ele>1428.18</ele>
        <time>2015-01-03T10:34:18Z</time>
      </trkpt>
      <trkpt lat="40.87748" lon="-3.68072">
        <ele>1428.66</ele>
        <time>2015-01-03T10:34:20Z</time>
      </trkpt>
      <trkpt lat="40.87747" lon="-3.68074">
        <ele>1429.14</ele>
        <time>2015-01-03T10:34:22Z</time>
      </trkpt>
      <trkpt lat="40.87747" lon="-3.68075">
        <ele>1429.62</ele>
        <time>2015-01-03T10:34:23Z</time>
      </trkpt>
      <trkpt lat="40.87743" lon="-3.68082">
        <ele>1430.1</ele>
        <time>2015-01-03T10:34:29Z</time>
      </trkpt>
      <trkpt lat="40.87742" lon="-3.68084">
        <ele>1430.1</ele>
        <time>2015-01-03T10:34:30Z</time>
      </trkpt>
      <trkpt lat="40.87742" lon="-3.68085">
        <ele>1430.1</ele>
        <time>2015-01-03T10:34:31Z</time>
      </trkpt>
      <trkpt lat="40.87742" lon="-3.68086">
        <ele>1430.58</ele>
        <time>2015-01-03T10:34:32Z</time>
      </trkpt>
      <trkpt lat="40.87742" lon="-3.68087">
        <ele>1430.58</ele>
        <time>2015-01-03T10:34:33Z</time>
      </trkpt>
      <trkpt lat="40.87741" lon="-3.6809">
        <ele>1431.06</ele>
        <time>2015-01-03T10:34:35Z</time>
      </trkpt>
      <trkpt lat="40.87741" lon="-3.68092">
        <ele>1431.54</ele>
        <time>2015-01-03T10:34:36Z</time>
      </trkpt>
      <trkpt lat="40.87741" lon="-3.68093">
        <ele>1431.54</ele>
        <time>2015-01-03T10:34:37Z</time>
      </trkpt>
      <trkpt lat="40.8774" lon="-3.68095">
        <ele>1431.54</ele>
        <time>2015-01-03T10:34:38Z</time>
      </trkpt>
      <trkpt lat="40.8774" lon="-3.68096">
        <ele>1432.02</ele>
        <time>2015-01-03T10:34:39Z</time>
      </trkpt>
      <trkpt lat="40.8774" lon="-3.68098">
        <ele>1432.02</ele>
        <time>2015-01-03T10:34:40Z</time>
      </trkpt>
      <trkpt lat="40.8774" lon="-3.68099">
        <ele>1432.5</ele>
        <time>2015-01-03T10:34:41Z</time>
      </trkpt>
      <trkpt lat="40.87739" lon="-3.681">
        <ele>1432.5</ele>
        <time>2015-01-03T10:34:42Z</time>
      </trkpt>
      <trkpt lat="40.87739" lon="-3.68102">
        <ele>1432.5</ele>
        <time>2015-01-03T10:34:43Z</time>
      </trkpt>
      <trkpt lat="40.87738" lon="-3.68103">
        <ele>1432.5</ele>
        <time>2015-01-03T10:34:44Z</time>
      </trkpt>
      <trkpt lat="40.87737" lon="-3.68104">
        <ele>1432.5</ele>
        <time>2015-01-03T10:34:45Z</time>
      </trkpt>
      <trkpt lat="40.87729" lon="-3.68122">
        <ele>1433.46</ele>
        <time>2015-01-03T10:34:58Z</time>
      </trkpt>
      <trkpt lat="40.8772" lon="-3.68143">
        <ele>1434.91</ele>
        <time>2015-01-03T10:35:12Z</time>
      </trkpt>
      <trkpt lat="40.87713" lon="-3.6816">
        <ele>1434.91</ele>
        <time>2015-01-03T10:35:23Z</time>
      </trkpt>
      <trkpt lat="40.87712" lon="-3.68161">
        <ele>1434.91</ele>
        <time>2015-01-03T10:35:24Z</time>
      </trkpt>
      <trkpt lat="40.87712" lon="-3.68163">
        <ele>1435.39</ele>
        <time>2015-01-03T10:35:25Z</time>
      </trkpt>
      <trkpt lat="40.87712" lon="-3.68164">
        <ele>1435.39</ele>
        <time>2015-01-03T10:35:26Z</time>
      </trkpt>
      <trkpt lat="40.87712" lon="-3.68166">
        <ele>1435.39</ele>
        <time>2015-01-03T10:35:27Z</time>
      </trkpt>
      <trkpt lat="40.87711" lon="-3.68168">
        <ele>1435.39</ele>
        <time>2015-01-03T10:35:28Z</time>
      </trkpt>
      <trkpt lat="40.87705" lon="-3.68186">
        <ele>1436.35</ele>
        <time>2015-01-03T10:35:40Z</time>
      </trkpt>
      <trkpt lat="40.87705" lon="-3.68188">
        <ele>1436.83</ele>
        <time>2015-01-03T10:35:41Z</time>
      </trkpt>
      <trkpt lat="40.87705" lon="-3.6819">
        <ele>1436.83</ele>
        <time>2015-01-03T10:35:42Z</time>
      </trkpt>
      <trkpt lat="40.87701" lon="-3.68206">
        <ele>1437.31</ele>
        <time>2015-01-03T10:35:52Z</time>
      </trkpt>
      <trkpt lat="40.87701" lon="-3.68208">
        <ele>1437.31</ele>
        <time>2015-01-03T10:35:53Z</time>
      </trkpt>
      <trkpt lat="40.87697" lon="-3.68232">
        <ele>1438.75</ele>
        <time>2015-01-03T10:36:08Z</time>
      </trkpt>
      <trkpt lat="40.87695" lon="-3.6824">
        <ele>1439.23</ele>
        <time>2015-01-03T10:36:13Z</time>
      </trkpt>
      <trkpt lat="40.87694" lon="-3.68242">
        <ele>1439.23</ele>
        <time>2015-01-03T10:36:14Z</time>
      </trkpt>
      <trkpt lat="40.87694" lon="-3.68244">
        <ele>1439.23</ele>
        <time>2015-01-03T10:36:15Z</time>
      </trkpt>
      <trkpt lat="40.87694" lon="-3.68245">
        <ele>1439.23</ele>
        <time>2015-01-03T10:36:16Z</time>
      </trkpt>
      <trkpt lat="40.87693" lon="-3.68246">
        <ele>1439.71</ele>
        <time>2015-01-03T10:36:17Z</time>
      </trkpt>
      <trkpt lat="40.87693" lon="-3.68248">
        <ele>1439.71</ele>
        <time>2015-01-03T10:36:18Z</time>
      </trkpt>
      <trkpt lat="40.87692" lon="-3.68249">
        <ele>1439.71</ele>
        <time>2015-01-03T10:36:19Z</time>
      </trkpt>
      <trkpt lat="40.87692" lon="-3.68251">
        <ele>1439.71</ele>
        <time>2015-01-03T10:36:20Z</time>
      </trkpt>
      <trkpt lat="40.87692" lon="-3.68252">
        <ele>1439.71</ele>
        <time>2015-01-03T10:36:21Z</time>
      </trkpt>
      <trkpt lat="40.87689" lon="-3.68259">
        <ele>1440.19</ele>
        <time>2015-01-03T10:36:26Z</time>
      </trkpt>
      <trkpt lat="40.87689" lon="-3.6826">
        <ele>1440.19</ele>
        <time>2015-01-03T10:36:27Z</time>
      </trkpt>
      <trkpt lat="40.87686" lon="-3.68271">
        <ele>1441.15</ele>
        <time>2015-01-03T10:36:40Z</time>
      </trkpt>
      <trkpt lat="40.87687" lon="-3.68271">
        <ele>1441.15</ele>
        <time>2015-01-03T10:36:54Z</time>
      </trkpt>
      <trkpt lat="40.8769" lon="-3.6827">
        <ele>1441.15</ele>
        <time>2015-01-03T10:37:10Z</time>
      </trkpt>
      <trkpt lat="40.8769" lon="-3.68278">
        <ele>1441.63</ele>
        <time>2015-01-03T10:37:20Z</time>
      </trkpt>
      <trkpt lat="40.8769" lon="-3.6828">
        <ele>1441.63</ele>
        <time>2015-01-03T10:37:21Z</time>
      </trkpt>
      <trkpt lat="40.8769" lon="-3.68286">
        <ele>1442.11</ele>
        <time>2015-01-03T10:37:25Z</time>
      </trkpt>
      <trkpt lat="40.87692" lon="-3.68291">
        <ele>1442.11</ele>
        <time>2015-01-03T10:37:29Z</time>
      </trkpt>
      <trkpt lat="40.87689" lon="-3.68301">
        <ele>1443.56</ele>
        <time>2015-01-03T10:37:42Z</time>
      </trkpt>
      <trkpt lat="40.87688" lon="-3.68302">
        <ele>1443.56</ele>
        <time>2015-01-03T10:37:43Z</time>
      </trkpt>
      <trkpt lat="40.87687" lon="-3.68303">
        <ele>1443.56</ele>
        <time>2015-01-03T10:37:44Z</time>
      </trkpt>
      <trkpt lat="40.87684" lon="-3.68302">
        <ele>1444.04</ele>
        <time>2015-01-03T10:37:47Z</time>
      </trkpt>
      <trkpt lat="40.87683" lon="-3.68302">
        <ele>1444.52</ele>
        <time>2015-01-03T10:37:48Z</time>
      </trkpt>
      <trkpt lat="40.87682" lon="-3.68302">
        <ele>1444.52</ele>
        <time>2015-01-03T10:37:49Z</time>
      </trkpt>
      <trkpt lat="40.87681" lon="-3.68301">
        <ele>1445</ele>
        <time>2015-01-03T10:37:50Z</time>
      </trkpt>
      <trkpt lat="40.87676" lon="-3.68299">
        <ele>1445.96</ele>
        <time>2015-01-03T10:37:55Z</time>
      </trkpt>
      <trkpt lat="40.87674" lon="-3.683">
        <ele>1446.44</ele>
        <time>2015-01-03T10:37:56Z</time>
      </trkpt>
      <trkpt lat="40.87673" lon="-3.683">
        <ele>1446.44</ele>
        <time>2015-01-03T10:37:57Z</time>
      </trkpt>
      <trkpt lat="40.87668" lon="-3.68305">
        <ele>1447.88</ele>
        <time>2015-01-03T10:38:04Z</time>
      </trkpt>
      <trkpt lat="40.87667" lon="-3.68307">
        <ele>1448.36</ele>
        <time>2015-01-03T10:38:06Z</time>
      </trkpt>
      <trkpt lat="40.87672" lon="-3.68315">
        <ele>1449.81</ele>
        <time>2015-01-03T10:38:18Z</time>
      </trkpt>
      <trkpt lat="40.87672" lon="-3.68317">
        <ele>1450.29</ele>
        <time>2015-01-03T10:38:20Z</time>
      </trkpt>
      <trkpt lat="40.87668" lon="-3.68321">
        <ele>1451.25</ele>
        <time>2015-01-03T10:38:25Z</time>
      </trkpt>
      <trkpt lat="40.87662" lon="-3.68325">
        <ele>1451.73</ele>
        <time>2015-01-03T10:38:32Z</time>
      </trkpt>
      <trkpt lat="40.87661" lon="-3.68325">
        <ele>1453.17</ele>
        <time>2015-01-03T10:38:33Z</time>
      </trkpt>
      <trkpt lat="40.8766" lon="-3.68325">
        <ele>1453.65</ele>
        <time>2015-01-03T10:38:34Z</time>
      </trkpt>
      <trkpt lat="40.87658" lon="-3.6833">
        <ele>1455.09</ele>
        <time>2015-01-03T10:38:40Z</time>
      </trkpt>
      <trkpt lat="40.87656" lon="-3.68334">
        <ele>1456.53</ele>
        <time>2015-01-03T10:38:46Z</time>
      </trkpt>
      <trkpt lat="40.87653" lon="-3.68341">
        <ele>1458.46</ele>
        <time>2015-01-03T10:38:55Z</time>
      </trkpt>
      <trkpt lat="40.87652" lon="-3.68341">
        <ele>1458.94</ele>
        <time>2015-01-03T10:38:57Z</time>
      </trkpt>
      <trkpt lat="40.8765" lon="-3.68351">
        <ele>1460.86</ele>
        <time>2015-01-03T10:39:08Z</time>
      </trkpt>
      <trkpt lat="40.87643" lon="-3.68355">
        <ele>1463.74</ele>
        <time>2015-01-03T10:39:21Z</time>
      </trkpt>
      <trkpt lat="40.87638" lon="-3.68359">
        <ele>1465.67</ele>
        <time>2015-01-03T10:39:30Z</time>
      </trkpt>
      <trkpt lat="40.8763" lon="-3.68361">
        <ele>1466.63</ele>
        <time>2015-01-03T10:39:39Z</time>
      </trkpt>
      <trkpt lat="40.87629" lon="-3.68361">
        <ele>1466.63</ele>
        <time>2015-01-03T10:39:40Z</time>
      </trkpt>
      <trkpt lat="40.87622" lon="-3.68364">
        <ele>1467.11</ele>
        <time>2015-01-03T10:39:56Z</time>
      </trkpt>
      <trkpt lat="40.8762" lon="-3.68363">
        <ele>1467.11</ele>
        <time>2015-01-03T10:40:03Z</time>
      </trkpt>
      <trkpt lat="40.87618" lon="-3.68363">
        <ele>1467.59</ele>
        <time>2015-01-03T10:40:13Z</time>
      </trkpt>
      <trkpt lat="40.87617" lon="-3.68363">
        <ele>1467.11</ele>
        <time>2015-01-03T10:40:14Z</time>
      </trkpt>
      <trkpt lat="40.87616" lon="-3.68364">
        <ele>1467.11</ele>
        <time>2015-01-03T10:40:15Z</time>
      </trkpt>
      <trkpt lat="40.87615" lon="-3.68365">
        <ele>1467.11</ele>
        <time>2015-01-03T10:40:16Z</time>
      </trkpt>
      <trkpt lat="40.87614" lon="-3.68366">
        <ele>1467.11</ele>
        <time>2015-01-03T10:40:17Z</time>
      </trkpt>
      <trkpt lat="40.87613" lon="-3.68367">
        <ele>1467.11</ele>
        <time>2015-01-03T10:40:18Z</time>
      </trkpt>
      <trkpt lat="40.87608" lon="-3.68371">
        <ele>1466.63</ele>
        <time>2015-01-03T10:40:23Z</time>
      </trkpt>
      <trkpt lat="40.87606" lon="-3.68371">
        <ele>1466.63</ele>
        <time>2015-01-03T10:40:24Z</time>
      </trkpt>
      <trkpt lat="40.87605" lon="-3.68373">
        <ele>1466.15</ele>
        <time>2015-01-03T10:40:26Z</time>
      </trkpt>
      <trkpt lat="40.87605" lon="-3.68374">
        <ele>1466.15</ele>
        <time>2015-01-03T10:40:27Z</time>
      </trkpt>
      <trkpt lat="40.87603" lon="-3.68376">
        <ele>1466.15</ele>
        <time>2015-01-03T10:40:29Z</time>
      </trkpt>
      <trkpt lat="40.87596" lon="-3.68389">
        <ele>1465.67</ele>
        <time>2015-01-03T10:40:42Z</time>
      </trkpt>
      <trkpt lat="40.87589" lon="-3.68406">
        <ele>1463.74</ele>
        <time>2015-01-03T10:40:55Z</time>
      </trkpt>
      <trkpt lat="40.8759" lon="-3.68416">
        <ele>1466.15</ele>
        <time>2015-01-03T10:41:06Z</time>
      </trkpt>
      <trkpt lat="40.87589" lon="-3.6842">
        <ele>1467.11</ele>
        <time>2015-01-03T10:41:19Z</time>
      </trkpt>
      <trkpt lat="40.87588" lon="-3.68436">
        <ele>1469.03</ele>
        <time>2015-01-03T10:41:30Z</time>
      </trkpt>
      <trkpt lat="40.87588" lon="-3.68451">
        <ele>1470.47</ele>
        <time>2015-01-03T10:41:42Z</time>
      </trkpt>
      <trkpt lat="40.87587" lon="-3.68453">
        <ele>1469.99</ele>
        <time>2015-01-03T10:41:53Z</time>
      </trkpt>
      <trkpt lat="40.87583" lon="-3.68458">
        <ele>1468.55</ele>
        <time>2015-01-03T10:42:00Z</time>
      </trkpt>
      <trkpt lat="40.87581" lon="-3.68461">
        <ele>1468.07</ele>
        <time>2015-01-03T10:42:03Z</time>
      </trkpt>
      <trkpt lat="40.87581" lon="-3.68477">
        <ele>1470.47</ele>
        <time>2015-01-03T10:42:16Z</time>
      </trkpt>
      <trkpt lat="40.87581" lon="-3.68479">
        <ele>1471.44</ele>
        <time>2015-01-03T10:42:20Z</time>
      </trkpt>
      <trkpt lat="40.8758" lon="-3.68486">
        <ele>1472.4</ele>
        <time>2015-01-03T10:42:30Z</time>
      </trkpt>
      <trkpt lat="40.8758" lon="-3.68491">
        <ele>1472.4</ele>
        <time>2015-01-03T10:42:36Z</time>
      </trkpt>
      <trkpt lat="40.87582" lon="-3.68493">
        <ele>1473.36</ele>
        <time>2015-01-03T10:42:41Z</time>
      </trkpt>
      <trkpt lat="40.87581" lon="-3.68498">
        <ele>1473.84</ele>
        <time>2015-01-03T10:42:48Z</time>
      </trkpt>
      <trkpt lat="40.87583" lon="-3.68507">
        <ele>1474.8</ele>
        <time>2015-01-03T10:42:59Z</time>
      </trkpt>
      <trkpt lat="40.87583" lon="-3.6851">
        <ele>1475.28</ele>
        <time>2015-01-03T10:43:17Z</time>
      </trkpt>
      <trkpt lat="40.87582" lon="-3.68515">
        <ele>1475.76</ele>
        <time>2015-01-03T10:43:27Z</time>
      </trkpt>
      <trkpt lat="40.87582" lon="-3.68521">
        <ele>1476.24</ele>
        <time>2015-01-03T10:43:32Z</time>
      </trkpt>
      <trkpt lat="40.87585" lon="-3.68532">
        <ele>1478.65</ele>
        <time>2015-01-03T10:43:43Z</time>
      </trkpt>
      <trkpt lat="40.87586" lon="-3.68536">
        <ele>1479.61</ele>
        <time>2015-01-03T10:43:55Z</time>
      </trkpt>
      <trkpt lat="40.87586" lon="-3.68537">
        <ele>1479.61</ele>
        <time>2015-01-03T10:43:57Z</time>
      </trkpt>
      <trkpt lat="40.87586" lon="-3.68547">
        <ele>1479.13</ele>
        <time>2015-01-03T10:44:11Z</time>
      </trkpt>
      <trkpt lat="40.87584" lon="-3.68549">
        <ele>1480.09</ele>
        <time>2015-01-03T10:44:22Z</time>
      </trkpt>
      <trkpt lat="40.87583" lon="-3.68554">
        <ele>1480.57</ele>
        <time>2015-01-03T10:44:34Z</time>
      </trkpt>
      <trkpt lat="40.87575" lon="-3.68556">
        <ele>1481.53</ele>
        <time>2015-01-03T10:44:45Z</time>
      </trkpt>
      <trkpt lat="40.87573" lon="-3.68558">
        <ele>1482.49</ele>
        <time>2015-01-03T10:44:58Z</time>
      </trkpt>
      <trkpt lat="40.87569" lon="-3.68553">
        <ele>1479.61</ele>
        <time>2015-01-03T10:45:14Z</time>
      </trkpt>
      <trkpt lat="40.87568" lon="-3.68553">
        <ele>1479.61</ele>
        <time>2015-01-03T10:45:15Z</time>
      </trkpt>
      <trkpt lat="40.87562" lon="-3.68545">
        <ele>1476.72</ele>
        <time>2015-01-03T10:45:28Z</time>
      </trkpt>
      <trkpt lat="40.87562" lon="-3.68539">
        <ele>1474.8</ele>
        <time>2015-01-03T10:45:39Z</time>
      </trkpt>
      <trkpt lat="40.87558" lon="-3.68535">
        <ele>1473.36</ele>
        <time>2015-01-03T10:45:50Z</time>
      </trkpt>
      <trkpt lat="40.87557" lon="-3.68536">
        <ele>1473.36</ele>
        <time>2015-01-03T10:46:00Z</time>
      </trkpt>
      <trkpt lat="40.87551" lon="-3.68532">
        <ele>1471.92</ele>
        <time>2015-01-03T10:46:11Z</time>
      </trkpt>
      <trkpt lat="40.87548" lon="-3.68531">
        <ele>1471.44</ele>
        <time>2015-01-03T10:46:15Z</time>
      </trkpt>
      <trkpt lat="40.87542" lon="-3.68529">
        <ele>1469.51</ele>
        <time>2015-01-03T10:46:29Z</time>
      </trkpt>
      <trkpt lat="40.87541" lon="-3.68529">
        <ele>1469.51</ele>
        <time>2015-01-03T10:46:30Z</time>
      </trkpt>
      <trkpt lat="40.87536" lon="-3.68531">
        <ele>1469.51</ele>
        <time>2015-01-03T10:46:36Z</time>
      </trkpt>
      <trkpt lat="40.87533" lon="-3.6853">
        <ele>1469.03</ele>
        <time>2015-01-03T10:46:44Z</time>
      </trkpt>
      <trkpt lat="40.8753" lon="-3.68531">
        <ele>1468.55</ele>
        <time>2015-01-03T10:46:47Z</time>
      </trkpt>
      <trkpt lat="40.87522" lon="-3.68532">
        <ele>1468.07</ele>
        <time>2015-01-03T10:46:57Z</time>
      </trkpt>
      <trkpt lat="40.8752" lon="-3.68534">
        <ele>1468.55</ele>
        <time>2015-01-03T10:47:11Z</time>
      </trkpt>
      <trkpt lat="40.87524" lon="-3.68532">
        <ele>1468.07</ele>
        <time>2015-01-03T10:47:28Z</time>
      </trkpt>
      <trkpt lat="40.87524" lon="-3.68528">
        <ele>1467.59</ele>
        <time>2015-01-03T10:47:32Z</time>
      </trkpt>
      <trkpt lat="40.87523" lon="-3.68521">
        <ele>1464.71</ele>
        <time>2015-01-03T10:47:45Z</time>
      </trkpt>
      <trkpt lat="40.87524" lon="-3.68518">
        <ele>1463.74</ele>
        <time>2015-01-03T10:47:49Z</time>
      </trkpt>
      <trkpt lat="40.87515" lon="-3.68512">
        <ele>1460.38</ele>
        <time>2015-01-03T10:48:03Z</time>
      </trkpt>
      <trkpt lat="40.87507" lon="-3.68509">
        <ele>1457.98</ele>
        <time>2015-01-03T10:48:15Z</time>
      </trkpt>
      <trkpt lat="40.87502" lon="-3.68509">
        <ele>1456.53</ele>
        <time>2015-01-03T10:48:21Z</time>
      </trkpt>
      <trkpt lat="40.87493" lon="-3.68508">
        <ele>1453.65</ele>
        <time>2015-01-03T10:48:32Z</time>
      </trkpt>
      <trkpt lat="40.87489" lon="-3.68506">
        <ele>1452.21</ele>
        <time>2015-01-03T10:48:43Z</time>
      </trkpt>
      <trkpt lat="40.87487" lon="-3.68506">
        <ele>1451.73</ele>
        <time>2015-01-03T10:48:45Z</time>
      </trkpt>
      <trkpt lat="40.87483" lon="-3.68504">
        <ele>1450.29</ele>
        <time>2015-01-03T10:48:52Z</time>
      </trkpt>
      <trkpt lat="40.87476" lon="-3.68503">
        <ele>1447.4</ele>
        <time>2015-01-03T10:49:03Z</time>
      </trkpt>
      <trkpt lat="40.87471" lon="-3.68504">
        <ele>1445.96</ele>
        <time>2015-01-03T10:49:15Z</time>
      </trkpt>
      <trkpt lat="40.87471" lon="-3.68504">
        <ele>1445.48</ele>
        <time>2015-01-03T10:49:17Z</time>
      </trkpt>
      <trkpt lat="40.87464" lon="-3.68503">
        <ele>1444.04</ele>
        <time>2015-01-03T10:49:30Z</time>
      </trkpt>
      <trkpt lat="40.87458" lon="-3.68504">
        <ele>1442.11</ele>
        <time>2015-01-03T10:49:40Z</time>
      </trkpt>
      <trkpt lat="40.87452" lon="-3.68504">
        <ele>1439.23</ele>
        <time>2015-01-03T10:49:52Z</time>
      </trkpt>
      <trkpt lat="40.8745" lon="-3.68503">
        <ele>1439.23</ele>
        <time>2015-01-03T10:49:54Z</time>
      </trkpt>
      <trkpt lat="40.87441" lon="-3.68501">
        <ele>1436.35</ele>
        <time>2015-01-03T10:50:09Z</time>
      </trkpt>
      <trkpt lat="40.87435" lon="-3.68506">
        <ele>1434.91</ele>
        <time>2015-01-03T10:50:21Z</time>
      </trkpt>
      <trkpt lat="40.87429" lon="-3.68504">
        <ele>1431.54</ele>
        <time>2015-01-03T10:50:34Z</time>
      </trkpt>
      <trkpt lat="40.87427" lon="-3.68504">
        <ele>1431.06</ele>
        <time>2015-01-03T10:50:46Z</time>
      </trkpt>
      <trkpt lat="40.87425" lon="-3.68502">
        <ele>1429.62</ele>
        <time>2015-01-03T10:50:59Z</time>
      </trkpt>
      <trkpt lat="40.87419" lon="-3.68506">
        <ele>1427.21</ele>
        <time>2015-01-03T10:51:11Z</time>
      </trkpt>
      <trkpt lat="40.87414" lon="-3.6851">
        <ele>1425.77</ele>
        <time>2015-01-03T10:51:23Z</time>
      </trkpt>
      <trkpt lat="40.8741" lon="-3.68508">
        <ele>1423.37</ele>
        <time>2015-01-03T10:51:36Z</time>
      </trkpt>
      <trkpt lat="40.87406" lon="-3.68506">
        <ele>1420.97</ele>
        <time>2015-01-03T10:51:48Z</time>
      </trkpt>
      <trkpt lat="40.87401" lon="-3.68505">
        <ele>1418.08</ele>
        <time>2015-01-03T10:52:00Z</time>
      </trkpt>
      <trkpt lat="40.87399" lon="-3.68504">
        <ele>1416.64</ele>
        <time>2015-01-03T10:52:07Z</time>
      </trkpt>
      <trkpt lat="40.87393" lon="-3.68506">
        <ele>1413.76</ele>
        <time>2015-01-03T10:52:22Z</time>
      </trkpt>
      <trkpt lat="40.8739" lon="-3.68507">
        <ele>1412.31</ele>
        <time>2015-01-03T10:52:28Z</time>
      </trkpt>
      <trkpt lat="40.87385" lon="-3.68509">
        <ele>1410.39</ele>
        <time>2015-01-03T10:52:39Z</time>
      </trkpt>
      <trkpt lat="40.87382" lon="-3.6851">
        <ele>1408.95</ele>
        <time>2015-01-03T10:52:49Z</time>
      </trkpt>
      <trkpt lat="40.87378" lon="-3.68511">
        <ele>1406.07</ele>
        <time>2015-01-03T10:53:04Z</time>
      </trkpt>
      <trkpt lat="40.87375" lon="-3.68508">
        <ele>1403.66</ele>
        <time>2015-01-03T10:53:16Z</time>
      </trkpt>
      <trkpt lat="40.87373" lon="-3.68506">
        <ele>1401.74</ele>
        <time>2015-01-03T10:53:26Z</time>
      </trkpt>
      <trkpt lat="40.87372" lon="-3.68503">
        <ele>1400.3</ele>
        <time>2015-01-03T10:53:37Z</time>
      </trkpt>
      <trkpt lat="40.87368" lon="-3.68501">
        <ele>1398.37</ele>
        <time>2015-01-03T10:53:48Z</time>
      </trkpt>
      <trkpt lat="40.87364" lon="-3.68498">
        <ele>1395.49</ele>
        <time>2015-01-03T10:54:02Z</time>
      </trkpt>
      <trkpt lat="40.87362" lon="-3.68494">
        <ele>1394.05</ele>
        <time>2015-01-03T10:54:12Z</time>
      </trkpt>
      <trkpt lat="40.87358" lon="-3.68491">
        <ele>1391.17</ele>
        <time>2015-01-03T10:54:23Z</time>
      </trkpt>
      <trkpt lat="40.87355" lon="-3.68488">
        <ele>1389.24</ele>
        <time>2015-01-03T10:54:34Z</time>
      </trkpt>
      <trkpt lat="40.87351" lon="-3.68485">
        <ele>1386.36</ele>
        <time>2015-01-03T10:54:46Z</time>
      </trkpt>
      <trkpt lat="40.8735" lon="-3.68481">
        <ele>1384.92</ele>
        <time>2015-01-03T10:54:55Z</time>
      </trkpt>
      <trkpt lat="40.87346" lon="-3.68484">
        <ele>1383.47</ele>
        <time>2015-01-03T10:55:06Z</time>
      </trkpt>
      <trkpt lat="40.87341" lon="-3.68484">
        <ele>1381.55</ele>
        <time>2015-01-03T10:55:17Z</time>
      </trkpt>
      <trkpt lat="40.87338" lon="-3.68482">
        <ele>1380.11</ele>
        <time>2015-01-03T10:55:28Z</time>
      </trkpt>
      <trkpt lat="40.87333" lon="-3.68484">
        <ele>1377.71</ele>
        <time>2015-01-03T10:55:40Z</time>
      </trkpt>
      <trkpt lat="40.87331" lon="-3.68486">
        <ele>1377.23</ele>
        <time>2015-01-03T10:55:45Z</time>
      </trkpt>
      <trkpt lat="40.87327" lon="-3.68488">
        <ele>1375.78</ele>
        <time>2015-01-03T10:55:55Z</time>
      </trkpt>
      <trkpt lat="40.87317" lon="-3.68487">
        <ele>1372.9</ele>
        <time>2015-01-03T10:56:08Z</time>
      </trkpt>
      <trkpt lat="40.8731" lon="-3.68487">
        <ele>1370.5</ele>
        <time>2015-01-03T10:56:21Z</time>
      </trkpt>
      <trkpt lat="40.87306" lon="-3.68484">
        <ele>1368.57</ele>
        <time>2015-01-03T10:56:33Z</time>
      </trkpt>
      <trkpt lat="40.87302" lon="-3.68481">
        <ele>1365.69</ele>
        <time>2015-01-03T10:56:45Z</time>
      </trkpt>
      <trkpt lat="40.87294" lon="-3.68482">
        <ele>1363.29</ele>
        <time>2015-01-03T10:56:57Z</time>
      </trkpt>
      <trkpt lat="40.87286" lon="-3.68481">
        <ele>1360.4</ele>
        <time>2015-01-03T10:57:08Z</time>
      </trkpt>
      <trkpt lat="40.87287" lon="-3.68483">
        <ele>1360.4</ele>
        <time>2015-01-03T10:57:24Z</time>
      </trkpt>
      <trkpt lat="40.87283" lon="-3.68478">
        <ele>1358.96</ele>
        <time>2015-01-03T10:57:47Z</time>
      </trkpt>
      <trkpt lat="40.87275" lon="-3.68479">
        <ele>1357.04</ele>
        <time>2015-01-03T10:57:59Z</time>
      </trkpt>
      <trkpt lat="40.87271" lon="-3.68478">
        <ele>1355.6</ele>
        <time>2015-01-03T10:58:06Z</time>
      </trkpt>
      <trkpt lat="40.87267" lon="-3.68478">
        <ele>1354.63</ele>
        <time>2015-01-03T10:58:12Z</time>
      </trkpt>
      <trkpt lat="40.87259" lon="-3.68478">
        <ele>1352.23</ele>
        <time>2015-01-03T10:58:25Z</time>
      </trkpt>
      <trkpt lat="40.87258" lon="-3.68478">
        <ele>1351.75</ele>
        <time>2015-01-03T10:58:26Z</time>
      </trkpt>
      <trkpt lat="40.87255" lon="-3.68479">
        <ele>1350.79</ele>
        <time>2015-01-03T10:58:34Z</time>
      </trkpt>
      <trkpt lat="40.87252" lon="-3.68478">
        <ele>1349.83</ele>
        <time>2015-01-03T10:58:44Z</time>
      </trkpt>
      <trkpt lat="40.87251" lon="-3.68478">
        <ele>1349.83</ele>
        <time>2015-01-03T10:58:45Z</time>
      </trkpt>
      <trkpt lat="40.87247" lon="-3.68479">
        <ele>1349.35</ele>
        <time>2015-01-03T10:58:48Z</time>
      </trkpt>
      <trkpt lat="40.87243" lon="-3.68476">
        <ele>1347.43</ele>
        <time>2015-01-03T10:58:59Z</time>
      </trkpt>
      <trkpt lat="40.87245" lon="-3.68471">
        <ele>1346.94</ele>
        <time>2015-01-03T10:59:11Z</time>
      </trkpt>
      <trkpt lat="40.87241" lon="-3.68477">
        <ele>1347.91</ele>
        <time>2015-01-03T10:59:30Z</time>
      </trkpt>
      <trkpt lat="40.87239" lon="-3.68477">
        <ele>1347.91</ele>
        <time>2015-01-03T10:59:35Z</time>
      </trkpt>
      <trkpt lat="40.87238" lon="-3.68476">
        <ele>1346.94</ele>
        <time>2015-01-03T10:59:48Z</time>
      </trkpt>
      <trkpt lat="40.87233" lon="-3.68478">
        <ele>1345.98</ele>
        <time>2015-01-03T10:59:59Z</time>
      </trkpt>
      <trkpt lat="40.87229" lon="-3.68477">
        <ele>1345.5</ele>
        <time>2015-01-03T11:00:10Z</time>
      </trkpt>
      <trkpt lat="40.87227" lon="-3.68474">
        <ele>1344.06</ele>
        <time>2015-01-03T11:00:21Z</time>
      </trkpt>
      <trkpt lat="40.87226" lon="-3.68475">
        <ele>1343.58</ele>
        <time>2015-01-03T11:00:33Z</time>
      </trkpt>
      <trkpt lat="40.87226" lon="-3.68471">
        <ele>1342.14</ele>
        <time>2015-01-03T11:00:45Z</time>
      </trkpt>
      <trkpt lat="40.87224" lon="-3.68469">
        <ele>1340.7</ele>
        <time>2015-01-03T11:00:57Z</time>
      </trkpt>
      <trkpt lat="40.87223" lon="-3.68469">
        <ele>1339.73</ele>
        <time>2015-01-03T11:01:02Z</time>
      </trkpt>
      <trkpt lat="40.87218" lon="-3.6847">
        <ele>1339.25</ele>
        <time>2015-01-03T11:01:13Z</time>
      </trkpt>
      <trkpt lat="40.87211" lon="-3.68471">
        <ele>1338.29</ele>
        <time>2015-01-03T11:01:25Z</time>
      </trkpt>
      <trkpt lat="40.87207" lon="-3.68474">
        <ele>1337.81</ele>
        <time>2015-01-03T11:01:37Z</time>
      </trkpt>
      <trkpt lat="40.87206" lon="-3.68474">
        <ele>1337.81</ele>
        <time>2015-01-03T11:01:40Z</time>
      </trkpt>
      <trkpt lat="40.87202" lon="-3.68475">
        <ele>1336.85</ele>
        <time>2015-01-03T11:01:48Z</time>
      </trkpt>
      <trkpt lat="40.87198" lon="-3.68476">
        <ele>1335.89</ele>
        <time>2015-01-03T11:01:54Z</time>
      </trkpt>
      <trkpt lat="40.8719" lon="-3.68478">
        <ele>1334.93</ele>
        <time>2015-01-03T11:02:08Z</time>
      </trkpt>
      <trkpt lat="40.87185" lon="-3.68484">
        <ele>1333.49</ele>
        <time>2015-01-03T11:02:19Z</time>
      </trkpt>
      <trkpt lat="40.87184" lon="-3.68485">
        <ele>1333.97</ele>
        <time>2015-01-03T11:02:29Z</time>
      </trkpt>
      <trkpt lat="40.87183" lon="-3.68485">
        <ele>1333.97</ele>
        <time>2015-01-03T11:02:47Z</time>
      </trkpt>
      <trkpt lat="40.87181" lon="-3.68483">
        <ele>1333.01</ele>
        <time>2015-01-03T11:03:02Z</time>
      </trkpt>
      <trkpt lat="40.87183" lon="-3.68479">
        <ele>1331.56</ele>
        <time>2015-01-03T11:03:14Z</time>
      </trkpt>
      <trkpt lat="40.87184" lon="-3.68478">
        <ele>1331.08</ele>
        <time>2015-01-03T11:03:25Z</time>
      </trkpt>
      <trkpt lat="40.87184" lon="-3.68474">
        <ele>1330.12</ele>
        <time>2015-01-03T11:03:36Z</time>
      </trkpt>
      <trkpt lat="40.87184" lon="-3.68469">
        <ele>1328.68</ele>
        <time>2015-01-03T11:03:48Z</time>
      </trkpt>
      <trkpt lat="40.87185" lon="-3.68463">
        <ele>1327.24</ele>
        <time>2015-01-03T11:03:58Z</time>
      </trkpt>
      <trkpt lat="40.87185" lon="-3.68458">
        <ele>1326.28</ele>
        <time>2015-01-03T11:04:13Z</time>
      </trkpt>
      <trkpt lat="40.87183" lon="-3.68455">
        <ele>1324.83</ele>
        <time>2015-01-03T11:04:25Z</time>
      </trkpt>
      <trkpt lat="40.87179" lon="-3.68457">
        <ele>1323.87</ele>
        <time>2015-01-03T11:04:38Z</time>
      </trkpt>
      <trkpt lat="40.87175" lon="-3.6846">
        <ele>1322.91</ele>
        <time>2015-01-03T11:04:50Z</time>
      </trkpt>
      <trkpt lat="40.87167" lon="-3.68459">
        <ele>1320.99</ele>
        <time>2015-01-03T11:05:02Z</time>
      </trkpt>
      <trkpt lat="40.87166" lon="-3.68459">
        <ele>1320.51</ele>
        <time>2015-01-03T11:05:04Z</time>
      </trkpt>
      <trkpt lat="40.87157" lon="-3.68463">
        <ele>1319.07</ele>
        <time>2015-01-03T11:05:17Z</time>
      </trkpt>
      <trkpt lat="40.87156" lon="-3.68464">
        <ele>1319.07</ele>
        <time>2015-01-03T11:05:19Z</time>
      </trkpt>
      <trkpt lat="40.87148" lon="-3.68471">
        <ele>1318.59</ele>
        <time>2015-01-03T11:05:27Z</time>
      </trkpt>
      <trkpt lat="40.87142" lon="-3.68473">
        <ele>1318.59</ele>
        <time>2015-01-03T11:05:33Z</time>
      </trkpt>
      <trkpt lat="40.87131" lon="-3.68474">
        <ele>1317.14</ele>
        <time>2015-01-03T11:05:44Z</time>
      </trkpt>
      <trkpt lat="40.87129" lon="-3.68475">
        <ele>1317.14</ele>
        <time>2015-01-03T11:05:46Z</time>
      </trkpt>
      <trkpt lat="40.8712" lon="-3.68478">
        <ele>1317.14</ele>
        <time>2015-01-03T11:05:54Z</time>
      </trkpt>
      <trkpt lat="40.87115" lon="-3.68483">
        <ele>1317.14</ele>
        <time>2015-01-03T11:06:01Z</time>
      </trkpt>
      <trkpt lat="40.87113" lon="-3.68485">
        <ele>1317.62</ele>
        <time>2015-01-03T11:06:03Z</time>
      </trkpt>
      <trkpt lat="40.87105" lon="-3.68485">
        <ele>1316.18</ele>
        <time>2015-01-03T11:06:16Z</time>
      </trkpt>
      <trkpt lat="40.87106" lon="-3.68486">
        <ele>1316.18</ele>
        <time>2015-01-03T11:06:34Z</time>
      </trkpt>
      <trkpt lat="40.87101" lon="-3.68489">
        <ele>1315.22</ele>
        <time>2015-01-03T11:06:44Z</time>
      </trkpt>
      <trkpt lat="40.87098" lon="-3.68492">
        <ele>1315.7</ele>
        <time>2015-01-03T11:06:56Z</time>
      </trkpt>
      <trkpt lat="40.87094" lon="-3.68496">
        <ele>1315.7</ele>
        <time>2015-01-03T11:07:02Z</time>
      </trkpt>
      <trkpt lat="40.87086" lon="-3.68494">
        <ele>1312.82</ele>
        <time>2015-01-03T11:07:12Z</time>
      </trkpt>
      <trkpt lat="40.87084" lon="-3.68494">
        <ele>1312.34</ele>
        <time>2015-01-03T11:07:14Z</time>
      </trkpt>
      <trkpt lat="40.87076" lon="-3.68491">
        <ele>1309.93</ele>
        <time>2015-01-03T11:07:23Z</time>
      </trkpt>
      <trkpt lat="40.87068" lon="-3.68485">
        <ele>1307.53</ele>
        <time>2015-01-03T11:07:34Z</time>
      </trkpt>
      <trkpt lat="40.87063" lon="-3.68483">
        <ele>1306.57</ele>
        <time>2015-01-03T11:07:44Z</time>
      </trkpt>
      <trkpt lat="40.87059" lon="-3.68481">
        <ele>1304.65</ele>
        <time>2015-01-03T11:07:55Z</time>
      </trkpt>
      <trkpt lat="40.87055" lon="-3.68478">
        <ele>1303.2</ele>
        <time>2015-01-03T11:08:03Z</time>
      </trkpt>
      <trkpt lat="40.87051" lon="-3.68474">
        <ele>1302.24</ele>
        <time>2015-01-03T11:08:08Z</time>
      </trkpt>
      <trkpt lat="40.87042" lon="-3.68468">
        <ele>1299.84</ele>
        <time>2015-01-03T11:08:22Z</time>
      </trkpt>
      <trkpt lat="40.87039" lon="-3.68466">
        <ele>1298.88</ele>
        <time>2015-01-03T11:08:34Z</time>
      </trkpt>
      <trkpt lat="40.87034" lon="-3.68465">
        <ele>1297.92</ele>
        <time>2015-01-03T11:08:44Z</time>
      </trkpt>
      <trkpt lat="40.87031" lon="-3.68462">
        <ele>1295.99</ele>
        <time>2015-01-03T11:08:50Z</time>
      </trkpt>
      <trkpt lat="40.87023" lon="-3.68456">
        <ele>1294.07</ele>
        <time>2015-01-03T11:09:05Z</time>
      </trkpt>
      <trkpt lat="40.8702" lon="-3.68453">
        <ele>1293.11</ele>
        <time>2015-01-03T11:09:11Z</time>
      </trkpt>
      <trkpt lat="40.87012" lon="-3.68445">
        <ele>1290.23</ele>
        <time>2015-01-03T11:09:23Z</time>
      </trkpt>
      <trkpt lat="40.8701" lon="-3.68443">
        <ele>1289.75</ele>
        <time>2015-01-03T11:09:26Z</time>
      </trkpt>
      <trkpt lat="40.87001" lon="-3.68436">
        <ele>1286.86</ele>
        <time>2015-01-03T11:09:38Z</time>
      </trkpt>
      <trkpt lat="40.86998" lon="-3.6843">
        <ele>1285.9</ele>
        <time>2015-01-03T11:09:45Z</time>
      </trkpt>
      <trkpt lat="40.86994" lon="-3.68428">
        <ele>1284.94</ele>
        <time>2015-01-03T11:09:49Z</time>
      </trkpt>
      <trkpt lat="40.86992" lon="-3.68431">
        <ele>1284.46</ele>
        <time>2015-01-03T11:09:51Z</time>
      </trkpt>
      <trkpt lat="40.86991" lon="-3.68431">
        <ele>1284.46</ele>
        <time>2015-01-03T11:09:53Z</time>
      </trkpt>
      <trkpt lat="40.86989" lon="-3.68432">
        <ele>1284.46</ele>
        <time>2015-01-03T11:09:55Z</time>
      </trkpt>
      <trkpt lat="40.86985" lon="-3.68434">
        <ele>1282.54</ele>
        <time>2015-01-03T11:10:08Z</time>
      </trkpt>
      <trkpt lat="40.86985" lon="-3.68428">
        <ele>1283.5</ele>
        <time>2015-01-03T11:10:20Z</time>
      </trkpt>
      <trkpt lat="40.86987" lon="-3.68429">
        <ele>1283.5</ele>
        <time>2015-01-03T11:10:29Z</time>
      </trkpt>
      <trkpt lat="40.86991" lon="-3.68424">
        <ele>1283.98</ele>
        <time>2015-01-03T11:10:40Z</time>
      </trkpt>
      <trkpt lat="40.86987" lon="-3.68417">
        <ele>1282.54</ele>
        <time>2015-01-03T11:10:52Z</time>
      </trkpt>
      <trkpt lat="40.86985" lon="-3.68415">
        <ele>1282.06</ele>
        <time>2015-01-03T11:10:57Z</time>
      </trkpt>
      <trkpt lat="40.86984" lon="-3.68413">
        <ele>1281.57</ele>
        <time>2015-01-03T11:11:00Z</time>
      </trkpt>
      <trkpt lat="40.86979" lon="-3.68413">
        <ele>1281.57</ele>
        <time>2015-01-03T11:11:12Z</time>
      </trkpt>
      <trkpt lat="40.86976" lon="-3.68414">
        <ele>1280.13</ele>
        <time>2015-01-03T11:11:27Z</time>
      </trkpt>
      <trkpt lat="40.86972" lon="-3.68411">
        <ele>1277.73</ele>
        <time>2015-01-03T11:11:37Z</time>
      </trkpt>
      <trkpt lat="40.8697" lon="-3.68404">
        <ele>1276.77</ele>
        <time>2015-01-03T11:11:45Z</time>
      </trkpt>
      <trkpt lat="40.86968" lon="-3.68406">
        <ele>1276.29</ele>
        <time>2015-01-03T11:11:47Z</time>
      </trkpt>
      <trkpt lat="40.86962" lon="-3.68411">
        <ele>1275.33</ele>
        <time>2015-01-03T11:11:53Z</time>
      </trkpt>
      <trkpt lat="40.86955" lon="-3.6841">
        <ele>1273.88</ele>
        <time>2015-01-03T11:12:00Z</time>
      </trkpt>
      <trkpt lat="40.86938" lon="-3.68411">
        <ele>1270.52</ele>
        <time>2015-01-03T11:12:16Z</time>
      </trkpt>
      <trkpt lat="40.86935" lon="-3.6841">
        <ele>1270.04</ele>
        <time>2015-01-03T11:12:19Z</time>
      </trkpt>
      <trkpt lat="40.86928" lon="-3.68408">
        <ele>1267.64</ele>
        <time>2015-01-03T11:12:27Z</time>
      </trkpt>
      <trkpt lat="40.86925" lon="-3.68408">
        <ele>1267.16</ele>
        <time>2015-01-03T11:12:30Z</time>
      </trkpt>
      <trkpt lat="40.86916" lon="-3.68406">
        <ele>1264.75</ele>
        <time>2015-01-03T11:12:43Z</time>
      </trkpt>
      <trkpt lat="40.86913" lon="-3.68409">
        <ele>1265.23</ele>
        <time>2015-01-03T11:13:05Z</time>
      </trkpt>
      <trkpt lat="40.86908" lon="-3.68417">
        <ele>1264.75</ele>
        <time>2015-01-03T11:13:12Z</time>
      </trkpt>
      <trkpt lat="40.86896" lon="-3.68439">
        <ele>1265.71</ele>
        <time>2015-01-03T11:13:28Z</time>
      </trkpt>
      <trkpt lat="40.86895" lon="-3.68441">
        <ele>1265.71</ele>
        <time>2015-01-03T11:13:29Z</time>
      </trkpt>
      <trkpt lat="40.86891" lon="-3.68448">
        <ele>1266.19</ele>
        <time>2015-01-03T11:13:34Z</time>
      </trkpt>
      <trkpt lat="40.86878" lon="-3.6848">
        <ele>1265.71</ele>
        <time>2015-01-03T11:13:53Z</time>
      </trkpt>
      <trkpt lat="40.86867" lon="-3.68511">
        <ele>1263.79</ele>
        <time>2015-01-03T11:14:12Z</time>
      </trkpt>
      <trkpt lat="40.86858" lon="-3.68544">
        <ele>1263.31</ele>
        <time>2015-01-03T11:14:31Z</time>
      </trkpt>
      <trkpt lat="40.8685" lon="-3.68568">
        <ele>1262.83</ele>
        <time>2015-01-03T11:14:47Z</time>
      </trkpt>
      <trkpt lat="40.86842" lon="-3.68598">
        <ele>1262.35</ele>
        <time>2015-01-03T11:15:05Z</time>
      </trkpt>
      <trkpt lat="40.86834" lon="-3.68626">
        <ele>1261.87</ele>
        <time>2015-01-03T11:15:21Z</time>
      </trkpt>
      <trkpt lat="40.86828" lon="-3.6865">
        <ele>1260.91</ele>
        <time>2015-01-03T11:15:35Z</time>
      </trkpt>
      <trkpt lat="40.86814" lon="-3.68672">
        <ele>1260.43</ele>
        <time>2015-01-03T11:15:52Z</time>
      </trkpt>
      <trkpt lat="40.86796" lon="-3.68702">
        <ele>1259.46</ele>
        <time>2015-01-03T11:16:11Z</time>
      </trkpt>
      <trkpt lat="40.86782" lon="-3.68728">
        <ele>1259.46</ele>
        <time>2015-01-03T11:16:28Z</time>
      </trkpt>
      <trkpt lat="40.86783" lon="-3.68732">
        <ele>1259.94</ele>
        <time>2015-01-03T11:16:45Z</time>
      </trkpt>
      <trkpt lat="40.86783" lon="-3.68732">
        <ele>1259.94</ele>
        <time>2015-01-03T11:17:07Z</time>
      </trkpt>
      <trkpt lat="40.86777" lon="-3.68732">
        <ele>1258.98</ele>
        <time>2015-01-03T11:17:12Z</time>
      </trkpt>
      <trkpt lat="40.86774" lon="-3.68734">
        <ele>1258.98</ele>
        <time>2015-01-03T11:17:14Z</time>
      </trkpt>
      <trkpt lat="40.86752" lon="-3.68752">
        <ele>1256.58</ele>
        <time>2015-01-03T11:17:33Z</time>
      </trkpt>
      <trkpt lat="40.86737" lon="-3.68773">
        <ele>1253.22</ele>
        <time>2015-01-03T11:17:47Z</time>
      </trkpt>
      <trkpt lat="40.86724" lon="-3.68801">
        <ele>1252.25</ele>
        <time>2015-01-03T11:18:04Z</time>
      </trkpt>
      <trkpt lat="40.86719" lon="-3.68819">
        <ele>1252.25</ele>
        <time>2015-01-03T11:18:20Z</time>
      </trkpt>
      <trkpt lat="40.8671" lon="-3.68838">
        <ele>1250.33</ele>
        <time>2015-01-03T11:18:34Z</time>
      </trkpt>
      <trkpt lat="40.86696" lon="-3.6886">
        <ele>1246.97</ele>
        <time>2015-01-03T11:18:49Z</time>
      </trkpt>
      <trkpt lat="40.86682" lon="-3.68879">
        <ele>1244.08</ele>
        <time>2015-01-03T11:19:04Z</time>
      </trkpt>
      <trkpt lat="40.86671" lon="-3.68883">
        <ele>1241.68</ele>
        <time>2015-01-03T11:19:13Z</time>
      </trkpt>
      <trkpt lat="40.8665" lon="-3.68894">
        <ele>1238.8</ele>
        <time>2015-01-03T11:19:29Z</time>
      </trkpt>
      <trkpt lat="40.86631" lon="-3.68915">
        <ele>1237.83</ele>
        <time>2015-01-03T11:19:45Z</time>
      </trkpt>
      <trkpt lat="40.86613" lon="-3.68945">
        <ele>1240.24</ele>
        <time>2015-01-03T11:20:06Z</time>
      </trkpt>
      <trkpt lat="40.86595" lon="-3.68969">
        <ele>1241.2</ele>
        <time>2015-01-03T11:20:24Z</time>
      </trkpt>
      <trkpt lat="40.86576" lon="-3.68988">
        <ele>1241.2</ele>
        <time>2015-01-03T11:20:41Z</time>
      </trkpt>
      <trkpt lat="40.86559" lon="-3.69004">
        <ele>1239.76</ele>
        <time>2015-01-03T11:20:56Z</time>
      </trkpt>
      <trkpt lat="40.86543" lon="-3.69026">
        <ele>1241.68</ele>
        <time>2015-01-03T11:21:13Z</time>
      </trkpt>
      <trkpt lat="40.86529" lon="-3.69057">
        <ele>1241.68</ele>
        <time>2015-01-03T11:21:34Z</time>
      </trkpt>
      <trkpt lat="40.86515" lon="-3.69076">
        <ele>1241.68</ele>
        <time>2015-01-03T11:21:49Z</time>
      </trkpt>
      <trkpt lat="40.86496" lon="-3.691">
        <ele>1240.72</ele>
        <time>2015-01-03T11:22:08Z</time>
      </trkpt>
      <trkpt lat="40.86475" lon="-3.69141">
        <ele>1239.76</ele>
        <time>2015-01-03T11:22:33Z</time>
      </trkpt>
      <trkpt lat="40.86454" lon="-3.69168">
        <ele>1240.72</ele>
        <time>2015-01-03T11:22:54Z</time>
      </trkpt>
      <trkpt lat="40.86441" lon="-3.6919">
        <ele>1241.2</ele>
        <time>2015-01-03T11:23:09Z</time>
      </trkpt>
      <trkpt lat="40.86425" lon="-3.69211">
        <ele>1240.72</ele>
        <time>2015-01-03T11:23:25Z</time>
      </trkpt>
      <trkpt lat="40.86407" lon="-3.69234">
        <ele>1240.24</ele>
        <time>2015-01-03T11:23:43Z</time>
      </trkpt>
      <trkpt lat="40.86389" lon="-3.69261">
        <ele>1239.28</ele>
        <time>2015-01-03T11:24:01Z</time>
      </trkpt>
      <trkpt lat="40.86376" lon="-3.69292">
        <ele>1239.28</ele>
        <time>2015-01-03T11:24:19Z</time>
      </trkpt>
      <trkpt lat="40.86368" lon="-3.69315">
        <ele>1238.8</ele>
        <time>2015-01-03T11:24:35Z</time>
      </trkpt>
      <trkpt lat="40.86359" lon="-3.69335">
        <ele>1238.8</ele>
        <time>2015-01-03T11:24:49Z</time>
      </trkpt>
      <trkpt lat="40.8635" lon="-3.69361">
        <ele>1238.8</ele>
        <time>2015-01-03T11:25:07Z</time>
      </trkpt>
      <trkpt lat="40.86349" lon="-3.69364">
        <ele>1234.95</ele>
        <time>2015-01-03T11:25:09Z</time>
      </trkpt>
      <trkpt lat="40.86348" lon="-3.69365">
        <ele>1234.95</ele>
        <time>2015-01-03T11:25:10Z</time>
      </trkpt>
      <trkpt lat="40.86345" lon="-3.69375">
        <ele>1233.03</ele>
        <time>2015-01-03T11:25:17Z</time>
      </trkpt>
      <trkpt lat="40.86334" lon="-3.694">
        <ele>1230.62</ele>
        <time>2015-01-03T11:25:34Z</time>
      </trkpt>
      <trkpt lat="40.86319" lon="-3.69426">
        <ele>1229.66</ele>
        <time>2015-01-03T11:25:51Z</time>
      </trkpt>
      <trkpt lat="40.86299" lon="-3.69452">
        <ele>1227.26</ele>
        <time>2015-01-03T11:26:10Z</time>
      </trkpt>
      <trkpt lat="40.86286" lon="-3.69478">
        <ele>1225.34</ele>
        <time>2015-01-03T11:26:26Z</time>
      </trkpt>
      <trkpt lat="40.86275" lon="-3.69511">
        <ele>1224.38</ele>
        <time>2015-01-03T11:26:46Z</time>
      </trkpt>
      <trkpt lat="40.86267" lon="-3.69542">
        <ele>1222.93</ele>
        <time>2015-01-03T11:27:05Z</time>
      </trkpt>
      <trkpt lat="40.86261" lon="-3.69571">
        <ele>1221.97</ele>
        <time>2015-01-03T11:27:21Z</time>
      </trkpt>
      <trkpt lat="40.86257" lon="-3.69603">
        <ele>1220.53</ele>
        <time>2015-01-03T11:27:38Z</time>
      </trkpt>
      <trkpt lat="40.86249" lon="-3.69638">
        <ele>1220.05</ele>
        <time>2015-01-03T11:27:58Z</time>
      </trkpt>
      <trkpt lat="40.86241" lon="-3.6967">
        <ele>1220.53</ele>
        <time>2015-01-03T11:28:16Z</time>
      </trkpt>
      <trkpt lat="40.86232" lon="-3.69703">
        <ele>1220.53</ele>
        <time>2015-01-03T11:28:34Z</time>
      </trkpt>
      <trkpt lat="40.86225" lon="-3.69733">
        <ele>1221.01</ele>
        <time>2015-01-03T11:28:52Z</time>
      </trkpt>
      <trkpt lat="40.86217" lon="-3.69765">
        <ele>1220.05</ele>
        <time>2015-01-03T11:29:10Z</time>
      </trkpt>
      <trkpt lat="40.86211" lon="-3.69803">
        <ele>1219.57</ele>
        <time>2015-01-03T11:29:30Z</time>
      </trkpt>
      <trkpt lat="40.86205" lon="-3.69832">
        <ele>1220.05</ele>
        <time>2015-01-03T11:29:46Z</time>
      </trkpt>
      <trkpt lat="40.86197" lon="-3.69855">
        <ele>1220.53</ele>
        <time>2015-01-03T11:30:01Z</time>
      </trkpt>
      <trkpt lat="40.86186" lon="-3.69877">
        <ele>1221.01</ele>
        <time>2015-01-03T11:30:16Z</time>
      </trkpt>
      <trkpt lat="40.86171" lon="-3.69895">
        <ele>1221.97</ele>
        <time>2015-01-03T11:30:31Z</time>
      </trkpt>
      <trkpt lat="40.86152" lon="-3.69916">
        <ele>1221.01</ele>
        <time>2015-01-03T11:30:49Z</time>
      </trkpt>
      <trkpt lat="40.8614" lon="-3.69938">
        <ele>1220.05</ele>
        <time>2015-01-03T11:31:03Z</time>
      </trkpt>
      <trkpt lat="40.86132" lon="-3.69957">
        <ele>1218.13</ele>
        <time>2015-01-03T11:31:16Z</time>
      </trkpt>
      <trkpt lat="40.8613" lon="-3.69961">
        <ele>1219.09</ele>
        <time>2015-01-03T11:31:19Z</time>
      </trkpt>
      <trkpt lat="40.86115" lon="-3.69985">
        <ele>1217.17</ele>
        <time>2015-01-03T11:31:38Z</time>
      </trkpt>
      <trkpt lat="40.86096" lon="-3.70008">
        <ele>1217.17</ele>
        <time>2015-01-03T11:31:57Z</time>
      </trkpt>
      <trkpt lat="40.8608" lon="-3.70028">
        <ele>1218.13</ele>
        <time>2015-01-03T11:32:13Z</time>
      </trkpt>
      <trkpt lat="40.86075" lon="-3.70037">
        <ele>1218.13</ele>
        <time>2015-01-03T11:32:19Z</time>
      </trkpt>
      <trkpt lat="40.8606" lon="-3.70059">
        <ele>1218.13</ele>
        <time>2015-01-03T11:32:34Z</time>
      </trkpt>
      <trkpt lat="40.86052" lon="-3.70072">
        <ele>1217.17</ele>
        <time>2015-01-03T11:32:44Z</time>
      </trkpt>
      <trkpt lat="40.86038" lon="-3.70098">
        <ele>1215.24</ele>
        <time>2015-01-03T11:33:02Z</time>
      </trkpt>
      <trkpt lat="40.86021" lon="-3.70131">
        <ele>1212.84</ele>
        <time>2015-01-03T11:33:23Z</time>
      </trkpt>
      <trkpt lat="40.86004" lon="-3.70165">
        <ele>1211.88</ele>
        <time>2015-01-03T11:33:43Z</time>
      </trkpt>
      <trkpt lat="40.8599" lon="-3.70206">
        <ele>1210.92</ele>
        <time>2015-01-03T11:34:05Z</time>
      </trkpt>
      <trkpt lat="40.85979" lon="-3.70228">
        <ele>1210.44</ele>
        <time>2015-01-03T11:34:20Z</time>
      </trkpt>
      <trkpt lat="40.85972" lon="-3.70235">
        <ele>1210.44</ele>
        <time>2015-01-03T11:34:26Z</time>
      </trkpt>
      <trkpt lat="40.85968" lon="-3.70244">
        <ele>1210.44</ele>
        <time>2015-01-03T11:34:31Z</time>
      </trkpt>
      <trkpt lat="40.85958" lon="-3.70278">
        <ele>1210.92</ele>
        <time>2015-01-03T11:34:50Z</time>
      </trkpt>
      <trkpt lat="40.85946" lon="-3.70305">
        <ele>1211.88</ele>
        <time>2015-01-03T11:35:06Z</time>
      </trkpt>
      <trkpt lat="40.85937" lon="-3.70335">
        <ele>1212.84</ele>
        <time>2015-01-03T11:35:25Z</time>
      </trkpt>
      <trkpt lat="40.85929" lon="-3.70368">
        <ele>1213.32</ele>
        <time>2015-01-03T11:35:42Z</time>
      </trkpt>
      <trkpt lat="40.85927" lon="-3.70401">
        <ele>1212.84</ele>
        <time>2015-01-03T11:36:01Z</time>
      </trkpt>
      <trkpt lat="40.85926" lon="-3.70433">
        <ele>1213.32</ele>
        <time>2015-01-03T11:36:19Z</time>
      </trkpt>
      <trkpt lat="40.85924" lon="-3.70462">
        <ele>1213.32</ele>
        <time>2015-01-03T11:36:33Z</time>
      </trkpt>
      <trkpt lat="40.85925" lon="-3.70485">
        <ele>1213.32</ele>
        <time>2015-01-03T11:36:44Z</time>
      </trkpt>
      <trkpt lat="40.85927" lon="-3.70516">
        <ele>1213.32</ele>
        <time>2015-01-03T11:37:00Z</time>
      </trkpt>
      <trkpt lat="40.85925" lon="-3.70555">
        <ele>1213.32</ele>
        <time>2015-01-03T11:37:18Z</time>
      </trkpt>
      <trkpt lat="40.85923" lon="-3.70584">
        <ele>1213.8</ele>
        <time>2015-01-03T11:37:34Z</time>
      </trkpt>
      <trkpt lat="40.85921" lon="-3.7061">
        <ele>1215.24</ele>
        <time>2015-01-03T11:37:49Z</time>
      </trkpt>
      <trkpt lat="40.85917" lon="-3.70624">
        <ele>1216.21</ele>
        <time>2015-01-03T11:37:58Z</time>
      </trkpt>
      <trkpt lat="40.85909" lon="-3.70652">
        <ele>1217.65</ele>
        <time>2015-01-03T11:38:16Z</time>
      </trkpt>
      <trkpt lat="40.85906" lon="-3.70661">
        <ele>1218.13</ele>
        <time>2015-01-03T11:38:21Z</time>
      </trkpt>
      <trkpt lat="40.85901" lon="-3.70691">
        <ele>1219.57</ele>
        <time>2015-01-03T11:38:37Z</time>
      </trkpt>
      <trkpt lat="40.85895" lon="-3.70723">
        <ele>1220.53</ele>
        <time>2015-01-03T11:38:56Z</time>
      </trkpt>
      <trkpt lat="40.85887" lon="-3.70756">
        <ele>1220.05</ele>
        <time>2015-01-03T11:39:13Z</time>
      </trkpt>
      <trkpt lat="40.85878" lon="-3.70786">
        <ele>1220.53</ele>
        <time>2015-01-03T11:39:28Z</time>
      </trkpt>
      <trkpt lat="40.85871" lon="-3.70817">
        <ele>1220.53</ele>
        <time>2015-01-03T11:39:45Z</time>
      </trkpt>
      <trkpt lat="40.85863" lon="-3.70849">
        <ele>1221.01</ele>
        <time>2015-01-03T11:40:02Z</time>
      </trkpt>
      <trkpt lat="40.8585" lon="-3.70871">
        <ele>1221.97</ele>
        <time>2015-01-03T11:40:17Z</time>
      </trkpt>
      <trkpt lat="40.85838" lon="-3.70897">
        <ele>1223.9</ele>
        <time>2015-01-03T11:40:35Z</time>
      </trkpt>
      <trkpt lat="40.85834" lon="-3.70907">
        <ele>1224.86</ele>
        <time>2015-01-03T11:40:41Z</time>
      </trkpt>
      <trkpt lat="40.85831" lon="-3.70909">
        <ele>1224.86</ele>
        <time>2015-01-03T11:40:44Z</time>
      </trkpt>
      <trkpt lat="40.8582" lon="-3.70932">
        <ele>1225.82</ele>
        <time>2015-01-03T11:41:00Z</time>
      </trkpt>
      <trkpt lat="40.85815" lon="-3.70962">
        <ele>1226.3</ele>
        <time>2015-01-03T11:41:16Z</time>
      </trkpt>
      <trkpt lat="40.85816" lon="-3.70984">
        <ele>1226.78</ele>
        <time>2015-01-03T11:41:31Z</time>
      </trkpt>
      <trkpt lat="40.85819" lon="-3.70979">
        <ele>1226.78</ele>
        <time>2015-01-03T11:41:42Z</time>
      </trkpt>
      <trkpt lat="40.8582" lon="-3.70981">
        <ele>1226.78</ele>
        <time>2015-01-03T11:42:03Z</time>
      </trkpt>
      <trkpt lat="40.85815" lon="-3.71013">
        <ele>1225.82</ele>
        <time>2015-01-03T11:42:20Z</time>
      </trkpt>
      <trkpt lat="40.85807" lon="-3.71038">
        <ele>1224.38</ele>
        <time>2015-01-03T11:42:34Z</time>
      </trkpt>
      <trkpt lat="40.85806" lon="-3.71048">
        <ele>1224.38</ele>
        <time>2015-01-03T11:42:38Z</time>
      </trkpt>
      <trkpt lat="40.858" lon="-3.71065">
        <ele>1225.34</ele>
        <time>2015-01-03T11:42:48Z</time>
      </trkpt>
      <trkpt lat="40.85798" lon="-3.71073">
        <ele>1224.86</ele>
        <time>2015-01-03T11:42:52Z</time>
      </trkpt>
      <trkpt lat="40.85794" lon="-3.71089">
        <ele>1225.82</ele>
        <time>2015-01-03T11:43:01Z</time>
      </trkpt>
      <trkpt lat="40.85799" lon="-3.71113">
        <ele>1226.3</ele>
        <time>2015-01-03T11:43:13Z</time>
      </trkpt>
      <trkpt lat="40.85808" lon="-3.71124">
        <ele>1226.78</ele>
        <time>2015-01-03T11:43:23Z</time>
      </trkpt>
    </trkseg>
  </trk>
</gpx>